﻿<?xml version="1.0" encoding="utf-8"?><gpx creator="Garmin Desktop App" version="1.1" xsi:schemaLocation="http://www.topografix.com/GPX/1/1 http://www.topografix.com/GPX/1/1/gpx.xsd http://www.garmin.com/xmlschemas/WaypointExtension/v1 http://www8.garmin.com/xmlschemas/WaypointExtensionv1.xsd http://www.garmin.com/xmlschemas/TrackPointExtension/v1 http://www.garmin.com/xmlschemas/TrackPointExtensionv1.xsd http://www.garmin.com/xmlschemas/GpxExtensions/v3 http://www8.garmin.com/xmlschemas/GpxExtensionsv3.xsd http://www.garmin.com/xmlschemas/ActivityExtension/v1 http://www8.garmin.com/xmlschemas/ActivityExtensionv1.xsd http://www.garmin.com/xmlschemas/AdventuresExtensions/v1 http://www8.garmin.com/xmlschemas/AdventuresExtensionv1.xsd http://www.garmin.com/xmlschemas/PressureExtension/v1 http://www.garmin.com/xmlschemas/PressureExtensionv1.xsd http://www.garmin.com/xmlschemas/TripExtensions/v1 http://www.garmin.com/xmlschemas/TripExtensionsv1.xsd http://www.garmin.com/xmlschemas/TripMetaDataExtensions/v1 http://www.garmin.com/xmlschemas/TripMetaDataExtensionsv1.xsd http://www.garmin.com/xmlschemas/ViaPointTransportationModeExtensions/v1 http://www.garmin.com/xmlschemas/ViaPointTransportationModeExtensionsv1.xsd http://www.garmin.com/xmlschemas/CreationTimeExtension/v1 http://www.garmin.com/xmlschemas/CreationTimeExtensionsv1.xsd http://www.garmin.com/xmlschemas/AccelerationExtension/v1 http://www.garmin.com/xmlschemas/AccelerationExtensionv1.xsd http://www.garmin.com/xmlschemas/PowerExtension/v1 http://www.garmin.com/xmlschemas/PowerExtensionv1.xsd http://www.garmin.com/xmlschemas/VideoExtension/v1 http://www.garmin.com/xmlschemas/VideoExtensionv1.xsd" xmlns="http://www.topografix.com/GPX/1/1" xmlns:xsi="http://www.w3.org/2001/XMLSchema-instance" xmlns:wptx1="http://www.garmin.com/xmlschemas/WaypointExtension/v1" xmlns:gpxtrx="http://www.garmin.com/xmlschemas/GpxExtensions/v3" xmlns:gpxtpx="http://www.garmin.com/xmlschemas/TrackPointExtension/v1" xmlns:gpxx="http://www.garmin.com/xmlschemas/GpxExtensions/v3" xmlns:trp="http://www.garmin.com/xmlschemas/TripExtensions/v1" xmlns:adv="http://www.garmin.com/xmlschemas/AdventuresExtensions/v1" xmlns:prs="http://www.garmin.com/xmlschemas/PressureExtension/v1" xmlns:tmd="http://www.garmin.com/xmlschemas/TripMetaDataExtensions/v1" xmlns:vptm="http://www.garmin.com/xmlschemas/ViaPointTransportationModeExtensions/v1" xmlns:ctx="http://www.garmin.com/xmlschemas/CreationTimeExtension/v1" xmlns:gpxacc="http://www.garmin.com/xmlschemas/AccelerationExtension/v1" xmlns:gpxpx="http://www.garmin.com/xmlschemas/PowerExtension/v1" xmlns:vidx1="http://www.garmin.com/xmlschemas/VideoExtension/v1">

  <metadata>
    <link href="http://www.garmin.com">
      <text>Garmin International</text>
    </link>
    <time>2021-08-07T16:11:20Z</time>
    <bounds maxlat="50.306078055873513" maxlon="6.862814733758569" minlat="50.266438778489828" minlon="6.67314131744206" />
  </metadata>

  <trk>
    <name>heidberghof eifeltrotter 26 km</name>
    <extensions>
      <gpxx:TrackExtension>
        <gpxx:DisplayColor>Red</gpxx:DisplayColor>
      </gpxx:TrackExtension>
    </extensions>
    <trkseg>
      <trkpt lat="50.2665541972965" lon="6.674849297851324">
        <ele>422.16000000000003</ele>
        <time>2017-05-25T14:03:57Z</time>
      </trkpt>
      <trkpt lat="50.266556544229388" lon="6.674852315336466">
        <ele>426.95999999999998</ele>
        <time>2017-05-25T14:03:55Z</time>
      </trkpt>
      <trkpt lat="50.266558220610023" lon="6.674829768016934">
        <ele>426.95999999999998</ele>
        <time>2017-05-25T14:03:36Z</time>
      </trkpt>
      <trkpt lat="50.26654439046979" lon="6.674823984503746">
        <ele>427.44</ele>
        <time>2017-05-25T14:03:23Z</time>
      </trkpt>
      <trkpt lat="50.266477335244417" lon="6.674525504931808">
        <ele>425.51999999999998</ele>
        <time>2017-05-25T14:03:05Z</time>
      </trkpt>
      <trkpt lat="50.266438778489828" lon="6.674047652631998">
        <ele>424.56</ele>
        <time>2017-05-25T14:02:46Z</time>
      </trkpt>
      <trkpt lat="50.266439449042082" lon="6.673690415918827">
        <ele>423.60000000000002</ele>
        <time>2017-05-25T14:02:29Z</time>
      </trkpt>
      <trkpt lat="50.266454871743917" lon="6.673568710684776">
        <ele>423.60000000000002</ele>
        <time>2017-05-25T14:02:16Z</time>
      </trkpt>
      <trkpt lat="50.266548413783312" lon="6.67314131744206">
        <ele>422.63999999999999</ele>
        <time>2017-05-25T14:01:59Z</time>
      </trkpt>
      <trkpt lat="50.266639860346913" lon="6.673149196431041">
        <ele>423.60000000000002</ele>
        <time>2017-05-25T14:01:52Z</time>
      </trkpt>
      <trkpt lat="50.266914451494813" lon="6.673378609120846">
        <ele>426</ele>
        <time>2017-05-25T14:01:32Z</time>
      </trkpt>
      <trkpt lat="50.2672397531569" lon="6.673646746203303">
        <ele>427.92000000000002</ele>
        <time>2017-05-25T14:01:14Z</time>
      </trkpt>
      <trkpt lat="50.267504956573248" lon="6.673888647928834">
        <ele>430.81</ele>
        <time>2017-05-25T14:00:58Z</time>
      </trkpt>
      <trkpt lat="50.267812572419643" lon="6.674056453630328">
        <ele>430.81</ele>
        <time>2017-05-25T14:00:40Z</time>
      </trkpt>
      <trkpt lat="50.268029998987913" lon="6.67425099760294">
        <ele>428.39999999999998</ele>
        <time>2017-05-25T14:00:21Z</time>
      </trkpt>
      <trkpt lat="50.268236109986901" lon="6.674559200182557">
        <ele>429.85000000000002</ele>
        <time>2017-05-25T14:00:01Z</time>
      </trkpt>
      <trkpt lat="50.268414560705423" lon="6.674830773845315">
        <ele>430.32999999999998</ele>
        <time>2017-05-25T13:59:44Z</time>
      </trkpt>
      <trkpt lat="50.268620504066348" lon="6.675142664462328">
        <ele>430.81</ele>
        <time>2017-05-25T13:59:27Z</time>
      </trkpt>
      <trkpt lat="50.268819238990545" lon="6.675474923104048">
        <ele>432.25</ele>
        <time>2017-05-25T13:59:11Z</time>
      </trkpt>
      <trkpt lat="50.268952595070004" lon="6.675759991630912">
        <ele>432.73000000000002</ele>
        <time>2017-05-25T13:58:57Z</time>
      </trkpt>
      <trkpt lat="50.269159795716405" lon="6.676163412630558">
        <ele>435.13</ele>
        <time>2017-05-25T13:58:37Z</time>
      </trkpt>
      <trkpt lat="50.269353333860636" lon="6.67657152749598">
        <ele>436.57999999999998</ele>
        <time>2017-05-25T13:58:17Z</time>
      </trkpt>
      <trkpt lat="50.269626835361123" lon="6.677053151652217">
        <ele>439.45999999999998</ele>
        <time>2017-05-25T13:57:57Z</time>
      </trkpt>
      <trkpt lat="50.269675701856613" lon="6.677203103899956">
        <ele>439.94</ele>
        <time>2017-05-25T13:57:50Z</time>
      </trkpt>
      <trkpt lat="50.269781397655606" lon="6.677693948149681">
        <ele>441.86000000000001</ele>
        <time>2017-05-25T13:57:33Z</time>
      </trkpt>
      <trkpt lat="50.269807381555438" lon="6.677808361127973">
        <ele>442.33999999999997</ele>
        <time>2017-05-25T13:57:29Z</time>
      </trkpt>
      <trkpt lat="50.269815344363451" lon="6.678141038864851">
        <ele>443.31</ele>
        <time>2017-05-25T13:57:16Z</time>
      </trkpt>
      <trkpt lat="50.269856918603182" lon="6.678407080471516">
        <ele>444.75</ele>
        <time>2017-05-25T13:57:04Z</time>
      </trkpt>
      <trkpt lat="50.269884830340743" lon="6.67875912040472">
        <ele>446.67000000000002</ele>
        <time>2017-05-25T13:56:46Z</time>
      </trkpt>
      <trkpt lat="50.269935792312026" lon="6.679071262478828">
        <ele>447.63</ele>
        <time>2017-05-25T13:56:29Z</time>
      </trkpt>
      <trkpt lat="50.269951801747084" lon="6.679157763719559">
        <ele>448.11000000000001</ele>
        <time>2017-05-25T13:56:24Z</time>
      </trkpt>
      <trkpt lat="50.270115081220865" lon="6.679354906082153">
        <ele>448.58999999999997</ele>
        <time>2017-05-25T13:56:10Z</time>
      </trkpt>
      <trkpt lat="50.270331334322691" lon="6.679458590224385">
        <ele>446.67000000000002</ele>
        <time>2017-05-25T13:56:00Z</time>
      </trkpt>
      <trkpt lat="50.270579941570759" lon="6.679548276588321">
        <ele>446.19</ele>
        <time>2017-05-25T13:55:46Z</time>
      </trkpt>
      <trkpt lat="50.27082234621048" lon="6.679314505308867">
        <ele>445.70999999999998</ele>
        <time>2017-05-25T13:55:28Z</time>
      </trkpt>
      <trkpt lat="50.271014207974076" lon="6.678977133706212">
        <ele>448.11000000000001</ele>
        <time>2017-05-25T13:55:08Z</time>
      </trkpt>
      <trkpt lat="50.271213864907622" lon="6.67876984924078">
        <ele>450.02999999999997</ele>
        <time>2017-05-25T13:54:52Z</time>
      </trkpt>
      <trkpt lat="50.271385023370385" lon="6.678532641381025">
        <ele>453.39999999999998</ele>
        <time>2017-05-25T13:54:37Z</time>
      </trkpt>
      <trkpt lat="50.271491641178727" lon="6.678370116278529">
        <ele>456.75999999999999</ele>
        <time>2017-05-25T13:54:26Z</time>
      </trkpt>
      <trkpt lat="50.271677048876882" lon="6.678439434617758">
        <ele>460.13</ele>
        <time>2017-05-25T13:54:10Z</time>
      </trkpt>
      <trkpt lat="50.271893553435802" lon="6.678697429597378">
        <ele>461.08999999999997</ele>
        <time>2017-05-25T13:53:55Z</time>
      </trkpt>
      <trkpt lat="50.272139478474855" lon="6.679051900282502">
        <ele>462.52999999999997</ele>
        <time>2017-05-25T13:53:36Z</time>
      </trkpt>
      <trkpt lat="50.272359251976013" lon="6.679336633533239">
        <ele>464.44999999999999</ele>
        <time>2017-05-25T13:53:20Z</time>
      </trkpt>
      <trkpt lat="50.27261121198535" lon="6.679668808355928">
        <ele>466.38</ele>
        <time>2017-05-25T13:53:01Z</time>
      </trkpt>
      <trkpt lat="50.272785304114223" lon="6.679942477494478">
        <ele>467.33999999999997</ele>
        <time>2017-05-25T13:52:46Z</time>
      </trkpt>
      <trkpt lat="50.272947326302528" lon="6.680298121646047">
        <ele>469.74000000000001</ele>
        <time>2017-05-25T13:52:28Z</time>
      </trkpt>
      <trkpt lat="50.27301337569952" lon="6.68043902143836">
        <ele>470.22000000000003</ele>
        <time>2017-05-25T13:52:21Z</time>
      </trkpt>
      <trkpt lat="50.273149413987994" lon="6.680747140198946">
        <ele>471.66000000000003</ele>
        <time>2017-05-25T13:52:07Z</time>
      </trkpt>
      <trkpt lat="50.273237340152264" lon="6.681221723556519">
        <ele>473.58999999999997</ele>
        <time>2017-05-25T13:51:48Z</time>
      </trkpt>
      <trkpt lat="50.27325326576829" lon="6.681589437648654">
        <ele>475.50999999999999</ele>
        <time>2017-05-25T13:51:32Z</time>
      </trkpt>
      <trkpt lat="50.273261480033398" lon="6.681921780109406">
        <ele>477.43000000000001</ele>
        <time>2017-05-25T13:51:17Z</time>
      </trkpt>
      <trkpt lat="50.273300455883145" lon="6.682143649086356">
        <ele>478.87</ele>
        <time>2017-05-25T13:51:07Z</time>
      </trkpt>
      <trkpt lat="50.273512518033385" lon="6.68240474537015">
        <ele>479.83999999999997</ele>
        <time>2017-05-25T13:50:49Z</time>
      </trkpt>
      <trkpt lat="50.273693399503827" lon="6.682739015668631">
        <ele>481.27999999999997</ele>
        <time>2017-05-25T13:50:32Z</time>
      </trkpt>
      <trkpt lat="50.27386455796659" lon="6.683171354234219">
        <ele>483.19999999999999</ele>
        <time>2017-05-25T13:50:13Z</time>
      </trkpt>
      <trkpt lat="50.274065136909485" lon="6.683359360322356">
        <ele>487.05000000000001</ele>
        <time>2017-05-25T13:49:57Z</time>
      </trkpt>
      <trkpt lat="50.274127414450049" lon="6.68336589820683">
        <ele>488.00999999999999</ele>
        <time>2017-05-25T13:49:52Z</time>
      </trkpt>
      <trkpt lat="50.274171754717827" lon="6.683333544060588">
        <ele>488.49000000000001</ele>
        <time>2017-05-25T13:49:47Z</time>
      </trkpt>
      <trkpt lat="50.274247108027339" lon="6.683229776099324">
        <ele>491.37</ele>
        <time>2017-05-25T13:49:38Z</time>
      </trkpt>
      <trkpt lat="50.274258255958557" lon="6.683216700330377">
        <ele>491.37</ele>
        <time>2017-05-25T13:49:37Z</time>
      </trkpt>
      <trkpt lat="50.274411393329501" lon="6.683046463876963">
        <ele>495.22000000000003</ele>
        <time>2017-05-25T13:49:24Z</time>
      </trkpt>
      <trkpt lat="50.274517172947526" lon="6.682935655117035">
        <ele>496.66000000000003</ele>
        <time>2017-05-25T13:49:15Z</time>
      </trkpt>
      <trkpt lat="50.274694869294763" lon="6.682815039530397">
        <ele>499.54000000000002</ele>
        <time>2017-05-25T13:49:01Z</time>
      </trkpt>
      <trkpt lat="50.274906679987907" lon="6.682700207456946">
        <ele>502.91000000000003</ele>
        <time>2017-05-25T13:48:45Z</time>
      </trkpt>
      <trkpt lat="50.275191329419613" lon="6.682517733424902">
        <ele>505.79000000000002</ele>
        <time>2017-05-25T13:48:25Z</time>
      </trkpt>
      <trkpt lat="50.275234328582883" lon="6.68248294852674">
        <ele>507.23000000000002</ele>
        <time>2017-05-25T13:48:22Z</time>
      </trkpt>
      <trkpt lat="50.27528453618288" lon="6.682456461712718">
        <ele>506.75</ele>
        <time>2017-05-25T13:48:18Z</time>
      </trkpt>
      <trkpt lat="50.275323763489723" lon="6.682465765625238">
        <ele>507.70999999999998</ele>
        <time>2017-05-25T13:48:15Z</time>
      </trkpt>
      <trkpt lat="50.275527779012918" lon="6.682338025420904">
        <ele>510.12</ele>
        <time>2017-05-25T13:48:01Z</time>
      </trkpt>
      <trkpt lat="50.275708911940455" lon="6.682236855849624">
        <ele>513</ele>
        <time>2017-05-25T13:47:46Z</time>
      </trkpt>
      <trkpt lat="50.275958105921745" lon="6.682078102603555">
        <ele>513.96000000000004</ele>
        <time>2017-05-25T13:47:29Z</time>
      </trkpt>
      <trkpt lat="50.276175616309047" lon="6.681754728779197">
        <ele>515.88</ele>
        <time>2017-05-25T13:47:10Z</time>
      </trkpt>
      <trkpt lat="50.276343254372478" lon="6.681366981938481">
        <ele>517.33000000000004</ele>
        <time>2017-05-25T13:46:52Z</time>
      </trkpt>
      <trkpt lat="50.276563111692667" lon="6.680935481563211">
        <ele>518.76999999999998</ele>
        <time>2017-05-25T13:46:31Z</time>
      </trkpt>
      <trkpt lat="50.276740388944745" lon="6.680600373074412">
        <ele>518.28999999999996</ele>
        <time>2017-05-25T13:46:14Z</time>
      </trkpt>
      <trkpt lat="50.27698346413672" lon="6.680208267644048">
        <ele>517.33000000000004</ele>
        <time>2017-05-25T13:45:56Z</time>
      </trkpt>
      <trkpt lat="50.277066444978118" lon="6.680149929597974">
        <ele>516.37</ele>
        <time>2017-05-25T13:45:52Z</time>
      </trkpt>
      <trkpt lat="50.277080778032541" lon="6.680145403370261">
        <ele>516.85000000000002</ele>
        <time>2017-05-25T13:45:51Z</time>
      </trkpt>
      <trkpt lat="50.277293343096972" lon="6.680234922096133">
        <ele>514.91999999999996</ele>
        <time>2017-05-25T13:45:37Z</time>
      </trkpt>
      <trkpt lat="50.277421502396464" lon="6.680339612066746">
        <ele>513.96000000000004</ele>
        <time>2017-05-25T13:45:29Z</time>
      </trkpt>
      <trkpt lat="50.277741020545363" lon="6.680612862110138">
        <ele>512.51999999999998</ele>
        <time>2017-05-25T13:45:07Z</time>
      </trkpt>
      <trkpt lat="50.278056850656867" lon="6.680918969213963">
        <ele>511.56</ele>
        <time>2017-05-25T13:44:45Z</time>
      </trkpt>
      <trkpt lat="50.278339572250843" lon="6.681174030527473">
        <ele>512.03999999999996</ele>
        <time>2017-05-25T13:44:24Z</time>
      </trkpt>
      <trkpt lat="50.278591867536306" lon="6.681311493739486">
        <ele>511.56</ele>
        <time>2017-05-25T13:44:06Z</time>
      </trkpt>
      <trkpt lat="50.279016327112913" lon="6.681297915056348">
        <ele>511.56</ele>
        <time>2017-05-25T13:43:46Z</time>
      </trkpt>
      <trkpt lat="50.279332492500544" lon="6.681319624185562">
        <ele>511.07999999999998</ele>
        <time>2017-05-25T13:43:30Z</time>
      </trkpt>
      <trkpt lat="50.279602222144604" lon="6.68129657395184">
        <ele>510.12</ele>
        <time>2017-05-25T13:43:11Z</time>
      </trkpt>
      <trkpt lat="50.279865330085158" lon="6.68125650845468">
        <ele>509.63999999999999</ele>
        <time>2017-05-25T13:42:54Z</time>
      </trkpt>
      <trkpt lat="50.280118798837066" lon="6.681223316118121">
        <ele>510.12</ele>
        <time>2017-05-25T13:42:36Z</time>
      </trkpt>
      <trkpt lat="50.280211754143238" lon="6.681220382452011">
        <ele>509.63999999999999</ele>
        <time>2017-05-25T13:42:31Z</time>
      </trkpt>
      <trkpt lat="50.280484082177281" lon="6.68124770745635">
        <ele>510.60000000000002</ele>
        <time>2017-05-25T13:42:14Z</time>
      </trkpt>
      <trkpt lat="50.280767306685448" lon="6.681229267269373">
        <ele>510.12</ele>
        <time>2017-05-25T13:41:58Z</time>
      </trkpt>
      <trkpt lat="50.280810473486781" lon="6.681250976398587">
        <ele>510.60000000000002</ele>
        <time>2017-05-25T13:41:56Z</time>
      </trkpt>
      <trkpt lat="50.281031504273415" lon="6.681341668590903">
        <ele>510.60000000000002</ele>
        <time>2017-05-25T13:41:41Z</time>
      </trkpt>
      <trkpt lat="50.281450096517801" lon="6.681150393560529">
        <ele>510.60000000000002</ele>
        <time>2017-05-25T13:41:21Z</time>
      </trkpt>
      <trkpt lat="50.28156534768641" lon="6.68099557980895">
        <ele>510.12</ele>
        <time>2017-05-25T13:41:15Z</time>
      </trkpt>
      <trkpt lat="50.281633995473385" lon="6.68099214322865">
        <ele>509.16000000000003</ele>
        <time>2017-05-25T13:41:05Z</time>
      </trkpt>
      <trkpt lat="50.281793083995581" lon="6.680820733308792">
        <ele>508.67000000000002</ele>
        <time>2017-05-25T13:40:51Z</time>
      </trkpt>
      <trkpt lat="50.281976480036974" lon="6.680591655895114">
        <ele>507.70999999999998</ele>
        <time>2017-05-25T13:40:37Z</time>
      </trkpt>
      <trkpt lat="50.282161636278033" lon="6.68022645637393">
        <ele>507.23000000000002</ele>
        <time>2017-05-25T13:40:19Z</time>
      </trkpt>
      <trkpt lat="50.282170940190554" lon="6.680206675082445">
        <ele>507.23000000000002</ele>
        <time>2017-05-25T13:40:18Z</time>
      </trkpt>
      <trkpt lat="50.282301362603903" lon="6.679836362600327">
        <ele>504.82999999999998</ele>
        <time>2017-05-25T13:40:03Z</time>
      </trkpt>
      <trkpt lat="50.282435640692711" lon="6.679462781175971">
        <ele>504.35000000000002</ele>
        <time>2017-05-25T13:39:46Z</time>
      </trkpt>
      <trkpt lat="50.282567404210567" lon="6.679047960788012">
        <ele>502.91000000000003</ele>
        <time>2017-05-25T13:39:27Z</time>
      </trkpt>
      <trkpt lat="50.282708052545786" lon="6.678616963326931">
        <ele>502.43000000000001</ele>
        <time>2017-05-25T13:39:09Z</time>
      </trkpt>
      <trkpt lat="50.282858675345778" lon="6.678345557302237">
        <ele>502.91000000000003</ele>
        <time>2017-05-25T13:38:53Z</time>
      </trkpt>
      <trkpt lat="50.282937297597528" lon="6.67841169051826">
        <ele>504.82999999999998</ele>
        <time>2017-05-25T13:38:47Z</time>
      </trkpt>
      <trkpt lat="50.283051207661629" lon="6.678525265306234">
        <ele>508.19</ele>
        <time>2017-05-25T13:38:35Z</time>
      </trkpt>
      <trkpt lat="50.283145671710372" lon="6.678589638322592">
        <ele>509.63999999999999</ele>
        <time>2017-05-25T13:38:28Z</time>
      </trkpt>
      <trkpt lat="50.283284978941083" lon="6.678710840642452">
        <ele>512.51999999999998</ele>
        <time>2017-05-25T13:38:16Z</time>
      </trkpt>
      <trkpt lat="50.283424202352762" lon="6.678819051012397">
        <ele>515.88</ele>
        <time>2017-05-25T13:38:03Z</time>
      </trkpt>
      <trkpt lat="50.283569963648915" lon="6.678946036845446">
        <ele>519.25</ele>
        <time>2017-05-25T13:37:50Z</time>
      </trkpt>
      <trkpt lat="50.283664846792817" lon="6.679029269143939">
        <ele>522.13</ele>
        <time>2017-05-25T13:37:40Z</time>
      </trkpt>
      <trkpt lat="50.283806584775448" lon="6.679153069853783">
        <ele>525.5</ele>
        <time>2017-05-25T13:37:26Z</time>
      </trkpt>
      <trkpt lat="50.283928541466594" lon="6.679315008223057">
        <ele>528.38</ele>
        <time>2017-05-25T13:37:14Z</time>
      </trkpt>
      <trkpt lat="50.283998027443886" lon="6.679411567747593">
        <ele>529.82000000000005</ele>
        <time>2017-05-25T13:37:07Z</time>
      </trkpt>
      <trkpt lat="50.284069776535034" lon="6.679503014311194">
        <ele>529.82000000000005</ele>
        <time>2017-05-25T13:37:00Z</time>
      </trkpt>
      <trkpt lat="50.284219812601805" lon="6.679720273241401">
        <ele>530.78999999999996</ele>
        <time>2017-05-25T13:36:47Z</time>
      </trkpt>
      <trkpt lat="50.284404885023832" lon="6.680036019533873">
        <ele>532.23000000000002</ele>
        <time>2017-05-25T13:36:31Z</time>
      </trkpt>
      <trkpt lat="50.284708393737674" lon="6.680076671764255">
        <ele>529.82000000000005</ele>
        <time>2017-05-25T13:36:19Z</time>
      </trkpt>
      <trkpt lat="50.284750554710627" lon="6.680081197991967">
        <ele>529.82000000000005</ele>
        <time>2017-05-25T13:36:18Z</time>
      </trkpt>
      <trkpt lat="50.285118352621794" lon="6.680114809423685">
        <ele>526.46000000000004</ele>
        <time>2017-05-25T13:36:07Z</time>
      </trkpt>
      <trkpt lat="50.285553121939301" lon="6.680158227682114">
        <ele>523.58000000000004</ele>
        <time>2017-05-25T13:35:53Z</time>
      </trkpt>
      <trkpt lat="50.285969199612737" lon="6.680198712274432">
        <ele>520.21000000000004</ele>
        <time>2017-05-25T13:35:39Z</time>
      </trkpt>
      <trkpt lat="50.286256698891521" lon="6.680229054763913">
        <ele>517.80999999999995</ele>
        <time>2017-05-25T13:35:21Z</time>
      </trkpt>
      <trkpt lat="50.286365076899529" lon="6.680212961509824">
        <ele>517.33000000000004</ele>
        <time>2017-05-25T13:35:15Z</time>
      </trkpt>
      <trkpt lat="50.286649474874139" lon="6.680240789428353">
        <ele>515.39999999999998</ele>
        <time>2017-05-25T13:34:58Z</time>
      </trkpt>
      <trkpt lat="50.286884251981974" lon="6.680276496335864">
        <ele>513.96000000000004</ele>
        <time>2017-05-25T13:34:44Z</time>
      </trkpt>
      <trkpt lat="50.287209721282125" lon="6.680316980928183">
        <ele>511.07999999999998</ele>
        <time>2017-05-25T13:34:25Z</time>
      </trkpt>
      <trkpt lat="50.287285996600986" lon="6.680327039211988">
        <ele>510.12</ele>
        <time>2017-05-25T13:34:20Z</time>
      </trkpt>
      <trkpt lat="50.287303598597646" lon="6.68032905086875">
        <ele>513.48000000000002</ele>
        <time>2017-05-25T13:34:19Z</time>
      </trkpt>
      <trkpt lat="50.287338802590966" lon="6.680330475792289">
        <ele>509.63999999999999</ele>
        <time>2017-05-25T13:34:17Z</time>
      </trkpt>
      <trkpt lat="50.287665696814656" lon="6.680345730856061">
        <ele>507.70999999999998</ele>
        <time>2017-05-25T13:33:58Z</time>
      </trkpt>
      <trkpt lat="50.287939114496112" lon="6.680362243205309">
        <ele>504.82999999999998</ele>
        <time>2017-05-25T13:33:43Z</time>
      </trkpt>
      <trkpt lat="50.288245389238" lon="6.680387053638697">
        <ele>503.38999999999999</ele>
        <time>2017-05-25T13:33:25Z</time>
      </trkpt>
      <trkpt lat="50.288611175492406" lon="6.680436506867409">
        <ele>500.5</ele>
        <time>2017-05-25T13:33:04Z</time>
      </trkpt>
      <trkpt lat="50.288794739171863" lon="6.680453019216657">
        <ele>500.01999999999998</ele>
        <time>2017-05-25T13:32:53Z</time>
      </trkpt>
      <trkpt lat="50.288902278989553" lon="6.680458802729845">
        <ele>498.10000000000002</ele>
        <time>2017-05-25T13:32:47Z</time>
      </trkpt>
      <trkpt lat="50.288923988118768" lon="6.680465089157224">
        <ele>497.62</ele>
        <time>2017-05-25T13:32:45Z</time>
      </trkpt>
      <trkpt lat="50.289222048595548" lon="6.680479254573584">
        <ele>496.18000000000001</ele>
        <time>2017-05-25T13:32:29Z</time>
      </trkpt>
      <trkpt lat="50.289367809891701" lon="6.680270209908485">
        <ele>496.66000000000003</ele>
        <time>2017-05-25T13:32:21Z</time>
      </trkpt>
      <trkpt lat="50.289432602003217" lon="6.680280519649386">
        <ele>496.66000000000003</ele>
        <time>2017-05-25T13:32:16Z</time>
      </trkpt>
      <trkpt lat="50.289711216464639" lon="6.680360985919833">
        <ele>496.18000000000001</ele>
        <time>2017-05-25T13:31:59Z</time>
      </trkpt>
      <trkpt lat="50.28973133303225" lon="6.680461401119828">
        <ele>495.69999999999999</ele>
        <time>2017-05-25T13:31:54Z</time>
      </trkpt>
      <trkpt lat="50.289662349969149" lon="6.680844873189926">
        <ele>494.74000000000001</ele>
        <time>2017-05-25T13:31:38Z</time>
      </trkpt>
      <trkpt lat="50.289587415754795" lon="6.681401766836643">
        <ele>493.76999999999998</ele>
        <time>2017-05-25T13:31:16Z</time>
      </trkpt>
      <trkpt lat="50.289538046345115" lon="6.681918008252978">
        <ele>491.85000000000002</ele>
        <time>2017-05-25T13:30:57Z</time>
      </trkpt>
      <trkpt lat="50.28948113322258" lon="6.682352358475328">
        <ele>490.41000000000003</ele>
        <time>2017-05-25T13:30:39Z</time>
      </trkpt>
      <trkpt lat="50.289488257840276" lon="6.682614125311375">
        <ele>489.44999999999999</ele>
        <time>2017-05-25T13:30:29Z</time>
      </trkpt>
      <trkpt lat="50.289449030533433" lon="6.683059372007847">
        <ele>488.00999999999999</ele>
        <time>2017-05-25T13:30:12Z</time>
      </trkpt>
      <trkpt lat="50.289366887882352" lon="6.683493722230196">
        <ele>486.07999999999998</ele>
        <time>2017-05-25T13:29:54Z</time>
      </trkpt>
      <trkpt lat="50.289316680282354" lon="6.683920696377754">
        <ele>486.07999999999998</ele>
        <time>2017-05-25T13:29:38Z</time>
      </trkpt>
      <trkpt lat="50.289240656420588" lon="6.684384718537331">
        <ele>484.63999999999999</ele>
        <time>2017-05-25T13:29:21Z</time>
      </trkpt>
      <trkpt lat="50.289149209856987" lon="6.684785624966025">
        <ele>486.07999999999998</ele>
        <time>2017-05-25T13:29:05Z</time>
      </trkpt>
      <trkpt lat="50.289111658930779" lon="6.685290383175015">
        <ele>486.07999999999998</ele>
        <time>2017-05-25T13:28:46Z</time>
      </trkpt>
      <trkpt lat="50.289058601483703" lon="6.685732780024409">
        <ele>485.60000000000002</ele>
        <time>2017-05-25T13:28:29Z</time>
      </trkpt>
      <trkpt lat="50.289024068042636" lon="6.686219098046422">
        <ele>486.56</ele>
        <time>2017-05-25T13:28:12Z</time>
      </trkpt>
      <trkpt lat="50.288938153535128" lon="6.68680826202035">
        <ele>485.60000000000002</ele>
        <time>2017-05-25T13:27:51Z</time>
      </trkpt>
      <trkpt lat="50.288887526839972" lon="6.686870204284787">
        <ele>485.12</ele>
        <time>2017-05-25T13:27:47Z</time>
      </trkpt>
      <trkpt lat="50.288857435807586" lon="6.686873976141214">
        <ele>485.12</ele>
        <time>2017-05-25T13:27:45Z</time>
      </trkpt>
      <trkpt lat="50.288749560713768" lon="6.687113111838698">
        <ele>483.19999999999999</ele>
        <time>2017-05-25T13:27:28Z</time>
      </trkpt>
      <trkpt lat="50.288798762485385" lon="6.687530698254705">
        <ele>480.80000000000001</ele>
        <time>2017-05-25T13:27:15Z</time>
      </trkpt>
      <trkpt lat="50.288988864049315" lon="6.687614433467388">
        <ele>479.83999999999997</ele>
        <time>2017-05-25T13:27:01Z</time>
      </trkpt>
      <trkpt lat="50.289049884304404" lon="6.687616026028991">
        <ele>479.35000000000002</ele>
        <time>2017-05-25T13:26:57Z</time>
      </trkpt>
      <trkpt lat="50.289256749674678" lon="6.687667155638337">
        <ele>478.87</ele>
        <time>2017-05-25T13:26:42Z</time>
      </trkpt>
      <trkpt lat="50.289309388026595" lon="6.687809228897095">
        <ele>478.38999999999999</ele>
        <time>2017-05-25T13:26:36Z</time>
      </trkpt>
      <trkpt lat="50.289466381072998" lon="6.688306275755167">
        <ele>477.91000000000003</ele>
        <time>2017-05-25T13:26:15Z</time>
      </trkpt>
      <trkpt lat="50.289618512615561" lon="6.688727298751473">
        <ele>477.43000000000001</ele>
        <time>2017-05-25T13:25:57Z</time>
      </trkpt>
      <trkpt lat="50.28970543295145" lon="6.689082775264978">
        <ele>475.99000000000001</ele>
        <time>2017-05-25T13:25:42Z</time>
      </trkpt>
      <trkpt lat="50.289869718253613" lon="6.689569596201181">
        <ele>475.02999999999997</ele>
        <time>2017-05-25T13:25:21Z</time>
      </trkpt>
      <trkpt lat="50.290043894201517" lon="6.6900400724262">
        <ele>475.02999999999997</ele>
        <time>2017-05-25T13:25:00Z</time>
      </trkpt>
      <trkpt lat="50.290213795378804" lon="6.690612304955721">
        <ele>474.55000000000001</ele>
        <time>2017-05-25T13:24:35Z</time>
      </trkpt>
      <trkpt lat="50.290408590808511" lon="6.691171042621136">
        <ele>474.06999999999999</ele>
        <time>2017-05-25T13:24:11Z</time>
      </trkpt>
      <trkpt lat="50.290539599955082" lon="6.691617295145989">
        <ele>473.58999999999997</ele>
        <time>2017-05-25T13:23:52Z</time>
      </trkpt>
      <trkpt lat="50.290593914687634" lon="6.691831620410085">
        <ele>472.63</ele>
        <time>2017-05-25T13:23:43Z</time>
      </trkpt>
      <trkpt lat="50.290764654055238" lon="6.692371917888522">
        <ele>471.18000000000001</ele>
        <time>2017-05-25T13:23:21Z</time>
      </trkpt>
      <trkpt lat="50.290909493342042" lon="6.692813308909535">
        <ele>470.69999999999999</ele>
        <time>2017-05-25T13:23:02Z</time>
      </trkpt>
      <trkpt lat="50.29101544059813" lon="6.693142466247082">
        <ele>470.22000000000003</ele>
        <time>2017-05-25T13:22:45Z</time>
      </trkpt>
      <trkpt lat="50.291051985695958" lon="6.693217651918531">
        <ele>470.22000000000003</ele>
        <time>2017-05-25T13:22:19Z</time>
      </trkpt>
      <trkpt lat="50.29107017442584" lon="6.693239361047745">
        <ele>469.74000000000001</ele>
        <time>2017-05-25T13:22:06Z</time>
      </trkpt>
      <trkpt lat="50.291242506355047" lon="6.69370137155056">
        <ele>470.22000000000003</ele>
        <time>2017-05-25T13:21:43Z</time>
      </trkpt>
      <trkpt lat="50.291377957910299" lon="6.694137565791607">
        <ele>468.77999999999997</ele>
        <time>2017-05-25T13:21:23Z</time>
      </trkpt>
      <trkpt lat="50.291537046432495" lon="6.694667637348175">
        <ele>467.81999999999999</ele>
        <time>2017-05-25T13:21:01Z</time>
      </trkpt>
      <trkpt lat="50.291697811335325" lon="6.695192093029618">
        <ele>466.38</ele>
        <time>2017-05-25T13:20:38Z</time>
      </trkpt>
      <trkpt lat="50.291851116344333" lon="6.695651421323419">
        <ele>465.42000000000002</ele>
        <time>2017-05-25T13:20:17Z</time>
      </trkpt>
      <trkpt lat="50.292009701952338" lon="6.696109240874648">
        <ele>464.44999999999999</ele>
        <time>2017-05-25T13:19:55Z</time>
      </trkpt>
      <trkpt lat="50.292154625058174" lon="6.696518529206514">
        <ele>463.97000000000003</ele>
        <time>2017-05-25T13:19:36Z</time>
      </trkpt>
      <trkpt lat="50.292295021936297" lon="6.696982970461249">
        <ele>461.56999999999999</ele>
        <time>2017-05-25T13:19:16Z</time>
      </trkpt>
      <trkpt lat="50.292432317510247" lon="6.697438526898623">
        <ele>460.61000000000001</ele>
        <time>2017-05-25T13:18:57Z</time>
      </trkpt>
      <trkpt lat="50.292592663317919" lon="6.697920737788081">
        <ele>461.08999999999997</ele>
        <time>2017-05-25T13:18:36Z</time>
      </trkpt>
      <trkpt lat="50.292731635272503" lon="6.698337905108929">
        <ele>461.08999999999997</ele>
        <time>2017-05-25T13:18:16Z</time>
      </trkpt>
      <trkpt lat="50.292849484831095" lon="6.69876747764647">
        <ele>461.08999999999997</ele>
        <time>2017-05-25T13:17:59Z</time>
      </trkpt>
      <trkpt lat="50.293004298582673" lon="6.699198978021741">
        <ele>461.08999999999997</ele>
        <time>2017-05-25T13:17:39Z</time>
      </trkpt>
      <trkpt lat="50.293142264708877" lon="6.69963089749217">
        <ele>461.56999999999999</ele>
        <time>2017-05-25T13:17:20Z</time>
      </trkpt>
      <trkpt lat="50.293305376544595" lon="6.700021913275123">
        <ele>460.13</ele>
        <time>2017-05-25T13:17:02Z</time>
      </trkpt>
      <trkpt lat="50.293454742059112" lon="6.700510075315833">
        <ele>459.17000000000002</ele>
        <time>2017-05-25T13:16:41Z</time>
      </trkpt>
      <trkpt lat="50.293601593002677" lon="6.700950292870402">
        <ele>458.69</ele>
        <time>2017-05-25T13:16:22Z</time>
      </trkpt>
      <trkpt lat="50.293791946023703" lon="6.701486147940159">
        <ele>457.72000000000003</ele>
        <time>2017-05-25T13:15:59Z</time>
      </trkpt>
      <trkpt lat="50.293937874957919" lon="6.702001802623272">
        <ele>458.69</ele>
        <time>2017-05-25T13:15:38Z</time>
      </trkpt>
      <trkpt lat="50.294088246300817" lon="6.702520223334432">
        <ele>457.24000000000001</ele>
        <time>2017-05-25T13:15:15Z</time>
      </trkpt>
      <trkpt lat="50.294259823858738" lon="6.703046690672636">
        <ele>456.75999999999999</ele>
        <time>2017-05-25T13:14:52Z</time>
      </trkpt>
      <trkpt lat="50.29438697732985" lon="6.703618001192808">
        <ele>454.83999999999997</ele>
        <time>2017-05-25T13:14:28Z</time>
      </trkpt>
      <trkpt lat="50.294505916535854" lon="6.704163914546371">
        <ele>454.83999999999997</ele>
        <time>2017-05-25T13:14:06Z</time>
      </trkpt>
      <trkpt lat="50.294619994238019" lon="6.704706056043506">
        <ele>454.36000000000001</ele>
        <time>2017-05-25T13:13:43Z</time>
      </trkpt>
      <trkpt lat="50.294718984514475" lon="6.705185584723949">
        <ele>454.83999999999997</ele>
        <time>2017-05-25T13:13:23Z</time>
      </trkpt>
      <trkpt lat="50.294819315895438" lon="6.705685146152973">
        <ele>452.92000000000002</ele>
        <time>2017-05-25T13:13:02Z</time>
      </trkpt>
      <trkpt lat="50.294929873198271" lon="6.706269448623061">
        <ele>452.44</ele>
        <time>2017-05-25T13:12:39Z</time>
      </trkpt>
      <trkpt lat="50.295056607574224" lon="6.706881495192647">
        <ele>452.44</ele>
        <time>2017-05-25T13:12:15Z</time>
      </trkpt>
      <trkpt lat="50.29504319652915" lon="6.707280641421676">
        <ele>452.44</ele>
        <time>2017-05-25T13:11:58Z</time>
      </trkpt>
      <trkpt lat="50.294905733317137" lon="6.7076351121068">
        <ele>452.92000000000002</ele>
        <time>2017-05-25T13:11:41Z</time>
      </trkpt>
      <trkpt lat="50.294780004769564" lon="6.70797960832715">
        <ele>453.88</ele>
        <time>2017-05-25T13:11:24Z</time>
      </trkpt>
      <trkpt lat="50.294617144390941" lon="6.708314381539822">
        <ele>455.80000000000001</ele>
        <time>2017-05-25T13:11:07Z</time>
      </trkpt>
      <trkpt lat="50.294478591531515" lon="6.708620488643646">
        <ele>457.72000000000003</ele>
        <time>2017-05-25T13:10:50Z</time>
      </trkpt>
      <trkpt lat="50.294259991496801" lon="6.708994572982192">
        <ele>458.20999999999998</ele>
        <time>2017-05-25T13:10:31Z</time>
      </trkpt>
      <trkpt lat="50.294052707031369" lon="6.709359185770154">
        <ele>460.13</ele>
        <time>2017-05-25T13:10:14Z</time>
      </trkpt>
      <trkpt lat="50.293840812519193" lon="6.709515005350113">
        <ele>461.56999999999999</ele>
        <time>2017-05-25T13:09:57Z</time>
      </trkpt>
      <trkpt lat="50.293593881651759" lon="6.709736455231905">
        <ele>462.05000000000001</ele>
        <time>2017-05-25T13:09:42Z</time>
      </trkpt>
      <trkpt lat="50.29337402433157" lon="6.710003586485982">
        <ele>463.49000000000001</ele>
        <time>2017-05-25T13:09:25Z</time>
      </trkpt>
      <trkpt lat="50.293300347402692" lon="6.710033090785146">
        <ele>464.44999999999999</ele>
        <time>2017-05-25T13:09:20Z</time>
      </trkpt>
      <trkpt lat="50.293186185881495" lon="6.710127806290984">
        <ele>464.44999999999999</ele>
        <time>2017-05-25T13:09:11Z</time>
      </trkpt>
      <trkpt lat="50.293122818693519" lon="6.710210284218192">
        <ele>465.42000000000002</ele>
        <time>2017-05-25T13:09:06Z</time>
      </trkpt>
      <trkpt lat="50.292916791513562" lon="6.710551427677274">
        <ele>466.86000000000001</ele>
        <time>2017-05-25T13:08:48Z</time>
      </trkpt>
      <trkpt lat="50.292705819010735" lon="6.710915872827172">
        <ele>467.33999999999997</ele>
        <time>2017-05-25T13:08:29Z</time>
      </trkpt>
      <trkpt lat="50.292420918121934" lon="6.711277216672897">
        <ele>466.38</ele>
        <time>2017-05-25T13:08:08Z</time>
      </trkpt>
      <trkpt lat="50.292213968932629" lon="6.711544264107943">
        <ele>466.86000000000001</ele>
        <time>2017-05-25T13:07:53Z</time>
      </trkpt>
      <trkpt lat="50.292151439934969" lon="6.711858585476875">
        <ele>464.93000000000001</ele>
        <time>2017-05-25T13:07:41Z</time>
      </trkpt>
      <trkpt lat="50.292279766872525" lon="6.712231244891882">
        <ele>464.93000000000001</ele>
        <time>2017-05-25T13:07:26Z</time>
      </trkpt>
      <trkpt lat="50.292307678610086" lon="6.712314477190375">
        <ele>463.97000000000003</ele>
        <time>2017-05-25T13:07:23Z</time>
      </trkpt>
      <trkpt lat="50.292454529553652" lon="6.71259518712759">
        <ele>463.00999999999999</ele>
        <time>2017-05-25T13:07:09Z</time>
      </trkpt>
      <trkpt lat="50.292662568390369" lon="6.71301051042974">
        <ele>463.00999999999999</ele>
        <time>2017-05-25T13:06:48Z</time>
      </trkpt>
      <trkpt lat="50.292833056300879" lon="6.713369926437736">
        <ele>462.52999999999997</ele>
        <time>2017-05-25T13:06:29Z</time>
      </trkpt>
      <trkpt lat="50.293041598051786" lon="6.713832272216678">
        <ele>462.05000000000001</ele>
        <time>2017-05-25T13:06:08Z</time>
      </trkpt>
      <trkpt lat="50.293285679072142" lon="6.714340467005968">
        <ele>460.61000000000001</ele>
        <time>2017-05-25T13:05:44Z</time>
      </trkpt>
      <trkpt lat="50.293525652959943" lon="6.714764088392258">
        <ele>460.61000000000001</ele>
        <time>2017-05-25T13:05:23Z</time>
      </trkpt>
      <trkpt lat="50.29379085637629" lon="6.715171532705426">
        <ele>460.13</ele>
        <time>2017-05-25T13:05:01Z</time>
      </trkpt>
      <trkpt lat="50.294037787243724" lon="6.715555088594556">
        <ele>459.64999999999998</ele>
        <time>2017-05-25T13:04:41Z</time>
      </trkpt>
      <trkpt lat="50.294299302622676" lon="6.715939398854971">
        <ele>459.17000000000002</ele>
        <time>2017-05-25T13:04:20Z</time>
      </trkpt>
      <trkpt lat="50.294553022831678" lon="6.716314656659961">
        <ele>458.69</ele>
        <time>2017-05-25T13:04:00Z</time>
      </trkpt>
      <trkpt lat="50.294797187671065" lon="6.716637359932065">
        <ele>458.69</ele>
        <time>2017-05-25T13:03:42Z</time>
      </trkpt>
      <trkpt lat="50.294973962008953" lon="6.716871298849583">
        <ele>457.72000000000003</ele>
        <time>2017-05-25T13:03:28Z</time>
      </trkpt>
      <trkpt lat="50.295289624482393" lon="6.717161312699318">
        <ele>456.75999999999999</ele>
        <time>2017-05-25T13:03:07Z</time>
      </trkpt>
      <trkpt lat="50.295601431280375" lon="6.717400867491961">
        <ele>455.80000000000001</ele>
        <time>2017-05-25T13:02:48Z</time>
      </trkpt>
      <trkpt lat="50.295808631926775" lon="6.717535564675927">
        <ele>454.83999999999997</ele>
        <time>2017-05-25T13:02:33Z</time>
      </trkpt>
      <trkpt lat="50.296069560572505" lon="6.717606643214822">
        <ele>453.88</ele>
        <time>2017-05-25T13:02:17Z</time>
      </trkpt>
      <trkpt lat="50.29623786918819" lon="6.717403130605817">
        <ele>452.44</ele>
        <time>2017-05-25T13:02:03Z</time>
      </trkpt>
      <trkpt lat="50.296263433992863" lon="6.71729433350265">
        <ele>453.39999999999998</ele>
        <time>2017-05-25T13:01:58Z</time>
      </trkpt>
      <trkpt lat="50.296259578317404" lon="6.717337081208825">
        <ele>453.39999999999998</ele>
        <time>2017-05-25T13:01:53Z</time>
      </trkpt>
      <trkpt lat="50.296145835891366" lon="6.717780735343695">
        <ele>453.88</ele>
        <time>2017-05-25T13:01:35Z</time>
      </trkpt>
      <trkpt lat="50.296044917777181" lon="6.718119448050857">
        <ele>453.39999999999998</ele>
        <time>2017-05-25T13:01:20Z</time>
      </trkpt>
      <trkpt lat="50.29600141569972" lon="6.718245763331652">
        <ele>451</ele>
        <time>2017-05-25T13:01:17Z</time>
      </trkpt>
      <trkpt lat="50.295939976349473" lon="6.718459166586399">
        <ele>450.02999999999997</ele>
        <time>2017-05-25T13:01:11Z</time>
      </trkpt>
      <trkpt lat="50.295925894752145" lon="6.71862630173564">
        <ele>451</ele>
        <time>2017-05-25T13:01:05Z</time>
      </trkpt>
      <trkpt lat="50.295903012156487" lon="6.718719592317939">
        <ele>449.06999999999999</ele>
        <time>2017-05-25T13:01:01Z</time>
      </trkpt>
      <trkpt lat="50.295904437080026" lon="6.718725208193064">
        <ele>450.02999999999997</ele>
        <time>2017-05-25T13:01:00Z</time>
      </trkpt>
      <trkpt lat="50.295947184786201" lon="6.718732165172696">
        <ele>450.02999999999997</ele>
        <time>2017-05-25T13:00:37Z</time>
      </trkpt>
      <trkpt lat="50.295960512012243" lon="6.718825120478869">
        <ele>449.55000000000001</ele>
        <time>2017-05-25T13:00:22Z</time>
      </trkpt>
      <trkpt lat="50.295939641073346" lon="6.718787234276533">
        <ele>450.02999999999997</ele>
        <time>2017-05-25T13:00:05Z</time>
      </trkpt>
      <trkpt lat="50.295950202271342" lon="6.7187475040555">
        <ele>450.02999999999997</ele>
        <time>2017-05-25T12:59:44Z</time>
      </trkpt>
      <trkpt lat="50.295952381566167" lon="6.71868103556335">
        <ele>450.02999999999997</ele>
        <time>2017-05-25T12:59:30Z</time>
      </trkpt>
      <trkpt lat="50.295973503962159" lon="6.718387585133314">
        <ele>450.02999999999997</ele>
        <time>2017-05-25T12:59:18Z</time>
      </trkpt>
      <trkpt lat="50.296055898070335" lon="6.718117771670222">
        <ele>452.44</ele>
        <time>2017-05-25T12:59:08Z</time>
      </trkpt>
      <trkpt lat="50.29608104377985" lon="6.718114921823144">
        <ele>452.44</ele>
        <time>2017-05-25T12:59:06Z</time>
      </trkpt>
      <trkpt lat="50.29642260633409" lon="6.71834634616971">
        <ele>450.02999999999997</ele>
        <time>2017-05-25T12:58:41Z</time>
      </trkpt>
      <trkpt lat="50.296441046521068" lon="6.718346178531647">
        <ele>450.02999999999997</ele>
        <time>2017-05-25T12:58:33Z</time>
      </trkpt>
      <trkpt lat="50.296499384567142" lon="6.718324469402432">
        <ele>450.02999999999997</ele>
        <time>2017-05-25T12:58:14Z</time>
      </trkpt>
      <trkpt lat="50.296820076182485" lon="6.718484731391072">
        <ele>449.55000000000001</ele>
        <time>2017-05-25T12:57:51Z</time>
      </trkpt>
      <trkpt lat="50.297067426145077" lon="6.718710204586387">
        <ele>449.06999999999999</ele>
        <time>2017-05-25T12:57:35Z</time>
      </trkpt>
      <trkpt lat="50.297120651230216" lon="6.718737026676536">
        <ele>450.02999999999997</ele>
        <time>2017-05-25T12:57:31Z</time>
      </trkpt>
      <trkpt lat="50.297254677861929" lon="6.71885940246284">
        <ele>451.48000000000002</ele>
        <time>2017-05-25T12:57:18Z</time>
      </trkpt>
      <trkpt lat="50.297312764450908" lon="6.71897423453629">
        <ele>451.48000000000002</ele>
        <time>2017-05-25T12:57:12Z</time>
      </trkpt>
      <trkpt lat="50.297310836613178" lon="6.718994099646807">
        <ele>451.48000000000002</ele>
        <time>2017-05-25T12:57:11Z</time>
      </trkpt>
      <trkpt lat="50.297110928222537" lon="6.719240359961987">
        <ele>450.51999999999998</ele>
        <time>2017-05-25T12:56:55Z</time>
      </trkpt>
      <trkpt lat="50.296912109479308" lon="6.719381343573332">
        <ele>451</ele>
        <time>2017-05-25T12:56:41Z</time>
      </trkpt>
      <trkpt lat="50.296661239117384" lon="6.719579324126244">
        <ele>451.48000000000002</ele>
        <time>2017-05-25T12:56:25Z</time>
      </trkpt>
      <trkpt lat="50.296468120068312" lon="6.719776298850775">
        <ele>452.92000000000002</ele>
        <time>2017-05-25T12:56:12Z</time>
      </trkpt>
      <trkpt lat="50.29653693549335" lon="6.720100091770291">
        <ele>453.39999999999998</ele>
        <time>2017-05-25T12:55:58Z</time>
      </trkpt>
      <trkpt lat="50.296618156135082" lon="6.720284074544907">
        <ele>455.31999999999999</ele>
        <time>2017-05-25T12:55:49Z</time>
      </trkpt>
      <trkpt lat="50.29664346948266" lon="6.720360349863768">
        <ele>455.31999999999999</ele>
        <time>2017-05-25T12:55:45Z</time>
      </trkpt>
      <trkpt lat="50.296768862754107" lon="6.720575178042054">
        <ele>457.24000000000001</ele>
        <time>2017-05-25T12:55:32Z</time>
      </trkpt>
      <trkpt lat="50.296930465847254" lon="6.720796460285783">
        <ele>459.17000000000002</ele>
        <time>2017-05-25T12:55:18Z</time>
      </trkpt>
      <trkpt lat="50.297022750601172" lon="6.72115889377892">
        <ele>460.61000000000001</ele>
        <time>2017-05-25T12:55:03Z</time>
      </trkpt>
      <trkpt lat="50.297053344547749" lon="6.721500037238002">
        <ele>463.97000000000003</ele>
        <time>2017-05-25T12:54:49Z</time>
      </trkpt>
      <trkpt lat="50.297054853290319" lon="6.721522752195597">
        <ele>463.97000000000003</ele>
        <time>2017-05-25T12:54:48Z</time>
      </trkpt>
      <trkpt lat="50.29702115803957" lon="6.72198073938489">
        <ele>466.38</ele>
        <time>2017-05-25T12:54:29Z</time>
      </trkpt>
      <trkpt lat="50.297057200223207" lon="6.722487257793546">
        <ele>468.30000000000001</ele>
        <time>2017-05-25T12:54:10Z</time>
      </trkpt>
      <trkpt lat="50.297082010656595" lon="6.722705941647291">
        <ele>469.74000000000001</ele>
        <time>2017-05-25T12:54:01Z</time>
      </trkpt>
      <trkpt lat="50.297002047300339" lon="6.723179686814547">
        <ele>471.66000000000003</ele>
        <time>2017-05-25T12:53:42Z</time>
      </trkpt>
      <trkpt lat="50.296904817223549" lon="6.723478082567453">
        <ele>473.58999999999997</ele>
        <time>2017-05-25T12:53:26Z</time>
      </trkpt>
      <trkpt lat="50.296784872189164" lon="6.723820986226201">
        <ele>474.06999999999999</ele>
        <time>2017-05-25T12:53:11Z</time>
      </trkpt>
      <trkpt lat="50.296703316271305" lon="6.724206386134028">
        <ele>475.02999999999997</ele>
        <time>2017-05-25T12:52:58Z</time>
      </trkpt>
      <trkpt lat="50.296486308798194" lon="6.724605783820152">
        <ele>475.50999999999999</ele>
        <time>2017-05-25T12:52:41Z</time>
      </trkpt>
      <trkpt lat="50.296356724575162" lon="6.724766045808792">
        <ele>475.50999999999999</ele>
        <time>2017-05-25T12:52:28Z</time>
      </trkpt>
      <trkpt lat="50.296196630224586" lon="6.724875010550022">
        <ele>475.02999999999997</ele>
        <time>2017-05-25T12:52:16Z</time>
      </trkpt>
      <trkpt lat="50.296114319935441" lon="6.724929912015796">
        <ele>475.50999999999999</ele>
        <time>2017-05-25T12:52:12Z</time>
      </trkpt>
      <trkpt lat="50.295866634696722" lon="6.725268121808767">
        <ele>475.50999999999999</ele>
        <time>2017-05-25T12:51:52Z</time>
      </trkpt>
      <trkpt lat="50.295786671340466" lon="6.725383289158344">
        <ele>475.99000000000001</ele>
        <time>2017-05-25T12:51:42Z</time>
      </trkpt>
      <trkpt lat="50.295675694942474" lon="6.725697945803404">
        <ele>475.99000000000001</ele>
        <time>2017-05-25T12:51:25Z</time>
      </trkpt>
      <trkpt lat="50.295581733807921" lon="6.726132296025753">
        <ele>476.94999999999999</ele>
        <time>2017-05-25T12:51:08Z</time>
      </trkpt>
      <trkpt lat="50.295308735221624" lon="6.726440079510212">
        <ele>477.91000000000003</ele>
        <time>2017-05-25T12:50:49Z</time>
      </trkpt>
      <trkpt lat="50.295021906495094" lon="6.726588271558285">
        <ele>478.38999999999999</ele>
        <time>2017-05-25T12:50:32Z</time>
      </trkpt>
      <trkpt lat="50.294812191277742" lon="6.726705031469464">
        <ele>478.38999999999999</ele>
        <time>2017-05-25T12:50:16Z</time>
      </trkpt>
      <trkpt lat="50.294548245146871" lon="6.726777283474803">
        <ele>478.87</ele>
        <time>2017-05-25T12:49:58Z</time>
      </trkpt>
      <trkpt lat="50.294282957911491" lon="6.72683528624475">
        <ele>479.35000000000002</ele>
        <time>2017-05-25T12:49:44Z</time>
      </trkpt>
      <trkpt lat="50.293937791138887" lon="6.727084228768945">
        <ele>479.83999999999997</ele>
        <time>2017-05-25T12:49:26Z</time>
      </trkpt>
      <trkpt lat="50.293733859434724" lon="6.727253375574946">
        <ele>480.31999999999999</ele>
        <time>2017-05-25T12:49:08Z</time>
      </trkpt>
      <trkpt lat="50.293525401502848" lon="6.727437525987625">
        <ele>480.80000000000001</ele>
        <time>2017-05-25T12:48:54Z</time>
      </trkpt>
      <trkpt lat="50.293375700712204" lon="6.727570211514831">
        <ele>481.75999999999999</ele>
        <time>2017-05-25T12:48:43Z</time>
      </trkpt>
      <trkpt lat="50.293332953006029" lon="6.727616311982274">
        <ele>481.75999999999999</ele>
        <time>2017-05-25T12:48:39Z</time>
      </trkpt>
      <trkpt lat="50.293171517550945" lon="6.72783306799829">
        <ele>483.19999999999999</ele>
        <time>2017-05-25T12:48:25Z</time>
      </trkpt>
      <trkpt lat="50.293008992448449" lon="6.728043956682086">
        <ele>483.68000000000001</ele>
        <time>2017-05-25T12:48:11Z</time>
      </trkpt>
      <trkpt lat="50.292890723794699" lon="6.728175384923816">
        <ele>484.16000000000003</ele>
        <time>2017-05-25T12:47:59Z</time>
      </trkpt>
      <trkpt lat="50.29272610321641" lon="6.728451736271381">
        <ele>484.63999999999999</ele>
        <time>2017-05-25T12:47:46Z</time>
      </trkpt>
      <trkpt lat="50.292696598917246" lon="6.728530274704099">
        <ele>485.12</ele>
        <time>2017-05-25T12:47:42Z</time>
      </trkpt>
      <trkpt lat="50.292570115998387" lon="6.728691877797246">
        <ele>485.60000000000002</ele>
        <time>2017-05-25T12:47:29Z</time>
      </trkpt>
      <trkpt lat="50.29241681098938" lon="6.728953560814261">
        <ele>487.05000000000001</ele>
        <time>2017-05-25T12:47:17Z</time>
      </trkpt>
      <trkpt lat="50.292326454073191" lon="6.729098819196224">
        <ele>487.52999999999997</ele>
        <time>2017-05-25T12:47:05Z</time>
      </trkpt>
      <trkpt lat="50.292065609246492" lon="6.72948706895113">
        <ele>488.97000000000003</ele>
        <time>2017-05-25T12:46:50Z</time>
      </trkpt>
      <trkpt lat="50.292057227343321" lon="6.729503497481346">
        <ele>488.97000000000003</ele>
        <time>2017-05-25T12:46:49Z</time>
      </trkpt>
      <trkpt lat="50.291889337822795" lon="6.729837683960795">
        <ele>489.44999999999999</ele>
        <time>2017-05-25T12:46:33Z</time>
      </trkpt>
      <trkpt lat="50.291745588183403" lon="6.730053937062621">
        <ele>491.85000000000002</ele>
        <time>2017-05-25T12:46:13Z</time>
      </trkpt>
      <trkpt lat="50.291579877957702" lon="6.730320984497666">
        <ele>494.74000000000001</ele>
        <time>2017-05-25T12:45:54Z</time>
      </trkpt>
      <trkpt lat="50.291404780000448" lon="6.730579901486635">
        <ele>497.13999999999999</ele>
        <time>2017-05-25T12:45:35Z</time>
      </trkpt>
      <trkpt lat="50.29125633649528" lon="6.730922386050224">
        <ele>499.54000000000002</ele>
        <time>2017-05-25T12:45:17Z</time>
      </trkpt>
      <trkpt lat="50.291153155267239" lon="6.731240060180426">
        <ele>501.94999999999999</ele>
        <time>2017-05-25T12:45:00Z</time>
      </trkpt>
      <trkpt lat="50.291154161095619" lon="6.731265876442194">
        <ele>501.45999999999998</ele>
        <time>2017-05-25T12:44:59Z</time>
      </trkpt>
      <trkpt lat="50.291110407561064" lon="6.731671476736665">
        <ele>501.45999999999998</ele>
        <time>2017-05-25T12:44:42Z</time>
      </trkpt>
      <trkpt lat="50.290949391201138" lon="6.731590675190091">
        <ele>504.35000000000002</ele>
        <time>2017-05-25T12:44:27Z</time>
      </trkpt>
      <trkpt lat="50.290849227458239" lon="6.732057044282556">
        <ele>506.75</ele>
        <time>2017-05-25T12:44:08Z</time>
      </trkpt>
      <trkpt lat="50.290822573006153" lon="6.732316380366683">
        <ele>508.19</ele>
        <time>2017-05-25T12:43:54Z</time>
      </trkpt>
      <trkpt lat="50.29075987637043" lon="6.732504218816757">
        <ele>509.63999999999999</ele>
        <time>2017-05-25T12:43:43Z</time>
      </trkpt>
      <trkpt lat="50.290632639080286" lon="6.732802866026759">
        <ele>511.56</ele>
        <time>2017-05-25T12:43:27Z</time>
      </trkpt>
      <trkpt lat="50.290608666837215" lon="6.732848966494203">
        <ele>511.56</ele>
        <time>2017-05-25T12:43:25Z</time>
      </trkpt>
      <trkpt lat="50.290606487542391" lon="6.732892971485853">
        <ele>512.51999999999998</ele>
        <time>2017-05-25T12:43:23Z</time>
      </trkpt>
      <trkpt lat="50.290592489764094" lon="6.733166389167309">
        <ele>512.51999999999998</ele>
        <time>2017-05-25T12:43:10Z</time>
      </trkpt>
      <trkpt lat="50.290568517521024" lon="6.733278203755617">
        <ele>513</ele>
        <time>2017-05-25T12:42:52Z</time>
      </trkpt>
      <trkpt lat="50.290666753426194" lon="6.733393538743258">
        <ele>510.60000000000002</ele>
        <time>2017-05-25T12:42:44Z</time>
      </trkpt>
      <trkpt lat="50.290676979348063" lon="6.733410386368632">
        <ele>512.51999999999998</ele>
        <time>2017-05-25T12:42:43Z</time>
      </trkpt>
      <trkpt lat="50.290795667096972" lon="6.733619431033731">
        <ele>507.70999999999998</ele>
        <time>2017-05-25T12:42:33Z</time>
      </trkpt>
      <trkpt lat="50.290919551625848" lon="6.733699226751924">
        <ele>505.79000000000002</ele>
        <time>2017-05-25T12:42:25Z</time>
      </trkpt>
      <trkpt lat="50.291135050356388" lon="6.733757816255093">
        <ele>501.94999999999999</ele>
        <time>2017-05-25T12:42:13Z</time>
      </trkpt>
      <trkpt lat="50.291184755042195" lon="6.733746416866779">
        <ele>501.45999999999998</ele>
        <time>2017-05-25T12:42:09Z</time>
      </trkpt>
      <trkpt lat="50.291383322328329" lon="6.733635943382978">
        <ele>498.57999999999998</ele>
        <time>2017-05-25T12:41:55Z</time>
      </trkpt>
      <trkpt lat="50.291633773595095" lon="6.733516333624721">
        <ele>495.22000000000003</ele>
        <time>2017-05-25T12:41:40Z</time>
      </trkpt>
      <trkpt lat="50.291877016425133" lon="6.733618592843413">
        <ele>491.85000000000002</ele>
        <time>2017-05-25T12:41:25Z</time>
      </trkpt>
      <trkpt lat="50.292154792696238" lon="6.733684474602342">
        <ele>488.97000000000003</ele>
        <time>2017-05-25T12:41:09Z</time>
      </trkpt>
      <trkpt lat="50.292225116863847" lon="6.73373912461102">
        <ele>488.00999999999999</ele>
        <time>2017-05-25T12:41:02Z</time>
      </trkpt>
      <trkpt lat="50.292304158210754" lon="6.733780112117529">
        <ele>488.49000000000001</ele>
        <time>2017-05-25T12:40:57Z</time>
      </trkpt>
      <trkpt lat="50.292348498478532" lon="6.733796373009682">
        <ele>487.05000000000001</ele>
        <time>2017-05-25T12:40:54Z</time>
      </trkpt>
      <trkpt lat="50.292618479579687" lon="6.734026540070772">
        <ele>484.16000000000003</ele>
        <time>2017-05-25T12:40:35Z</time>
      </trkpt>
      <trkpt lat="50.292952582240105" lon="6.734180767089129">
        <ele>481.75999999999999</ele>
        <time>2017-05-25T12:40:14Z</time>
      </trkpt>
      <trkpt lat="50.293219042941928" lon="6.734327534213662">
        <ele>480.31999999999999</ele>
        <time>2017-05-25T12:39:56Z</time>
      </trkpt>
      <trkpt lat="50.293471002951264" lon="6.734433313831687">
        <ele>478.38999999999999</ele>
        <time>2017-05-25T12:39:42Z</time>
      </trkpt>
      <trkpt lat="50.293577201664448" lon="6.734272046014667">
        <ele>477.43000000000001</ele>
        <time>2017-05-25T12:39:33Z</time>
      </trkpt>
      <trkpt lat="50.29354065656662" lon="6.734236087650061">
        <ele>476.94999999999999</ele>
        <time>2017-05-25T12:39:30Z</time>
      </trkpt>
      <trkpt lat="50.293451976031065" lon="6.734262155368924">
        <ele>477.43000000000001</ele>
        <time>2017-05-25T12:39:23Z</time>
      </trkpt>
      <trkpt lat="50.293203201144934" lon="6.734195938333869">
        <ele>480.31999999999999</ele>
        <time>2017-05-25T12:39:07Z</time>
      </trkpt>
      <trkpt lat="50.293218791484833" lon="6.734087225049734">
        <ele>479.35000000000002</ele>
        <time>2017-05-25T12:39:01Z</time>
      </trkpt>
      <trkpt lat="50.293237064033747" lon="6.734096193686128">
        <ele>479.35000000000002</ele>
        <time>2017-05-25T12:38:59Z</time>
      </trkpt>
      <trkpt lat="50.293286768719554" lon="6.734174564480782">
        <ele>478.87</ele>
        <time>2017-05-25T12:38:54Z</time>
      </trkpt>
      <trkpt lat="50.293525485321879" lon="6.734226867556572">
        <ele>476.94999999999999</ele>
        <time>2017-05-25T12:38:38Z</time>
      </trkpt>
      <trkpt lat="50.293547110632062" lon="6.734264669939876">
        <ele>476.94999999999999</ele>
        <time>2017-05-25T12:38:36Z</time>
      </trkpt>
      <trkpt lat="50.293553397059441" lon="6.734287301078439">
        <ele>477.91000000000003</ele>
        <time>2017-05-25T12:38:35Z</time>
      </trkpt>
      <trkpt lat="50.293616596609354" lon="6.734643951058388">
        <ele>476.47000000000003</ele>
        <time>2017-05-25T12:38:19Z</time>
      </trkpt>
      <trkpt lat="50.293821869418025" lon="6.7348937317729">
        <ele>475.02999999999997</ele>
        <time>2017-05-25T12:38:04Z</time>
      </trkpt>
      <trkpt lat="50.294030411168933" lon="6.735177794471383">
        <ele>471.66000000000003</ele>
        <time>2017-05-25T12:37:48Z</time>
      </trkpt>
      <trkpt lat="50.294240210205317" lon="6.735449954867363">
        <ele>469.74000000000001</ele>
        <time>2017-05-25T12:37:32Z</time>
      </trkpt>
      <trkpt lat="50.294452104717493" lon="6.73572001978755">
        <ele>466.38</ele>
        <time>2017-05-25T12:37:16Z</time>
      </trkpt>
      <trkpt lat="50.294725270941854" lon="6.736058983951807">
        <ele>464.44999999999999</ele>
        <time>2017-05-25T12:36:55Z</time>
      </trkpt>
      <trkpt lat="50.294890813529491" lon="6.736273728311062">
        <ele>460.61000000000001</ele>
        <time>2017-05-25T12:36:42Z</time>
      </trkpt>
      <trkpt lat="50.295106898993254" lon="6.736446395516396">
        <ele>458.20999999999998</ele>
        <time>2017-05-25T12:36:26Z</time>
      </trkpt>
      <trkpt lat="50.295328432694077" lon="6.73643046990037">
        <ele>455.80000000000001</ele>
        <time>2017-05-25T12:36:11Z</time>
      </trkpt>
      <trkpt lat="50.295361205935478" lon="6.736420327797532">
        <ele>455.80000000000001</ele>
        <time>2017-05-25T12:35:38Z</time>
      </trkpt>
      <trkpt lat="50.295391213148832" lon="6.736467098817229">
        <ele>455.80000000000001</ele>
        <time>2017-05-25T12:35:05Z</time>
      </trkpt>
      <trkpt lat="50.295399678871036" lon="6.736471457406879">
        <ele>455.80000000000001</ele>
        <time>2017-05-25T12:34:35Z</time>
      </trkpt>
      <trkpt lat="50.295358104631305" lon="6.736488724127412">
        <ele>455.31999999999999</ele>
        <time>2017-05-25T12:34:17Z</time>
      </trkpt>
      <trkpt lat="50.295397415757179" lon="6.736486880108714">
        <ele>455.80000000000001</ele>
        <time>2017-05-25T12:33:50Z</time>
      </trkpt>
      <trkpt lat="50.295443432405591" lon="6.736490484327078">
        <ele>456.27999999999997</ele>
        <time>2017-05-25T12:33:26Z</time>
      </trkpt>
      <trkpt lat="50.295629510655999" lon="6.73652627505362">
        <ele>456.75999999999999</ele>
        <time>2017-05-25T12:33:07Z</time>
      </trkpt>
      <trkpt lat="50.295958919450641" lon="6.736598024144769">
        <ele>457.24000000000001</ele>
        <time>2017-05-25T12:32:46Z</time>
      </trkpt>
      <trkpt lat="50.296316407620907" lon="6.736642112955451">
        <ele>459.17000000000002</ele>
        <time>2017-05-25T12:32:25Z</time>
      </trkpt>
      <trkpt lat="50.296414392068982" lon="6.73670849762857">
        <ele>459.64999999999998</ele>
        <time>2017-05-25T12:32:18Z</time>
      </trkpt>
      <trkpt lat="50.296446410939097" lon="6.73687026835978">
        <ele>460.61000000000001</ele>
        <time>2017-05-25T12:32:10Z</time>
      </trkpt>
      <trkpt lat="50.296466276049614" lon="6.736887954175472">
        <ele>461.08999999999997</ele>
        <time>2017-05-25T12:32:08Z</time>
      </trkpt>
      <trkpt lat="50.296523608267307" lon="6.736925756558776">
        <ele>462.05000000000001</ele>
        <time>2017-05-25T12:32:03Z</time>
      </trkpt>
      <trkpt lat="50.296627711504698" lon="6.737038660794497">
        <ele>463.00999999999999</ele>
        <time>2017-05-25T12:31:53Z</time>
      </trkpt>
      <trkpt lat="50.296773640438914" lon="6.737343342974782">
        <ele>466.38</ele>
        <time>2017-05-25T12:31:36Z</time>
      </trkpt>
      <trkpt lat="50.296836588531733" lon="6.737558841705322">
        <ele>468.77999999999997</ele>
        <time>2017-05-25T12:31:23Z</time>
      </trkpt>
      <trkpt lat="50.296862740069628" lon="6.737707955762744">
        <ele>469.74000000000001</ele>
        <time>2017-05-25T12:31:08Z</time>
      </trkpt>
      <trkpt lat="50.296900290995836" lon="6.737930914387107">
        <ele>471.66000000000003</ele>
        <time>2017-05-25T12:30:53Z</time>
      </trkpt>
      <trkpt lat="50.296908002346754" lon="6.737967794761062">
        <ele>471.66000000000003</ele>
        <time>2017-05-25T12:30:51Z</time>
      </trkpt>
      <trkpt lat="50.296920239925385" lon="6.738014398142695">
        <ele>473.11000000000001</ele>
        <time>2017-05-25T12:30:49Z</time>
      </trkpt>
      <trkpt lat="50.296973632648587" lon="6.738096624612808">
        <ele>474.06999999999999</ele>
        <time>2017-05-25T12:30:44Z</time>
      </trkpt>
      <trkpt lat="50.297029288485646" lon="6.73820910975337">
        <ele>474.55000000000001</ele>
        <time>2017-05-25T12:30:38Z</time>
      </trkpt>
      <trkpt lat="50.297149233520031" lon="6.738473139703274">
        <ele>478.38999999999999</ele>
        <time>2017-05-25T12:30:23Z</time>
      </trkpt>
      <trkpt lat="50.297259036451578" lon="6.738823167979717">
        <ele>479.83999999999997</ele>
        <time>2017-05-25T12:30:08Z</time>
      </trkpt>
      <trkpt lat="50.297341933473945" lon="6.738962894305587">
        <ele>480.80000000000001</ele>
        <time>2017-05-25T12:30:01Z</time>
      </trkpt>
      <trkpt lat="50.297568244859576" lon="6.739371092990041">
        <ele>484.63999999999999</ele>
        <time>2017-05-25T12:29:40Z</time>
      </trkpt>
      <trkpt lat="50.297791622579098" lon="6.739742578938603">
        <ele>487.05000000000001</ele>
        <time>2017-05-25T12:29:19Z</time>
      </trkpt>
      <trkpt lat="50.297956159338355" lon="6.74004390835762">
        <ele>488.97000000000003</ele>
        <time>2017-05-25T12:29:04Z</time>
      </trkpt>
      <trkpt lat="50.298125809058547" lon="6.740345824509859">
        <ele>492.32999999999998</ele>
        <time>2017-05-25T12:28:48Z</time>
      </trkpt>
      <trkpt lat="50.298282047733665" lon="6.740651680156589">
        <ele>494.74000000000001</ele>
        <time>2017-05-25T12:28:30Z</time>
      </trkpt>
      <trkpt lat="50.298294285312295" lon="6.740672802552581">
        <ele>495.22000000000003</ele>
        <time>2017-05-25T12:28:29Z</time>
      </trkpt>
      <trkpt lat="50.29846896417439" lon="6.740871286019683">
        <ele>497.62</ele>
        <time>2017-05-25T12:28:15Z</time>
      </trkpt>
      <trkpt lat="50.29865269549191" lon="6.741004139184952">
        <ele>500.01999999999998</ele>
        <time>2017-05-25T12:28:00Z</time>
      </trkpt>
      <trkpt lat="50.29878512956202" lon="6.740909088402987">
        <ele>500.01999999999998</ele>
        <time>2017-05-25T12:27:50Z</time>
      </trkpt>
      <trkpt lat="50.299043292179704" lon="6.740739019587636">
        <ele>498.57999999999998</ele>
        <time>2017-05-25T12:27:33Z</time>
      </trkpt>
      <trkpt lat="50.299266334623098" lon="6.740614883601666">
        <ele>496.18000000000001</ele>
        <time>2017-05-25T12:27:18Z</time>
      </trkpt>
      <trkpt lat="50.2995131816715" lon="6.740551264956594">
        <ele>494.25999999999999</ele>
        <time>2017-05-25T12:27:02Z</time>
      </trkpt>
      <trkpt lat="50.299821887165308" lon="6.740412125363946">
        <ele>492.81</ele>
        <time>2017-05-25T12:26:45Z</time>
      </trkpt>
      <trkpt lat="50.300117349252105" lon="6.740226550027728">
        <ele>490.88999999999999</ele>
        <time>2017-05-25T12:26:25Z</time>
      </trkpt>
      <trkpt lat="50.300278617069125" lon="6.740118339657784">
        <ele>488.97000000000003</ele>
        <time>2017-05-25T12:26:13Z</time>
      </trkpt>
      <trkpt lat="50.30048556625843" lon="6.739998310804367">
        <ele>487.05000000000001</ele>
        <time>2017-05-25T12:25:58Z</time>
      </trkpt>
      <trkpt lat="50.300735263153911" lon="6.739850034937263">
        <ele>485.60000000000002</ele>
        <time>2017-05-25T12:25:42Z</time>
      </trkpt>
      <trkpt lat="50.300704669207335" lon="6.739382576197386">
        <ele>482.24000000000001</ele>
        <time>2017-05-25T12:25:25Z</time>
      </trkpt>
      <trkpt lat="50.300673404708505" lon="6.739247459918261">
        <ele>481.75999999999999</ele>
        <time>2017-05-25T12:25:20Z</time>
      </trkpt>
      <trkpt lat="50.30067122541368" lon="6.7391521576792">
        <ele>481.27999999999997</ele>
        <time>2017-05-25T12:25:16Z</time>
      </trkpt>
      <trkpt lat="50.300521776080132" lon="6.738721746951342">
        <ele>480.80000000000001</ele>
        <time>2017-05-25T12:24:57Z</time>
      </trkpt>
      <trkpt lat="50.30032379552722" lon="6.73837423324585">
        <ele>478.87</ele>
        <time>2017-05-25T12:24:38Z</time>
      </trkpt>
      <trkpt lat="50.300135035067797" lon="6.738027390092611">
        <ele>477.43000000000001</ele>
        <time>2017-05-25T12:24:20Z</time>
      </trkpt>
      <trkpt lat="50.300140231847763" lon="6.737980619072914">
        <ele>476.94999999999999</ele>
        <time>2017-05-25T12:24:17Z</time>
      </trkpt>
      <trkpt lat="50.300269229337573" lon="6.737871821969748">
        <ele>476.47000000000003</ele>
        <time>2017-05-25T12:24:07Z</time>
      </trkpt>
      <trkpt lat="50.300459247082472" lon="6.737657329067588">
        <ele>475.02999999999997</ele>
        <time>2017-05-25T12:23:50Z</time>
      </trkpt>
      <trkpt lat="50.300471903756261" lon="6.737611815333366">
        <ele>474.55000000000001</ele>
        <time>2017-05-25T12:23:46Z</time>
      </trkpt>
      <trkpt lat="50.300511466339231" lon="6.737587675452232">
        <ele>475.50999999999999</ele>
        <time>2017-05-25T12:23:18Z</time>
      </trkpt>
      <trkpt lat="50.300532672554255" lon="6.737576276063919">
        <ele>475.99000000000001</ele>
        <time>2017-05-25T12:22:55Z</time>
      </trkpt>
      <trkpt lat="50.300529235973954" lon="6.737611815333366">
        <ele>474.55000000000001</ele>
        <time>2017-05-25T12:22:34Z</time>
      </trkpt>
      <trkpt lat="50.300557482987642" lon="6.737617766484618">
        <ele>475.50999999999999</ele>
        <time>2017-05-25T12:22:21Z</time>
      </trkpt>
      <trkpt lat="50.300555806607008" lon="6.737607372924686">
        <ele>475.50999999999999</ele>
        <time>2017-05-25T12:22:15Z</time>
      </trkpt>
      <trkpt lat="50.300540467724204" lon="6.737570827826858">
        <ele>475.02999999999997</ele>
        <time>2017-05-25T12:22:00Z</time>
      </trkpt>
      <trkpt lat="50.300502078607678" lon="6.737616173923016">
        <ele>474.55000000000001</ele>
        <time>2017-05-25T12:21:40Z</time>
      </trkpt>
      <trkpt lat="50.300383139401674" lon="6.737741651013494">
        <ele>475.02999999999997</ele>
        <time>2017-05-25T12:21:22Z</time>
      </trkpt>
      <trkpt lat="50.300207873806357" lon="6.737861260771751">
        <ele>475.99000000000001</ele>
        <time>2017-05-25T12:21:04Z</time>
      </trkpt>
      <trkpt lat="50.300191948190331" lon="6.737905684858561">
        <ele>476.47000000000003</ele>
        <time>2017-05-25T12:21:00Z</time>
      </trkpt>
      <trkpt lat="50.300265541300178" lon="6.737905098125339">
        <ele>478.38999999999999</ele>
        <time>2017-05-25T12:20:45Z</time>
      </trkpt>
      <trkpt lat="50.30024659819901" lon="6.738674389198422">
        <ele>478.87</ele>
        <time>2017-05-25T12:20:38Z</time>
      </trkpt>
      <trkpt lat="50.300297643989325" lon="6.738608675077558">
        <ele>477.91000000000003</ele>
        <time>2017-05-25T12:20:29Z</time>
      </trkpt>
      <trkpt lat="50.300393449142575" lon="6.738382028415799">
        <ele>478.38999999999999</ele>
        <time>2017-05-25T12:20:07Z</time>
      </trkpt>
      <trkpt lat="50.300402166321874" lon="6.738354619592428">
        <ele>477.91000000000003</ele>
        <time>2017-05-25T12:20:05Z</time>
      </trkpt>
      <trkpt lat="50.300436029210687" lon="6.738113975152373">
        <ele>477.91000000000003</ele>
        <time>2017-05-25T12:19:45Z</time>
      </trkpt>
      <trkpt lat="50.300408788025379" lon="6.738008111715317">
        <ele>478.38999999999999</ele>
        <time>2017-05-25T12:19:26Z</time>
      </trkpt>
      <trkpt lat="50.300346845760942" lon="6.738001154735684">
        <ele>478.87</ele>
        <time>2017-05-25T12:19:20Z</time>
      </trkpt>
      <trkpt lat="50.300315665081143" lon="6.737991347908974">
        <ele>478.38999999999999</ele>
        <time>2017-05-25T12:19:15Z</time>
      </trkpt>
      <trkpt lat="50.300291944295168" lon="6.737960753962398">
        <ele>478.38999999999999</ele>
        <time>2017-05-25T12:18:55Z</time>
      </trkpt>
      <trkpt lat="50.300198066979647" lon="6.737934434786439">
        <ele>475.99000000000001</ele>
        <time>2017-05-25T12:18:40Z</time>
      </trkpt>
      <trkpt lat="50.300360592082143" lon="6.737801413983107">
        <ele>475.99000000000001</ele>
        <time>2017-05-25T12:18:21Z</time>
      </trkpt>
      <trkpt lat="50.300418008118868" lon="6.73776051029563">
        <ele>475.02999999999997</ele>
        <time>2017-05-25T12:18:15Z</time>
      </trkpt>
      <trkpt lat="50.300555806607008" lon="6.73763788305223">
        <ele>475.02999999999997</ele>
        <time>2017-05-25T12:17:59Z</time>
      </trkpt>
      <trkpt lat="50.30055882409215" lon="6.737613994628191">
        <ele>474.06999999999999</ele>
        <time>2017-05-25T12:17:32Z</time>
      </trkpt>
      <trkpt lat="50.300561087206006" lon="6.73762028105557">
        <ele>474.55000000000001</ele>
        <time>2017-05-25T12:17:04Z</time>
      </trkpt>
      <trkpt lat="50.300584640353918" lon="6.737618185579777">
        <ele>475.02999999999997</ele>
        <time>2017-05-25T12:16:29Z</time>
      </trkpt>
      <trkpt lat="50.300571732223034" lon="6.737613575533032">
        <ele>474.55000000000001</ele>
        <time>2017-05-25T12:15:59Z</time>
      </trkpt>
      <trkpt lat="50.300578437745571" lon="6.737628076225519">
        <ele>474.55000000000001</ele>
        <time>2017-05-25T12:15:31Z</time>
      </trkpt>
      <trkpt lat="50.300536444410682" lon="6.737623633816838">
        <ele>474.55000000000001</ele>
        <time>2017-05-25T12:15:00Z</time>
      </trkpt>
      <trkpt lat="50.300571480765939" lon="6.737626232206821">
        <ele>474.55000000000001</ele>
        <time>2017-05-25T12:14:28Z</time>
      </trkpt>
      <trkpt lat="50.300559243187308" lon="6.737616593018174">
        <ele>474.06999999999999</ele>
        <time>2017-05-25T12:14:01Z</time>
      </trkpt>
      <trkpt lat="50.300594363361597" lon="6.737586921080947">
        <ele>474.06999999999999</ele>
        <time>2017-05-25T12:13:36Z</time>
      </trkpt>
      <trkpt lat="50.300560919567943" lon="6.737624555826187">
        <ele>474.55000000000001</ele>
        <time>2017-05-25T12:13:08Z</time>
      </trkpt>
      <trkpt lat="50.300569552928209" lon="6.737613491714001">
        <ele>474.55000000000001</ele>
        <time>2017-05-25T12:12:44Z</time>
      </trkpt>
      <trkpt lat="50.300577851012349" lon="6.7376290820539">
        <ele>474.06999999999999</ele>
        <time>2017-05-25T12:12:21Z</time>
      </trkpt>
      <trkpt lat="50.300538120791316" lon="6.737608294934034">
        <ele>474.06999999999999</ele>
        <time>2017-05-25T12:11:46Z</time>
      </trkpt>
      <trkpt lat="50.300562344491482" lon="6.737597649917007">
        <ele>474.06999999999999</ele>
        <time>2017-05-25T12:11:16Z</time>
      </trkpt>
      <trkpt lat="50.3005734924227" lon="6.737612569704652">
        <ele>474.06999999999999</ele>
        <time>2017-05-25T12:10:45Z</time>
      </trkpt>
      <trkpt lat="50.300582963973284" lon="6.737622376531363">
        <ele>474.06999999999999</ele>
        <time>2017-05-25T12:10:27Z</time>
      </trkpt>
      <trkpt lat="50.300570139661431" lon="6.737619778141379">
        <ele>474.06999999999999</ele>
        <time>2017-05-25T12:10:03Z</time>
      </trkpt>
      <trkpt lat="50.300588579848409" lon="6.737619610503316">
        <ele>474.06999999999999</ele>
        <time>2017-05-25T12:09:35Z</time>
      </trkpt>
      <trkpt lat="50.300558404996991" lon="6.737635284662247">
        <ele>474.55000000000001</ele>
        <time>2017-05-25T12:09:07Z</time>
      </trkpt>
      <trkpt lat="50.300559410825372" lon="6.737623466178775">
        <ele>474.55000000000001</ele>
        <time>2017-05-25T12:08:38Z</time>
      </trkpt>
      <trkpt lat="50.300566451624036" lon="6.73764131963253">
        <ele>474.55000000000001</ele>
        <time>2017-05-25T12:08:08Z</time>
      </trkpt>
      <trkpt lat="50.300557147711515" lon="6.737621370702982">
        <ele>474.06999999999999</ele>
        <time>2017-05-25T12:07:42Z</time>
      </trkpt>
      <trkpt lat="50.300561254844069" lon="6.737648528069258">
        <ele>474.55000000000001</ele>
        <time>2017-05-25T12:07:19Z</time>
      </trkpt>
      <trkpt lat="50.300545748323202" lon="6.737616760656238">
        <ele>474.55000000000001</ele>
        <time>2017-05-25T12:06:53Z</time>
      </trkpt>
      <trkpt lat="50.300535773858428" lon="6.737596392631531">
        <ele>474.06999999999999</ele>
        <time>2017-05-25T12:06:34Z</time>
      </trkpt>
      <trkpt lat="50.30053929425776" lon="6.73760955221951">
        <ele>474.06999999999999</ele>
        <time>2017-05-25T12:06:15Z</time>
      </trkpt>
      <trkpt lat="50.300545832142234" lon="6.737612402066588">
        <ele>474.06999999999999</ele>
        <time>2017-05-25T12:05:51Z</time>
      </trkpt>
      <trkpt lat="50.300543149933219" lon="6.737609636038542">
        <ele>472.63</ele>
        <time>2017-05-25T12:05:49Z</time>
      </trkpt>
      <trkpt lat="50.300542395561934" lon="6.737610390409827">
        <ele>472.63</ele>
        <time>2017-05-25T12:05:48Z</time>
      </trkpt>
      <trkpt lat="50.300544407218695" lon="6.737593626603484">
        <ele>475.99000000000001</ele>
        <time>2017-05-25T12:05:25Z</time>
      </trkpt>
      <trkpt lat="50.30055153183639" lon="6.737619945779443">
        <ele>473.58999999999997</ele>
        <time>2017-05-25T12:04:55Z</time>
      </trkpt>
      <trkpt lat="50.300540048629045" lon="6.737609803676605">
        <ele>474.06999999999999</ele>
        <time>2017-05-25T12:04:30Z</time>
      </trkpt>
      <trkpt lat="50.300549268722534" lon="6.737603936344385">
        <ele>474.55000000000001</ele>
        <time>2017-05-25T12:04:00Z</time>
      </trkpt>
      <trkpt lat="50.300561673939228" lon="6.737617682665587">
        <ele>474.06999999999999</ele>
        <time>2017-05-25T12:03:35Z</time>
      </trkpt>
      <trkpt lat="50.300540970638394" lon="6.737609133124352">
        <ele>474.55000000000001</ele>
        <time>2017-05-25T12:02:59Z</time>
      </trkpt>
      <trkpt lat="50.300528649240732" lon="6.737614748999476">
        <ele>474.55000000000001</ele>
        <time>2017-05-25T12:02:31Z</time>
      </trkpt>
      <trkpt lat="50.300544910132885" lon="6.737623885273933">
        <ele>475.02999999999997</ele>
        <time>2017-05-25T12:02:01Z</time>
      </trkpt>
      <trkpt lat="50.300531499087811" lon="6.737590357661247">
        <ele>474.06999999999999</ele>
        <time>2017-05-25T12:01:36Z</time>
      </trkpt>
      <trkpt lat="50.30053392983973" lon="6.737583233043551">
        <ele>474.06999999999999</ele>
        <time>2017-05-25T12:01:18Z</time>
      </trkpt>
      <trkpt lat="50.30051976442337" lon="6.737613491714001">
        <ele>475.02999999999997</ele>
        <time>2017-05-25T12:01:03Z</time>
      </trkpt>
      <trkpt lat="50.300538204610348" lon="6.7376290820539">
        <ele>474.55000000000001</ele>
        <time>2017-05-25T12:00:45Z</time>
      </trkpt>
      <trkpt lat="50.300522781908512" lon="6.737648108974099">
        <ele>474.06999999999999</ele>
        <time>2017-05-25T12:00:12Z</time>
      </trkpt>
      <trkpt lat="50.300525967031717" lon="6.737636709585786">
        <ele>475.02999999999997</ele>
        <time>2017-05-25T11:59:57Z</time>
      </trkpt>
      <trkpt lat="50.300536528229713" lon="6.737593458965421">
        <ele>474.55000000000001</ele>
        <time>2017-05-25T11:59:53Z</time>
      </trkpt>
      <trkpt lat="50.300420774146914" lon="6.737694879993796">
        <ele>474.55000000000001</ele>
        <time>2017-05-25T11:59:36Z</time>
      </trkpt>
      <trkpt lat="50.300263110548258" lon="6.73782798461616">
        <ele>474.55000000000001</ele>
        <time>2017-05-25T11:59:21Z</time>
      </trkpt>
      <trkpt lat="50.300183314830065" lon="6.737931501120329">
        <ele>475.99000000000001</ele>
        <time>2017-05-25T11:59:13Z</time>
      </trkpt>
      <trkpt lat="50.300211645662785" lon="6.737969722598791">
        <ele>475.50999999999999</ele>
        <time>2017-05-25T11:59:10Z</time>
      </trkpt>
      <trkpt lat="50.300306864082813" lon="6.738004591315985">
        <ele>476.94999999999999</ele>
        <time>2017-05-25T11:58:58Z</time>
      </trkpt>
      <trkpt lat="50.300469137728214" lon="6.737786075100303">
        <ele>476.47000000000003</ele>
        <time>2017-05-25T11:58:00Z</time>
      </trkpt>
      <trkpt lat="50.300469305366278" lon="6.73774047754705">
        <ele>477.43000000000001</ele>
        <time>2017-05-25T11:57:55Z</time>
      </trkpt>
      <trkpt lat="50.300344247370958" lon="6.737908534705639">
        <ele>476.94999999999999</ele>
        <time>2017-05-25T11:57:29Z</time>
      </trkpt>
      <trkpt lat="50.300320610404015" lon="6.737971398979425">
        <ele>477.43000000000001</ele>
        <time>2017-05-25T11:57:05Z</time>
      </trkpt>
      <trkpt lat="50.300314743071795" lon="6.73793594352901">
        <ele>476.47000000000003</ele>
        <time>2017-05-25T11:56:44Z</time>
      </trkpt>
      <trkpt lat="50.300277946516871" lon="6.737925298511982">
        <ele>476.47000000000003</ele>
        <time>2017-05-25T11:56:32Z</time>
      </trkpt>
      <trkpt lat="50.300255818292499" lon="6.737874168902636">
        <ele>475.50999999999999</ele>
        <time>2017-05-25T11:56:16Z</time>
      </trkpt>
      <trkpt lat="50.300385318696499" lon="6.737779788672924">
        <ele>475.02999999999997</ele>
        <time>2017-05-25T11:56:02Z</time>
      </trkpt>
      <trkpt lat="50.300463438034058" lon="6.737716421484947">
        <ele>474.06999999999999</ele>
        <time>2017-05-25T11:55:52Z</time>
      </trkpt>
      <trkpt lat="50.300545496866107" lon="6.737580886110663">
        <ele>474.06999999999999</ele>
        <time>2017-05-25T11:55:37Z</time>
      </trkpt>
      <trkpt lat="50.3005510289222" lon="6.737594632431865">
        <ele>474.55000000000001</ele>
        <time>2017-05-25T11:55:20Z</time>
      </trkpt>
      <trkpt lat="50.300544993951917" lon="6.737579712644219">
        <ele>473.58999999999997</ele>
        <time>2017-05-25T11:55:04Z</time>
      </trkpt>
      <trkpt lat="50.300549855455756" lon="6.73765548504889">
        <ele>475.50999999999999</ele>
        <time>2017-05-25T11:54:50Z</time>
      </trkpt>
      <trkpt lat="50.300388839095831" lon="6.737752547487617">
        <ele>475.50999999999999</ele>
        <time>2017-05-25T11:54:40Z</time>
      </trkpt>
      <trkpt lat="50.300160264596343" lon="6.737875174731016">
        <ele>476.47000000000003</ele>
        <time>2017-05-25T11:54:25Z</time>
      </trkpt>
      <trkpt lat="50.300152469426394" lon="6.73799310810864">
        <ele>476.47000000000003</ele>
        <time>2017-05-25T11:54:19Z</time>
      </trkpt>
      <trkpt lat="50.300205107778311" lon="6.738129314035177">
        <ele>477.43000000000001</ele>
        <time>2017-05-25T11:54:12Z</time>
      </trkpt>
      <trkpt lat="50.300389174371958" lon="6.738446904346347">
        <ele>478.87</ele>
        <time>2017-05-25T11:53:56Z</time>
      </trkpt>
      <trkpt lat="50.300586316734552" lon="6.738813193514943">
        <ele>480.80000000000001</ele>
        <time>2017-05-25T11:53:39Z</time>
      </trkpt>
      <trkpt lat="50.300689162686467" lon="6.739215608686209">
        <ele>480.31999999999999</ele>
        <time>2017-05-25T11:53:22Z</time>
      </trkpt>
      <trkpt lat="50.300772981718183" lon="6.739517524838448">
        <ele>482.72000000000003</ele>
        <time>2017-05-25T11:53:06Z</time>
      </trkpt>
      <trkpt lat="50.300765270367265" lon="6.739799743518233">
        <ele>483.68000000000001</ele>
        <time>2017-05-25T11:52:51Z</time>
      </trkpt>
      <trkpt lat="50.300642475485802" lon="6.739882808178663">
        <ele>484.63999999999999</ele>
        <time>2017-05-25T11:52:38Z</time>
      </trkpt>
      <trkpt lat="50.300402585417032" lon="6.740000322461128">
        <ele>486.07999999999998</ele>
        <time>2017-05-25T11:52:22Z</time>
      </trkpt>
      <trkpt lat="50.30029789544642" lon="6.740084392949939">
        <ele>487.05000000000001</ele>
        <time>2017-05-25T11:52:15Z</time>
      </trkpt>
      <trkpt lat="50.300258416682482" lon="6.740124793723226">
        <ele>487.05000000000001</ele>
        <time>2017-05-25T11:52:12Z</time>
      </trkpt>
      <trkpt lat="50.300191948190331" lon="6.74026183784008">
        <ele>488.97000000000003</ele>
        <time>2017-05-25T11:52:04Z</time>
      </trkpt>
      <trkpt lat="50.300164204090834" lon="6.740533243864775">
        <ele>491.85000000000002</ele>
        <time>2017-05-25T11:51:50Z</time>
      </trkpt>
      <trkpt lat="50.300231678411365" lon="6.740781683474779">
        <ele>492.81</ele>
        <time>2017-05-25T11:51:36Z</time>
      </trkpt>
      <trkpt lat="50.300318179652095" lon="6.741197174414992">
        <ele>495.22000000000003</ele>
        <time>2017-05-25T11:51:19Z</time>
      </trkpt>
      <trkpt lat="50.300421360880136" lon="6.741571510210633">
        <ele>497.13999999999999</ele>
        <time>2017-05-25T11:51:03Z</time>
      </trkpt>
      <trkpt lat="50.30051339417696" lon="6.741838809102774">
        <ele>499.06</ele>
        <time>2017-05-25T11:50:50Z</time>
      </trkpt>
      <trkpt lat="50.300625544041395" lon="6.74204190261662">
        <ele>500.01999999999998</ele>
        <time>2017-05-25T11:50:38Z</time>
      </trkpt>
      <trkpt lat="50.300764180719852" lon="6.742184478789568">
        <ele>500.98000000000002</ele>
        <time>2017-05-25T11:50:28Z</time>
      </trkpt>
      <trkpt lat="50.300999125465751" lon="6.742361336946487">
        <ele>502.43000000000001</ele>
        <time>2017-05-25T11:50:13Z</time>
      </trkpt>
      <trkpt lat="50.30126734636724" lon="6.742544984444976">
        <ele>501.94999999999999</ele>
        <time>2017-05-25T11:49:55Z</time>
      </trkpt>
      <trkpt lat="50.30131034553051" lon="6.742732655256987">
        <ele>502.43000000000001</ele>
        <time>2017-05-25T11:49:43Z</time>
      </trkpt>
      <trkpt lat="50.301257790997624" lon="6.742788394913077">
        <ele>503.38999999999999</ele>
        <time>2017-05-25T11:49:38Z</time>
      </trkpt>
      <trkpt lat="50.30104891397059" lon="6.742818150669336">
        <ele>505.31</ele>
        <time>2017-05-25T11:49:25Z</time>
      </trkpt>
      <trkpt lat="50.300844898447394" lon="6.742821419611573">
        <ele>507.70999999999998</ele>
        <time>2017-05-25T11:49:12Z</time>
      </trkpt>
      <trkpt lat="50.300684049725533" lon="6.742820916697383">
        <ele>509.16000000000003</ele>
        <time>2017-05-25T11:48:59Z</time>
      </trkpt>
      <trkpt lat="50.300510376691818" lon="6.742817563936114">
        <ele>511.56</ele>
        <time>2017-05-25T11:48:45Z</time>
      </trkpt>
      <trkpt lat="50.300432508811355" lon="6.742785796523094">
        <ele>511.56</ele>
        <time>2017-05-25T11:48:39Z</time>
      </trkpt>
      <trkpt lat="50.300423121079803" lon="6.742779174819589">
        <ele>512.51999999999998</ele>
        <time>2017-05-25T11:48:38Z</time>
      </trkpt>
      <trkpt lat="50.300251878798008" lon="6.742722513154149">
        <ele>514.91999999999996</ele>
        <time>2017-05-25T11:48:24Z</time>
      </trkpt>
      <trkpt lat="50.300127910450101" lon="6.742971455678344">
        <ele>515.39999999999998</ele>
        <time>2017-05-25T11:48:09Z</time>
      </trkpt>
      <trkpt lat="50.300142746418715" lon="6.743118977174163">
        <ele>517.33000000000004</ele>
        <time>2017-05-25T11:48:02Z</time>
      </trkpt>
      <trkpt lat="50.30014107003808" lon="6.743214279413223">
        <ele>518.76999999999998</ele>
        <time>2017-05-25T11:47:58Z</time>
      </trkpt>
      <trkpt lat="50.300102261826396" lon="6.743545113131404">
        <ele>521.64999999999998</ele>
        <time>2017-05-25T11:47:43Z</time>
      </trkpt>
      <trkpt lat="50.300103351473808" lon="6.743602948263288">
        <ele>521.64999999999998</ele>
        <time>2017-05-25T11:47:40Z</time>
      </trkpt>
      <trkpt lat="50.300084408372641" lon="6.743701351806521">
        <ele>522.61000000000001</ele>
        <time>2017-05-25T11:47:35Z</time>
      </trkpt>
      <trkpt lat="50.300059346482158" lon="6.743750972673297">
        <ele>523.09000000000003</ele>
        <time>2017-05-25T11:47:32Z</time>
      </trkpt>
      <trkpt lat="50.299991285428405" lon="6.743840659037232">
        <ele>523.58000000000004</ele>
        <time>2017-05-25T11:47:26Z</time>
      </trkpt>
      <trkpt lat="50.299821887165308" lon="6.744033945724368">
        <ele>525.98000000000002</ele>
        <time>2017-05-25T11:47:12Z</time>
      </trkpt>
      <trkpt lat="50.299747874960303" lon="6.744089098647237">
        <ele>526.94000000000005</ele>
        <time>2017-05-25T11:47:07Z</time>
      </trkpt>
      <trkpt lat="50.299562802538276" lon="6.744157243520021">
        <ele>527.89999999999998</ele>
        <time>2017-05-25T11:46:53Z</time>
      </trkpt>
      <trkpt lat="50.299346465617418" lon="6.744146179407835">
        <ele>530.78999999999996</ele>
        <time>2017-05-25T11:46:38Z</time>
      </trkpt>
      <trkpt lat="50.29933288693428" lon="6.744149029254913">
        <ele>530.29999999999995</ele>
        <time>2017-05-25T11:46:37Z</time>
      </trkpt>
      <trkpt lat="50.299258455634117" lon="6.744344076141715">
        <ele>533.19000000000005</ele>
        <time>2017-05-25T11:46:25Z</time>
      </trkpt>
      <trkpt lat="50.299337161704898" lon="6.744629228487611">
        <ele>535.59000000000003</ele>
        <time>2017-05-25T11:46:10Z</time>
      </trkpt>
      <trkpt lat="50.299339257180691" lon="6.744647584855557">
        <ele>535.11000000000001</ele>
        <time>2017-05-25T11:46:09Z</time>
      </trkpt>
      <trkpt lat="50.299359960481524" lon="6.744933659210801">
        <ele>536.07000000000005</ele>
        <time>2017-05-25T11:45:55Z</time>
      </trkpt>
      <trkpt lat="50.299396170303226" lon="6.745048575103283">
        <ele>535.59000000000003</ele>
        <time>2017-05-25T11:45:50Z</time>
      </trkpt>
      <trkpt lat="50.299507230520248" lon="6.745361220091581">
        <ele>536.07000000000005</ele>
        <time>2017-05-25T11:45:36Z</time>
      </trkpt>
      <trkpt lat="50.299646537750959" lon="6.745638241991401">
        <ele>537.99000000000001</ele>
        <time>2017-05-25T11:45:20Z</time>
      </trkpt>
      <trkpt lat="50.299785928800702" lon="6.745941080152988">
        <ele>540.39999999999998</ele>
        <time>2017-05-25T11:45:04Z</time>
      </trkpt>
      <trkpt lat="50.299942838028073" lon="6.746224220842123">
        <ele>541.36000000000001</ele>
        <time>2017-05-25T11:44:50Z</time>
      </trkpt>
      <trkpt lat="50.300072757527232" lon="6.746586738154292">
        <ele>542.79999999999995</ele>
        <time>2017-05-25T11:44:31Z</time>
      </trkpt>
      <trkpt lat="50.300284149125218" lon="6.746985632926226">
        <ele>545.69000000000005</ele>
        <time>2017-05-25T11:44:11Z</time>
      </trkpt>
      <trkpt lat="50.300378194078803" lon="6.747144553810358">
        <ele>546.16999999999996</ele>
        <time>2017-05-25T11:44:03Z</time>
      </trkpt>
      <trkpt lat="50.300410883501172" lon="6.74721403978765">
        <ele>546.64999999999998</ele>
        <time>2017-05-25T11:43:59Z</time>
      </trkpt>
      <trkpt lat="50.300550777465105" lon="6.747508412227035">
        <ele>546.64999999999998</ele>
        <time>2017-05-25T11:43:45Z</time>
      </trkpt>
      <trkpt lat="50.300694862380624" lon="6.747789541259408">
        <ele>547.13</ele>
        <time>2017-05-25T11:43:31Z</time>
      </trkpt>
      <trkpt lat="50.300897620618343" lon="6.748103946447372">
        <ele>546.64999999999998</ele>
        <time>2017-05-25T11:43:14Z</time>
      </trkpt>
      <trkpt lat="50.300929890945554" lon="6.748196315020323">
        <ele>546.64999999999998</ele>
        <time>2017-05-25T11:43:09Z</time>
      </trkpt>
      <trkpt lat="50.301033323630691" lon="6.74839504994452">
        <ele>545.69000000000005</ele>
        <time>2017-05-25T11:42:56Z</time>
      </trkpt>
      <trkpt lat="50.301076825708151" lon="6.748389350250363">
        <ele>545.69000000000005</ele>
        <time>2017-05-25T11:42:52Z</time>
      </trkpt>
      <trkpt lat="50.301069281995296" lon="6.748398654162884">
        <ele>545.69000000000005</ele>
        <time>2017-05-25T11:42:47Z</time>
      </trkpt>
      <trkpt lat="50.301065593957901" lon="6.748494207859039">
        <ele>545.20000000000005</ele>
        <time>2017-05-25T11:42:34Z</time>
      </trkpt>
      <trkpt lat="50.301256030797958" lon="6.748799057677388">
        <ele>543.75999999999999</ele>
        <time>2017-05-25T11:42:17Z</time>
      </trkpt>
      <trkpt lat="50.301382932811975" lon="6.74895940348506">
        <ele>542.79999999999995</ele>
        <time>2017-05-25T11:42:06Z</time>
      </trkpt>
      <trkpt lat="50.301427021622658" lon="6.749010952189565">
        <ele>542.32000000000005</ele>
        <time>2017-05-25T11:41:58Z</time>
      </trkpt>
      <trkpt lat="50.301649561151862" lon="6.749293841421604">
        <ele>540.39999999999998</ele>
        <time>2017-05-25T11:41:39Z</time>
      </trkpt>
      <trkpt lat="50.301916524767876" lon="6.749557284638286">
        <ele>537.50999999999999</ele>
        <time>2017-05-25T11:41:21Z</time>
      </trkpt>
      <trkpt lat="50.301976455375552" lon="6.749709080904722">
        <ele>535.11000000000001</ele>
        <time>2017-05-25T11:41:14Z</time>
      </trkpt>
      <trkpt lat="50.301968492567539" lon="6.749745877459645">
        <ele>534.63</ele>
        <time>2017-05-25T11:41:12Z</time>
      </trkpt>
      <trkpt lat="50.301810745149851" lon="6.749944780021906">
        <ele>531.75</ele>
        <time>2017-05-25T11:40:59Z</time>
      </trkpt>
      <trkpt lat="50.301768165081739" lon="6.750010913237929">
        <ele>531.75</ele>
        <time>2017-05-25T11:40:35Z</time>
      </trkpt>
      <trkpt lat="50.301546128466725" lon="6.7502611130476">
        <ele>530.29999999999995</ele>
        <time>2017-05-25T11:40:15Z</time>
      </trkpt>
      <trkpt lat="50.301348650828004" lon="6.750490358099341">
        <ele>528.86000000000001</ele>
        <time>2017-05-25T11:39:57Z</time>
      </trkpt>
      <trkpt lat="50.301065761595964" lon="6.750769391655922">
        <ele>527.41999999999996</ele>
        <time>2017-05-25T11:39:38Z</time>
      </trkpt>
      <trkpt lat="50.300815813243389" lon="6.751043815165758">
        <ele>528.38</ele>
        <time>2017-05-25T11:39:20Z</time>
      </trkpt>
      <trkpt lat="50.300544574856758" lon="6.751344054937363">
        <ele>527.41999999999996</ele>
        <time>2017-05-25T11:39:02Z</time>
      </trkpt>
      <trkpt lat="50.300253136083484" lon="6.751503562554717">
        <ele>526.46000000000004</ele>
        <time>2017-05-25T11:38:47Z</time>
      </trkpt>
      <trkpt lat="50.30003503896296" lon="6.751735573634505">
        <ele>524.53999999999996</ele>
        <time>2017-05-25T11:38:30Z</time>
      </trkpt>
      <trkpt lat="50.299806715920568" lon="6.752020139247179">
        <ele>522.61000000000001</ele>
        <time>2017-05-25T11:38:11Z</time>
      </trkpt>
      <trkpt lat="50.299536399543285" lon="6.752354744821787">
        <ele>521.16999999999996</ele>
        <time>2017-05-25T11:37:53Z</time>
      </trkpt>
      <trkpt lat="50.299408240243793" lon="6.752524059265852">
        <ele>521.16999999999996</ele>
        <time>2017-05-25T11:37:36Z</time>
      </trkpt>
      <trkpt lat="50.299370521679521" lon="6.752499835565686">
        <ele>521.64999999999998</ele>
        <time>2017-05-25T11:37:09Z</time>
      </trkpt>
      <trkpt lat="50.299364654347301" lon="6.752531519159675">
        <ele>520.69000000000005</ele>
        <time>2017-05-25T11:36:45Z</time>
      </trkpt>
      <trkpt lat="50.299379657953978" lon="6.752593126147986">
        <ele>522.13</ele>
        <time>2017-05-25T11:36:22Z</time>
      </trkpt>
      <trkpt lat="50.299239763990045" lon="6.752749281004071">
        <ele>523.09000000000003</ele>
        <time>2017-05-25T11:36:06Z</time>
      </trkpt>
      <trkpt lat="50.298987301066518" lon="6.753015490248799">
        <ele>522.61000000000001</ele>
        <time>2017-05-25T11:35:51Z</time>
      </trkpt>
      <trkpt lat="50.29842252843082" lon="6.753572383895516">
        <ele>524.53999999999996</ele>
        <time>2017-05-25T11:35:37Z</time>
      </trkpt>
      <trkpt lat="50.29794417321682" lon="6.754053253680468">
        <ele>524.05999999999995</ele>
        <time>2017-05-25T11:35:23Z</time>
      </trkpt>
      <trkpt lat="50.297718280926347" lon="6.754295658320189">
        <ele>521.16999999999996</ele>
        <time>2017-05-25T11:35:12Z</time>
      </trkpt>
      <trkpt lat="50.297450395300984" lon="6.754495147615671">
        <ele>521.16999999999996</ele>
        <time>2017-05-25T11:34:57Z</time>
      </trkpt>
      <trkpt lat="50.29724788852036" lon="6.754709137603641">
        <ele>520.69000000000005</ele>
        <time>2017-05-25T11:34:40Z</time>
      </trkpt>
      <trkpt lat="50.296993078663945" lon="6.755005018785596">
        <ele>521.16999999999996</ele>
        <time>2017-05-25T11:34:21Z</time>
      </trkpt>
      <trkpt lat="50.296926777809858" lon="6.754985153675079">
        <ele>520.69000000000005</ele>
        <time>2017-05-25T11:34:16Z</time>
      </trkpt>
      <trkpt lat="50.296583706513047" lon="6.754703940823674">
        <ele>520.69000000000005</ele>
        <time>2017-05-25T11:33:56Z</time>
      </trkpt>
      <trkpt lat="50.296460995450616" lon="6.754577457904816">
        <ele>521.16999999999996</ele>
        <time>2017-05-25T11:33:48Z</time>
      </trkpt>
      <trkpt lat="50.296294698491693" lon="6.754325162619352">
        <ele>521.16999999999996</ele>
        <time>2017-05-25T11:33:28Z</time>
      </trkpt>
      <trkpt lat="50.296177184209228" lon="6.754238829016686">
        <ele>521.16999999999996</ele>
        <time>2017-05-25T11:33:18Z</time>
      </trkpt>
      <trkpt lat="50.296161258593202" lon="6.754228519275785">
        <ele>521.16999999999996</ele>
        <time>2017-05-25T11:33:17Z</time>
      </trkpt>
      <trkpt lat="50.295959925279021" lon="6.754085440188646">
        <ele>521.16999999999996</ele>
        <time>2017-05-25T11:33:03Z</time>
      </trkpt>
      <trkpt lat="50.295890942215919" lon="6.754041938111186">
        <ele>520.69000000000005</ele>
        <time>2017-05-25T11:33:00Z</time>
      </trkpt>
      <trkpt lat="50.295627247542143" lon="6.75389651209116">
        <ele>520.69000000000005</ele>
        <time>2017-05-25T11:32:45Z</time>
      </trkpt>
      <trkpt lat="50.295397583395243" lon="6.753705656155944">
        <ele>519.25</ele>
        <time>2017-05-25T11:32:28Z</time>
      </trkpt>
      <trkpt lat="50.295191975310445" lon="6.753554781898856">
        <ele>518.28999999999996</ele>
        <time>2017-05-25T11:32:12Z</time>
      </trkpt>
      <trkpt lat="50.295121651142836" lon="6.753611946478486">
        <ele>519.73000000000002</ele>
        <time>2017-05-25T11:32:05Z</time>
      </trkpt>
      <trkpt lat="50.295085525140166" lon="6.753706494346261">
        <ele>519.25</ele>
        <time>2017-05-25T11:32:00Z</time>
      </trkpt>
      <trkpt lat="50.295046465471387" lon="6.753800706937909">
        <ele>519.73000000000002</ele>
        <time>2017-05-25T11:31:55Z</time>
      </trkpt>
      <trkpt lat="50.295028863474727" lon="6.75386868417263">
        <ele>519.73000000000002</ele>
        <time>2017-05-25T11:31:52Z</time>
      </trkpt>
      <trkpt lat="50.294992150738835" lon="6.754000699147582">
        <ele>520.21000000000004</ele>
        <time>2017-05-25T11:31:46Z</time>
      </trkpt>
      <trkpt lat="50.294912271201611" lon="6.75420043990016">
        <ele>521.16999999999996</ele>
        <time>2017-05-25T11:31:36Z</time>
      </trkpt>
      <trkpt lat="50.294819232076406" lon="6.754452651366592">
        <ele>521.16999999999996</ele>
        <time>2017-05-25T11:31:25Z</time>
      </trkpt>
      <trkpt lat="50.29471144080162" lon="6.754703270271421">
        <ele>521.64999999999998</ele>
        <time>2017-05-25T11:31:10Z</time>
      </trkpt>
      <trkpt lat="50.29466793872416" lon="6.754836291074753">
        <ele>522.61000000000001</ele>
        <time>2017-05-25T11:31:04Z</time>
      </trkpt>
      <trkpt lat="50.294543299823999" lon="6.755187325179577">
        <ele>522.13</ele>
        <time>2017-05-25T11:30:48Z</time>
      </trkpt>
      <trkpt lat="50.294479010626674" lon="6.755351778119803">
        <ele>521.64999999999998</ele>
        <time>2017-05-25T11:30:41Z</time>
      </trkpt>
      <trkpt lat="50.294470628723502" lon="6.755369044840336">
        <ele>521.16999999999996</ele>
        <time>2017-05-25T11:30:40Z</time>
      </trkpt>
      <trkpt lat="50.294371470808983" lon="6.755623435601592">
        <ele>520.69000000000005</ele>
        <time>2017-05-25T11:30:27Z</time>
      </trkpt>
      <trkpt lat="50.294244568794966" lon="6.755861062556505">
        <ele>520.69000000000005</ele>
        <time>2017-05-25T11:30:14Z</time>
      </trkpt>
      <trkpt lat="50.294083217158914" lon="6.75627714022994">
        <ele>520.21000000000004</ele>
        <time>2017-05-25T11:29:55Z</time>
      </trkpt>
      <trkpt lat="50.293847853317857" lon="6.756647201254964">
        <ele>519.73000000000002</ele>
        <time>2017-05-25T11:29:34Z</time>
      </trkpt>
      <trkpt lat="50.293571166694164" lon="6.756951715797186">
        <ele>519.25</ele>
        <time>2017-05-25T11:29:14Z</time>
      </trkpt>
      <trkpt lat="50.293294480070472" lon="6.757254721596837">
        <ele>519.25</ele>
        <time>2017-05-25T11:28:53Z</time>
      </trkpt>
      <trkpt lat="50.293041095137596" lon="6.757528223097324">
        <ele>519.73000000000002</ele>
        <time>2017-05-25T11:28:35Z</time>
      </trkpt>
      <trkpt lat="50.292793577536941" lon="6.75779040902853">
        <ele>520.69000000000005</ele>
        <time>2017-05-25T11:28:18Z</time>
      </trkpt>
      <trkpt lat="50.292706238105893" lon="6.758074220269918">
        <ele>520.69000000000005</ele>
        <time>2017-05-25T11:28:05Z</time>
      </trkpt>
      <trkpt lat="50.292665334418416" lon="6.758124595507979">
        <ele>520.21000000000004</ele>
        <time>2017-05-25T11:28:01Z</time>
      </trkpt>
      <trkpt lat="50.292630968615413" lon="6.758125014603138">
        <ele>519.73000000000002</ele>
        <time>2017-05-25T11:27:59Z</time>
      </trkpt>
      <trkpt lat="50.29240264557302" lon="6.758044715970755">
        <ele>520.69000000000005</ele>
        <time>2017-05-25T11:27:44Z</time>
      </trkpt>
      <trkpt lat="50.292298039421439" lon="6.758174300193787">
        <ele>521.64999999999998</ele>
        <time>2017-05-25T11:27:35Z</time>
      </trkpt>
      <trkpt lat="50.292046079412103" lon="6.758374962955713">
        <ele>522.13</ele>
        <time>2017-05-25T11:27:19Z</time>
      </trkpt>
      <trkpt lat="50.29175422154367" lon="6.758579732850194">
        <ele>521.64999999999998</ele>
        <time>2017-05-25T11:27:01Z</time>
      </trkpt>
      <trkpt lat="50.291451131924987" lon="6.758803445845842">
        <ele>525.01999999999998</ele>
        <time>2017-05-25T11:26:40Z</time>
      </trkpt>
      <trkpt lat="50.291242422536016" lon="6.758951302617788">
        <ele>526.94000000000005</ele>
        <time>2017-05-25T11:26:24Z</time>
      </trkpt>
      <trkpt lat="50.290990713983774" lon="6.759152719751">
        <ele>529.34000000000003</ele>
        <time>2017-05-25T11:26:05Z</time>
      </trkpt>
      <trkpt lat="50.290782591328025" lon="6.759301330894232">
        <ele>532.23000000000002</ele>
        <time>2017-05-25T11:25:50Z</time>
      </trkpt>
      <trkpt lat="50.290559381246567" lon="6.759465364739299">
        <ele>534.63</ele>
        <time>2017-05-25T11:25:34Z</time>
      </trkpt>
      <trkpt lat="50.290254028514028" lon="6.759694358333945">
        <ele>537.50999999999999</ele>
        <time>2017-05-25T11:25:13Z</time>
      </trkpt>
      <trkpt lat="50.289931492879987" lon="6.759926620870829">
        <ele>539.91999999999996</ele>
        <time>2017-05-25T11:24:52Z</time>
      </trkpt>
      <trkpt lat="50.289589008316398" lon="6.760183526203036">
        <ele>542.32000000000005</ele>
        <time>2017-05-25T11:24:30Z</time>
      </trkpt>
      <trkpt lat="50.289248367771506" lon="6.760424003005028">
        <ele>541.84000000000003</ele>
        <time>2017-05-25T11:24:08Z</time>
      </trkpt>
      <trkpt lat="50.288873361423612" lon="6.760683674365282">
        <ele>540.88</ele>
        <time>2017-05-25T11:23:44Z</time>
      </trkpt>
      <trkpt lat="50.288548227399588" lon="6.760899256914854">
        <ele>537.99000000000001</ele>
        <time>2017-05-25T11:23:23Z</time>
      </trkpt>
      <trkpt lat="50.288264499977231" lon="6.761125987395644">
        <ele>538.48000000000002</ele>
        <time>2017-05-25T11:23:03Z</time>
      </trkpt>
      <trkpt lat="50.288021927699447" lon="6.761375097557902">
        <ele>537.50999999999999</ele>
        <time>2017-05-25T11:22:46Z</time>
      </trkpt>
      <trkpt lat="50.287781450897455" lon="6.76166569814086">
        <ele>535.11000000000001</ele>
        <time>2017-05-25T11:22:28Z</time>
      </trkpt>
      <trkpt lat="50.287539381533861" lon="6.7619554605335">
        <ele>533.19000000000005</ele>
        <time>2017-05-25T11:22:09Z</time>
      </trkpt>
      <trkpt lat="50.287309549748898" lon="6.762204486876726">
        <ele>531.75</ele>
        <time>2017-05-25T11:21:52Z</time>
      </trkpt>
      <trkpt lat="50.287124812602997" lon="6.762360138818622">
        <ele>529.34000000000003</ele>
        <time>2017-05-25T11:21:42Z</time>
      </trkpt>
      <trkpt lat="50.286974441260099" lon="6.76251981407404">
        <ele>526.46000000000004</ele>
        <time>2017-05-25T11:21:38Z</time>
      </trkpt>
      <trkpt lat="50.286797247827053" lon="6.762707568705082">
        <ele>523.09000000000003</ele>
        <time>2017-05-25T11:21:34Z</time>
      </trkpt>
      <trkpt lat="50.28657915070653" lon="6.762943519279361">
        <ele>519.73000000000002</ele>
        <time>2017-05-25T11:21:29Z</time>
      </trkpt>
      <trkpt lat="50.286544114351273" lon="6.762990625575185">
        <ele>519.73000000000002</ele>
        <time>2017-05-25T11:21:28Z</time>
      </trkpt>
      <trkpt lat="50.286480830982327" lon="6.763081653043628">
        <ele>516.37</ele>
        <time>2017-05-25T11:21:26Z</time>
      </trkpt>
      <trkpt lat="50.28637932613492" lon="6.763198329135776">
        <ele>514.44000000000005</ele>
        <time>2017-05-25T11:21:22Z</time>
      </trkpt>
      <trkpt lat="50.286130299791694" lon="6.763316094875336">
        <ele>514.44000000000005</ele>
        <time>2017-05-25T11:21:05Z</time>
      </trkpt>
      <trkpt lat="50.285868113860488" lon="6.763609210029244">
        <ele>516.85000000000002</ele>
        <time>2017-05-25T11:20:44Z</time>
      </trkpt>
      <trkpt lat="50.285582207143307" lon="6.763822948560119">
        <ele>515.39999999999998</ele>
        <time>2017-05-25T11:20:23Z</time>
      </trkpt>
      <trkpt lat="50.285324295982718" lon="6.764016570523381">
        <ele>517.80999999999995</ele>
        <time>2017-05-25T11:20:04Z</time>
      </trkpt>
      <trkpt lat="50.285269310697913" lon="6.764073232188821">
        <ele>517.33000000000004</ele>
        <time>2017-05-25T11:19:59Z</time>
      </trkpt>
      <trkpt lat="50.285160010680556" lon="6.764410939067602">
        <ele>518.76999999999998</ele>
        <time>2017-05-25T11:19:43Z</time>
      </trkpt>
      <trkpt lat="50.285088596865535" lon="6.76474311389029">
        <ele>519.73000000000002</ele>
        <time>2017-05-25T11:19:28Z</time>
      </trkpt>
      <trkpt lat="50.285010393708944" lon="6.764866327866912">
        <ele>519.73000000000002</ele>
        <time>2017-05-25T11:19:20Z</time>
      </trkpt>
      <trkpt lat="50.284902434796095" lon="6.764989458024502">
        <ele>519.25</ele>
        <time>2017-05-25T11:19:10Z</time>
      </trkpt>
      <trkpt lat="50.284858932718635" lon="6.76546580158174">
        <ele>516.37</ele>
        <time>2017-05-25T11:18:51Z</time>
      </trkpt>
      <trkpt lat="50.284841833636165" lon="6.765906941145659">
        <ele>513.48000000000002</ele>
        <time>2017-05-25T11:18:34Z</time>
      </trkpt>
      <trkpt lat="50.284853903576732" lon="6.766309440135956">
        <ele>510.60000000000002</ele>
        <time>2017-05-25T11:18:19Z</time>
      </trkpt>
      <trkpt lat="50.284858429804444" lon="6.766664665192366">
        <ele>507.23000000000002</ele>
        <time>2017-05-25T11:18:05Z</time>
      </trkpt>
      <trkpt lat="50.284876534715295" lon="6.767150899395347">
        <ele>504.35000000000002</ele>
        <time>2017-05-25T11:17:46Z</time>
      </trkpt>
      <trkpt lat="50.284842252731323" lon="6.767597403377295">
        <ele>502.43000000000001</ele>
        <time>2017-05-25T11:17:29Z</time>
      </trkpt>
      <trkpt lat="50.284791374579072" lon="6.768154380843043">
        <ele>499.06</ele>
        <time>2017-05-25T11:17:07Z</time>
      </trkpt>
      <trkpt lat="50.284787937998772" lon="6.768180700019002">
        <ele>502.43000000000001</ele>
        <time>2017-05-25T11:17:06Z</time>
      </trkpt>
      <trkpt lat="50.284783495590091" lon="6.768208108842373">
        <ele>494.25999999999999</ele>
        <time>2017-05-25T11:17:05Z</time>
      </trkpt>
      <trkpt lat="50.284780561923981" lon="6.768236439675093">
        <ele>500.5</ele>
        <time>2017-05-25T11:17:04Z</time>
      </trkpt>
      <trkpt lat="50.284685594961047" lon="6.76863650791347">
        <ele>496.66000000000003</ele>
        <time>2017-05-25T11:16:47Z</time>
      </trkpt>
      <trkpt lat="50.284536816179752" lon="6.769030708819628">
        <ele>494.25999999999999</ele>
        <time>2017-05-25T11:16:29Z</time>
      </trkpt>
      <trkpt lat="50.284366076812148" lon="6.769478302448988">
        <ele>491.85000000000002</ele>
        <time>2017-05-25T11:16:08Z</time>
      </trkpt>
      <trkpt lat="50.284416284412146" lon="6.769778123125434">
        <ele>489.44999999999999</ele>
        <time>2017-05-25T11:15:55Z</time>
      </trkpt>
      <trkpt lat="50.28442969545722" lon="6.769812488928437">
        <ele>489.44999999999999</ele>
        <time>2017-05-25T11:15:54Z</time>
      </trkpt>
      <trkpt lat="50.284573864191771" lon="6.770122535526753">
        <ele>486.07999999999998</ele>
        <time>2017-05-25T11:15:46Z</time>
      </trkpt>
      <trkpt lat="50.284689282998443" lon="6.770391929894686">
        <ele>482.72000000000003</ele>
        <time>2017-05-25T11:15:39Z</time>
      </trkpt>
      <trkpt lat="50.284810736775398" lon="6.77066870033741">
        <ele>479.35000000000002</ele>
        <time>2017-05-25T11:15:32Z</time>
      </trkpt>
      <trkpt lat="50.284845689311624" lon="6.770756291225553">
        <ele>477.43000000000001</ele>
        <time>2017-05-25T11:15:30Z</time>
      </trkpt>
      <trkpt lat="50.284944931045175" lon="6.770976232364774">
        <ele>475.02999999999997</ele>
        <time>2017-05-25T11:15:25Z</time>
      </trkpt>
      <trkpt lat="50.285070575773716" lon="6.771297343075275">
        <ele>471.18000000000001</ele>
        <time>2017-05-25T11:15:18Z</time>
      </trkpt>
      <trkpt lat="50.285200076177716" lon="6.771584339439869">
        <ele>468.30000000000001</ele>
        <time>2017-05-25T11:15:07Z</time>
      </trkpt>
      <trkpt lat="50.28538791462779" lon="6.772029921412468">
        <ele>464.93000000000001</ele>
        <time>2017-05-25T11:14:47Z</time>
      </trkpt>
      <trkpt lat="50.285467961803079" lon="6.772431749850512">
        <ele>462.05000000000001</ele>
        <time>2017-05-25T11:14:31Z</time>
      </trkpt>
      <trkpt lat="50.285419598221779" lon="6.772769205272198">
        <ele>459.64999999999998</ele>
        <time>2017-05-25T11:14:20Z</time>
      </trkpt>
      <trkpt lat="50.28528431430459" lon="6.773100458085537">
        <ele>456.75999999999999</ele>
        <time>2017-05-25T11:14:08Z</time>
      </trkpt>
      <trkpt lat="50.285259587690234" lon="6.773159550502896">
        <ele>455.31999999999999</ele>
        <time>2017-05-25T11:14:05Z</time>
      </trkpt>
      <trkpt lat="50.285191778093576" lon="6.773281004279852">
        <ele>455.31999999999999</ele>
        <time>2017-05-25T11:13:59Z</time>
      </trkpt>
      <trkpt lat="50.285147773101926" lon="6.773336743935943">
        <ele>454.83999999999997</ele>
        <time>2017-05-25T11:13:55Z</time>
      </trkpt>
      <trkpt lat="50.285095302388072" lon="6.773394243791699">
        <ele>454.36000000000001</ele>
        <time>2017-05-25T11:13:51Z</time>
      </trkpt>
      <trkpt lat="50.285074012354016" lon="6.773406397551298">
        <ele>454.83999999999997</ele>
        <time>2017-05-25T11:13:44Z</time>
      </trkpt>
      <trkpt lat="50.285050710663199" lon="6.773498179391027">
        <ele>454.83999999999997</ele>
        <time>2017-05-25T11:13:22Z</time>
      </trkpt>
      <trkpt lat="50.28505657799542" lon="6.773488204926252">
        <ele>454.36000000000001</ele>
        <time>2017-05-25T11:13:00Z</time>
      </trkpt>
      <trkpt lat="50.285072587430477" lon="6.773538580164313">
        <ele>454.36000000000001</ele>
        <time>2017-05-25T11:12:44Z</time>
      </trkpt>
      <trkpt lat="50.285072419792414" lon="6.773543022572994">
        <ele>454.36000000000001</ele>
        <time>2017-05-25T11:12:38Z</time>
      </trkpt>
      <trkpt lat="50.285074850544333" lon="6.773541430011392">
        <ele>453.88</ele>
        <time>2017-05-25T11:12:05Z</time>
      </trkpt>
      <trkpt lat="50.285080885514617" lon="6.773551069200039">
        <ele>453.88</ele>
        <time>2017-05-25T11:11:33Z</time>
      </trkpt>
      <trkpt lat="50.285050123929977" lon="6.773627763614059">
        <ele>453.39999999999998</ele>
        <time>2017-05-25T11:11:06Z</time>
      </trkpt>
      <trkpt lat="50.285035707056522" lon="6.773661458864808">
        <ele>453.88</ele>
        <time>2017-05-25T11:10:36Z</time>
      </trkpt>
      <trkpt lat="50.28504392132163" lon="6.773585015907884">
        <ele>453.39999999999998</ele>
        <time>2017-05-25T11:10:06Z</time>
      </trkpt>
      <trkpt lat="50.285041239112616" lon="6.773589123040438">
        <ele>453.39999999999998</ele>
        <time>2017-05-25T11:09:47Z</time>
      </trkpt>
      <trkpt lat="50.285039143636823" lon="6.773487953469157">
        <ele>453.88</ele>
        <time>2017-05-25T11:09:12Z</time>
      </trkpt>
      <trkpt lat="50.285034449771047" lon="6.773493066430092">
        <ele>452.92000000000002</ele>
        <time>2017-05-25T11:08:39Z</time>
      </trkpt>
      <trkpt lat="50.285074347630143" lon="6.773542184382677">
        <ele>453.39999999999998</ele>
        <time>2017-05-25T11:08:17Z</time>
      </trkpt>
      <trkpt lat="50.28509815223515" lon="6.773574287071824">
        <ele>453.88</ele>
        <time>2017-05-25T11:07:53Z</time>
      </trkpt>
      <trkpt lat="50.285075856372714" lon="6.773586105555296">
        <ele>453.39999999999998</ele>
        <time>2017-05-25T11:07:22Z</time>
      </trkpt>
      <trkpt lat="50.285069821402431" lon="6.773590045049787">
        <ele>452.92000000000002</ele>
        <time>2017-05-25T11:06:51Z</time>
      </trkpt>
      <trkpt lat="50.285059930756688" lon="6.773567413911223">
        <ele>452.92000000000002</ele>
        <time>2017-05-25T11:06:26Z</time>
      </trkpt>
      <trkpt lat="50.285077700391412" lon="6.773549392819405">
        <ele>453.39999999999998</ele>
        <time>2017-05-25T11:05:59Z</time>
      </trkpt>
      <trkpt lat="50.285056075081229" lon="6.773574873805046">
        <ele>453.39999999999998</ele>
        <time>2017-05-25T11:05:35Z</time>
      </trkpt>
      <trkpt lat="50.285060852766037" lon="6.773556349799037">
        <ele>453.39999999999998</ele>
        <time>2017-05-25T11:05:09Z</time>
      </trkpt>
      <trkpt lat="50.285045430064201" lon="6.773541430011392">
        <ele>453.88</ele>
        <time>2017-05-25T11:04:47Z</time>
      </trkpt>
      <trkpt lat="50.285044675692916" lon="6.77350371144712">
        <ele>453.39999999999998</ele>
        <time>2017-05-25T11:04:22Z</time>
      </trkpt>
      <trkpt lat="50.285043166950345" lon="6.773540340363979">
        <ele>453.39999999999998</ele>
        <time>2017-05-25T11:03:58Z</time>
      </trkpt>
      <trkpt lat="50.285068899393082" lon="6.773527348414064">
        <ele>453.39999999999998</ele>
        <time>2017-05-25T11:03:34Z</time>
      </trkpt>
      <trkpt lat="50.28506294824183" lon="6.773471273481846">
        <ele>453.88</ele>
        <time>2017-05-25T11:03:13Z</time>
      </trkpt>
      <trkpt lat="50.285044005140662" lon="6.773481918498874">
        <ele>453.39999999999998</ele>
        <time>2017-05-25T11:02:51Z</time>
      </trkpt>
      <trkpt lat="50.285052470862865" lon="6.773526929318905">
        <ele>453.39999999999998</ele>
        <time>2017-05-25T11:02:31Z</time>
      </trkpt>
      <trkpt lat="50.285066636279225" lon="6.773582333698869">
        <ele>453.39999999999998</ele>
        <time>2017-05-25T11:02:11Z</time>
      </trkpt>
      <trkpt lat="50.285055404528975" lon="6.773612089455128">
        <ele>454.36000000000001</ele>
        <time>2017-05-25T11:01:48Z</time>
      </trkpt>
      <trkpt lat="50.285077197477221" lon="6.773583507165313">
        <ele>452.92000000000002</ele>
        <time>2017-05-25T11:01:26Z</time>
      </trkpt>
      <trkpt lat="50.285067558288574" lon="6.773550901561976">
        <ele>452.92000000000002</ele>
        <time>2017-05-25T11:01:00Z</time>
      </trkpt>
      <trkpt lat="50.285069486126304" lon="6.773516116663814">
        <ele>452.92000000000002</ele>
        <time>2017-05-25T11:00:31Z</time>
      </trkpt>
      <trkpt lat="50.285036964341998" lon="6.773527096956968">
        <ele>452.92000000000002</ele>
        <time>2017-05-25T11:00:17Z</time>
      </trkpt>
      <trkpt lat="50.285064540803432" lon="6.773574370890856">
        <ele>452.92000000000002</ele>
        <time>2017-05-25T10:59:51Z</time>
      </trkpt>
      <trkpt lat="50.285074934363365" lon="6.773607982322574">
        <ele>452.44</ele>
        <time>2017-05-25T10:59:20Z</time>
      </trkpt>
      <trkpt lat="50.285061774775386" lon="6.773567162454128">
        <ele>452.44</ele>
        <time>2017-05-25T10:58:55Z</time>
      </trkpt>
      <trkpt lat="50.285051465034485" lon="6.773507818579674">
        <ele>452.44</ele>
        <time>2017-05-25T10:58:30Z</time>
      </trkpt>
      <trkpt lat="50.285056829452515" lon="6.773507483303547">
        <ele>452.44</ele>
        <time>2017-05-25T10:58:12Z</time>
      </trkpt>
      <trkpt lat="50.285067223012447" lon="6.773431291803718">
        <ele>453.39999999999998</ele>
        <time>2017-05-25T10:57:56Z</time>
      </trkpt>
      <trkpt lat="50.285076191648841" lon="6.773570599034429">
        <ele>453.88</ele>
        <time>2017-05-25T10:57:41Z</time>
      </trkpt>
      <trkpt lat="50.285074934363365" lon="6.77357655018568">
        <ele>452.92000000000002</ele>
        <time>2017-05-25T10:57:32Z</time>
      </trkpt>
      <trkpt lat="50.285103768110275" lon="6.773598343133926">
        <ele>452.92000000000002</ele>
        <time>2017-05-25T10:57:12Z</time>
      </trkpt>
      <trkpt lat="50.28508398681879" lon="6.773677719756961">
        <ele>452.92000000000002</ele>
        <time>2017-05-25T10:56:51Z</time>
      </trkpt>
      <trkpt lat="50.285079712048173" lon="6.773635391145945">
        <ele>452.92000000000002</ele>
        <time>2017-05-25T10:56:33Z</time>
      </trkpt>
      <trkpt lat="50.28508298099041" lon="6.773625332862139">
        <ele>452.92000000000002</ele>
        <time>2017-05-25T10:56:10Z</time>
      </trkpt>
      <trkpt lat="50.285075269639492" lon="6.773647712543607">
        <ele>452.92000000000002</ele>
        <time>2017-05-25T10:55:47Z</time>
      </trkpt>
      <trkpt lat="50.285086752846837" lon="6.77359557710588">
        <ele>452.44</ele>
        <time>2017-05-25T10:55:16Z</time>
      </trkpt>
      <trkpt lat="50.285101588815451" lon="6.773598594591022">
        <ele>452.92000000000002</ele>
        <time>2017-05-25T10:54:54Z</time>
      </trkpt>
      <trkpt lat="50.285090524703264" lon="6.773616950958967">
        <ele>451.95999999999998</ele>
        <time>2017-05-25T10:54:25Z</time>
      </trkpt>
      <trkpt lat="50.285056410357356" lon="6.773625416681171">
        <ele>451.95999999999998</ele>
        <time>2017-05-25T10:53:57Z</time>
      </trkpt>
      <trkpt lat="50.285043083131313" lon="6.773545453324914">
        <ele>452.44</ele>
        <time>2017-05-25T10:53:32Z</time>
      </trkpt>
      <trkpt lat="50.285040065646172" lon="6.773540675640106">
        <ele>452.44</ele>
        <time>2017-05-25T10:53:14Z</time>
      </trkpt>
      <trkpt lat="50.285059679299593" lon="6.773543441668153">
        <ele>451.95999999999998</ele>
        <time>2017-05-25T10:52:57Z</time>
      </trkpt>
      <trkpt lat="50.285040903836489" lon="6.773577136918902">
        <ele>451.95999999999998</ele>
        <time>2017-05-25T10:52:35Z</time>
      </trkpt>
      <trkpt lat="50.285034701228142" lon="6.773528354242444">
        <ele>452.44</ele>
        <time>2017-05-25T10:52:15Z</time>
      </trkpt>
      <trkpt lat="50.285049621015787" lon="6.773529276251793">
        <ele>452.44</ele>
        <time>2017-05-25T10:51:55Z</time>
      </trkpt>
      <trkpt lat="50.285063032060862" lon="6.773458700627089">
        <ele>452.44</ele>
        <time>2017-05-25T10:51:26Z</time>
      </trkpt>
      <trkpt lat="50.285045262426138" lon="6.773462221026421">
        <ele>451.95999999999998</ele>
        <time>2017-05-25T10:51:02Z</time>
      </trkpt>
      <trkpt lat="50.285043586045504" lon="6.77346364594996">
        <ele>453.88</ele>
        <time>2017-05-25T10:50:59Z</time>
      </trkpt>
      <trkpt lat="50.285031851381063" lon="6.773466831073165">
        <ele>452.44</ele>
        <time>2017-05-25T10:50:53Z</time>
      </trkpt>
      <trkpt lat="50.285030761733651" lon="6.773470183834434">
        <ele>454.83999999999997</ele>
        <time>2017-05-25T10:50:52Z</time>
      </trkpt>
      <trkpt lat="50.285030594095588" lon="6.773471189662814">
        <ele>454.83999999999997</ele>
        <time>2017-05-25T10:50:51Z</time>
      </trkpt>
      <trkpt lat="50.285047441720963" lon="6.773388627916575">
        <ele>453.39999999999998</ele>
        <time>2017-05-25T10:50:34Z</time>
      </trkpt>
      <trkpt lat="50.285057164728642" lon="6.773430034518242">
        <ele>453.39999999999998</ele>
        <time>2017-05-25T10:50:19Z</time>
      </trkpt>
      <trkpt lat="50.285157831385732" lon="6.773513266816735">
        <ele>453.39999999999998</ele>
        <time>2017-05-25T10:50:04Z</time>
      </trkpt>
      <trkpt lat="50.285172499716282" lon="6.773518966510892">
        <ele>453.39999999999998</ele>
        <time>2017-05-25T10:50:03Z</time>
      </trkpt>
      <trkpt lat="50.285432673990726" lon="6.773581663146615">
        <ele>451</ele>
        <time>2017-05-25T10:49:47Z</time>
      </trkpt>
      <trkpt lat="50.285702235996723" lon="6.773610077798367">
        <ele>449.06999999999999</ele>
        <time>2017-05-25T10:49:31Z</time>
      </trkpt>
      <trkpt lat="50.285920752212405" lon="6.773702697828412">
        <ele>447.14999999999998</ele>
        <time>2017-05-25T10:49:20Z</time>
      </trkpt>
      <trkpt lat="50.286228870972991" lon="6.773837227374315">
        <ele>446.67000000000002</ele>
        <time>2017-05-25T10:49:02Z</time>
      </trkpt>
      <trkpt lat="50.286261895671487" lon="6.773852147161961">
        <ele>445.23000000000002</ele>
        <time>2017-05-25T10:49:00Z</time>
      </trkpt>
      <trkpt lat="50.286384606733918" lon="6.773907635360956">
        <ele>446.19</ele>
        <time>2017-05-25T10:48:52Z</time>
      </trkpt>
      <trkpt lat="50.286664729937911" lon="6.774004446342588">
        <ele>445.23000000000002</ele>
        <time>2017-05-25T10:48:35Z</time>
      </trkpt>
      <trkpt lat="50.286749303340912" lon="6.774010229855776">
        <ele>445.70999999999998</ele>
        <time>2017-05-25T10:48:30Z</time>
      </trkpt>
      <trkpt lat="50.286833709105849" lon="6.773981731384993">
        <ele>445.23000000000002</ele>
        <time>2017-05-25T10:48:19Z</time>
      </trkpt>
      <trkpt lat="50.287074688822031" lon="6.774017186835408">
        <ele>444.75</ele>
        <time>2017-05-25T10:48:05Z</time>
      </trkpt>
      <trkpt lat="50.287390435114503" lon="6.774123553186655">
        <ele>444.26999999999998</ele>
        <time>2017-05-25T10:47:48Z</time>
      </trkpt>
      <trkpt lat="50.287631247192621" lon="6.774354642257094">
        <ele>444.26999999999998</ele>
        <time>2017-05-25T10:47:32Z</time>
      </trkpt>
      <trkpt lat="50.287819337099791" lon="6.774598220363259">
        <ele>443.79000000000002</ele>
        <time>2017-05-25T10:47:16Z</time>
      </trkpt>
      <trkpt lat="50.288023352622986" lon="6.77491539157927">
        <ele>443.79000000000002</ele>
        <time>2017-05-25T10:46:59Z</time>
      </trkpt>
      <trkpt lat="50.288107674568892" lon="6.775051094591618">
        <ele>443.79000000000002</ele>
        <time>2017-05-25T10:46:53Z</time>
      </trkpt>
      <trkpt lat="50.288184033706784" lon="6.775175733491778">
        <ele>444.26999999999998</ele>
        <time>2017-05-25T10:46:47Z</time>
      </trkpt>
      <trkpt lat="50.288359383121133" lon="6.775531461462379">
        <ele>443.79000000000002</ele>
        <time>2017-05-25T10:46:30Z</time>
      </trkpt>
      <trkpt lat="50.288505898788571" lon="6.775888781994581">
        <ele>444.75</ele>
        <time>2017-05-25T10:46:13Z</time>
      </trkpt>
      <trkpt lat="50.288534061983228" lon="6.776000848039985">
        <ele>444.26999999999998</ele>
        <time>2017-05-25T10:46:10Z</time>
      </trkpt>
      <trkpt lat="50.288717206567526" lon="6.776373842731118">
        <ele>444.26999999999998</ele>
        <time>2017-05-25T10:45:55Z</time>
      </trkpt>
      <trkpt lat="50.288995653390884" lon="6.776696294546127">
        <ele>444.26999999999998</ele>
        <time>2017-05-25T10:45:37Z</time>
      </trkpt>
      <trkpt lat="50.289087602868676" lon="6.776844570413232">
        <ele>444.75</ele>
        <time>2017-05-25T10:45:30Z</time>
      </trkpt>
      <trkpt lat="50.289247781038284" lon="6.777100721374154">
        <ele>444.26999999999998</ele>
        <time>2017-05-25T10:45:15Z</time>
      </trkpt>
      <trkpt lat="50.28930377215147" lon="6.777192587032914">
        <ele>443.79000000000002</ele>
        <time>2017-05-25T10:45:10Z</time>
      </trkpt>
      <trkpt lat="50.289434194564819" lon="6.777347903698683">
        <ele>444.75</ele>
        <time>2017-05-25T10:44:56Z</time>
      </trkpt>
      <trkpt lat="50.289596132934093" lon="6.777682257816196">
        <ele>444.26999999999998</ele>
        <time>2017-05-25T10:44:38Z</time>
      </trkpt>
      <trkpt lat="50.289713479578495" lon="6.777979396283627">
        <ele>444.26999999999998</ele>
        <time>2017-05-25T10:44:24Z</time>
      </trkpt>
      <trkpt lat="50.28988916426897" lon="6.778263207525015">
        <ele>444.26999999999998</ele>
        <time>2017-05-25T10:44:08Z</time>
      </trkpt>
      <trkpt lat="50.290093598887324" lon="6.778518436476588">
        <ele>444.75</ele>
        <time>2017-05-25T10:43:53Z</time>
      </trkpt>
      <trkpt lat="50.290104327723384" lon="6.778890257701278">
        <ele>444.75</ele>
        <time>2017-05-25T10:43:38Z</time>
      </trkpt>
      <trkpt lat="50.290184374898672" lon="6.779345227405429">
        <ele>444.75</ele>
        <time>2017-05-25T10:43:20Z</time>
      </trkpt>
      <trkpt lat="50.290275570005178" lon="6.779735404998064">
        <ele>445.70999999999998</ele>
        <time>2017-05-25T10:43:04Z</time>
      </trkpt>
      <trkpt lat="50.290348995476961" lon="6.779945120215416">
        <ele>446.19</ele>
        <time>2017-05-25T10:42:56Z</time>
      </trkpt>
      <trkpt lat="50.290524428710341" lon="6.780327502638102">
        <ele>446.67000000000002</ele>
        <time>2017-05-25T10:42:40Z</time>
      </trkpt>
      <trkpt lat="50.290731461718678" lon="6.780770318582654">
        <ele>447.14999999999998</ele>
        <time>2017-05-25T10:42:21Z</time>
      </trkpt>
      <trkpt lat="50.29084294103086" lon="6.781077347695828">
        <ele>447.14999999999998</ele>
        <time>2017-05-25T10:42:09Z</time>
      </trkpt>
      <trkpt lat="50.290928101167083" lon="6.781411366537213">
        <ele>445.23000000000002</ele>
        <time>2017-05-25T10:41:56Z</time>
      </trkpt>
      <trkpt lat="50.291076460853219" lon="6.781768267974258">
        <ele>443.79000000000002</ele>
        <time>2017-05-25T10:41:40Z</time>
      </trkpt>
      <trkpt lat="50.291220964863896" lon="6.782126426696777">
        <ele>442.81999999999999</ele>
        <time>2017-05-25T10:41:24Z</time>
      </trkpt>
      <trkpt lat="50.291230352595448" lon="6.782140340656042">
        <ele>445.23000000000002</ele>
        <time>2017-05-25T10:41:23Z</time>
      </trkpt>
      <trkpt lat="50.291278632357717" lon="6.782222064211965">
        <ele>442.33999999999997</ele>
        <time>2017-05-25T10:41:18Z</time>
      </trkpt>
      <trkpt lat="50.291292797774076" lon="6.782248551025987">
        <ele>440.89999999999998</ele>
        <time>2017-05-25T10:41:16Z</time>
      </trkpt>
      <trkpt lat="50.291306544095278" lon="6.782274367287755">
        <ele>442.81999999999999</ele>
        <time>2017-05-25T10:41:14Z</time>
      </trkpt>
      <trkpt lat="50.291474014520645" lon="6.782546527683735">
        <ele>439.94</ele>
        <time>2017-05-25T10:40:59Z</time>
      </trkpt>
      <trkpt lat="50.291623212397099" lon="6.782815251499414">
        <ele>438.98000000000002</ele>
        <time>2017-05-25T10:40:48Z</time>
      </trkpt>
      <trkpt lat="50.291744330897927" lon="6.783081460744143">
        <ele>438.98000000000002</ele>
        <time>2017-05-25T10:40:34Z</time>
      </trkpt>
      <trkpt lat="50.291827898472548" lon="6.783466106280685">
        <ele>438.01999999999998</ele>
        <time>2017-05-25T10:40:18Z</time>
      </trkpt>
      <trkpt lat="50.291913729161024" lon="6.783659895882011">
        <ele>438.01999999999998</ele>
        <time>2017-05-25T10:40:09Z</time>
      </trkpt>
      <trkpt lat="50.291991680860519" lon="6.783765172585845">
        <ele>438.01999999999998</ele>
        <time>2017-05-25T10:40:03Z</time>
      </trkpt>
      <trkpt lat="50.292175998911262" lon="6.784009085968137">
        <ele>438.5</ele>
        <time>2017-05-25T10:39:49Z</time>
      </trkpt>
      <trkpt lat="50.292344307526946" lon="6.784264482557774">
        <ele>438.5</ele>
        <time>2017-05-25T10:39:33Z</time>
      </trkpt>
      <trkpt lat="50.292493589222431" lon="6.784552987664938">
        <ele>438.5</ele>
        <time>2017-05-25T10:39:19Z</time>
      </trkpt>
      <trkpt lat="50.292816963046789" lon="6.784930424764752">
        <ele>437.06</ele>
        <time>2017-05-25T10:38:58Z</time>
      </trkpt>
      <trkpt lat="50.293037742376328" lon="6.785301743075252">
        <ele>436.10000000000002</ele>
        <time>2017-05-25T10:38:40Z</time>
      </trkpt>
      <trkpt lat="50.293251732364297" lon="6.785492012277246">
        <ele>436.10000000000002</ele>
        <time>2017-05-25T10:38:25Z</time>
      </trkpt>
      <trkpt lat="50.293346783146262" lon="6.785590080544353">
        <ele>436.10000000000002</ele>
        <time>2017-05-25T10:38:18Z</time>
      </trkpt>
      <trkpt lat="50.293533951044083" lon="6.785827372223139">
        <ele>435.61000000000001</ele>
        <time>2017-05-25T10:38:01Z</time>
      </trkpt>
      <trkpt lat="50.293753305450082" lon="6.786104897037149">
        <ele>435.13</ele>
        <time>2017-05-25T10:37:42Z</time>
      </trkpt>
      <trkpt lat="50.29398875311017" lon="6.786349564790726">
        <ele>435.13</ele>
        <time>2017-05-25T10:37:25Z</time>
      </trkpt>
      <trkpt lat="50.294242138043046" lon="6.786546790972352">
        <ele>434.64999999999998</ele>
        <time>2017-05-25T10:37:10Z</time>
      </trkpt>
      <trkpt lat="50.294448081403971" lon="6.786753237247467">
        <ele>435.61000000000001</ele>
        <time>2017-05-25T10:36:55Z</time>
      </trkpt>
      <trkpt lat="50.294603817164898" lon="6.786943674087524">
        <ele>434.64999999999998</ele>
        <time>2017-05-25T10:36:42Z</time>
      </trkpt>
      <trkpt lat="50.294810514897108" lon="6.787130925804377">
        <ele>434.17000000000002</ele>
        <time>2017-05-25T10:36:28Z</time>
      </trkpt>
      <trkpt lat="50.294861560687423" lon="6.787173673510552">
        <ele>434.17000000000002</ele>
        <time>2017-05-25T10:36:24Z</time>
      </trkpt>
      <trkpt lat="50.2949836011976" lon="6.787287415936589">
        <ele>434.17000000000002</ele>
        <time>2017-05-25T10:36:15Z</time>
      </trkpt>
      <trkpt lat="50.295254504308105" lon="6.787407277151942">
        <ele>434.17000000000002</ele>
        <time>2017-05-25T10:36:00Z</time>
      </trkpt>
      <trkpt lat="50.295454664155841" lon="6.787486653774977">
        <ele>433.20999999999998</ele>
        <time>2017-05-25T10:35:46Z</time>
      </trkpt>
      <trkpt lat="50.295528676360846" lon="6.787519678473473">
        <ele>433.69</ele>
        <time>2017-05-25T10:35:42Z</time>
      </trkpt>
      <trkpt lat="50.295708132907748" lon="6.78758648224175">
        <ele>433.20999999999998</ele>
        <time>2017-05-25T10:35:32Z</time>
      </trkpt>
      <trkpt lat="50.296117421239614" lon="6.787727298215032">
        <ele>432.25</ele>
        <time>2017-05-25T10:35:15Z</time>
      </trkpt>
      <trkpt lat="50.296381451189518" lon="6.787831736728549">
        <ele>432.25</ele>
        <time>2017-05-25T10:34:54Z</time>
      </trkpt>
      <trkpt lat="50.296674985438585" lon="6.78814840503037">
        <ele>432.25</ele>
        <time>2017-05-25T10:34:34Z</time>
      </trkpt>
      <trkpt lat="50.296829799190164" lon="6.788243539631367">
        <ele>431.76999999999998</ele>
        <time>2017-05-25T10:34:21Z</time>
      </trkpt>
      <trkpt lat="50.296899788081646" lon="6.788287041708827">
        <ele>431.29000000000002</ele>
        <time>2017-05-25T10:34:17Z</time>
      </trkpt>
      <trkpt lat="50.297097349539399" lon="6.788378907367587">
        <ele>431.29000000000002</ele>
        <time>2017-05-25T10:34:06Z</time>
      </trkpt>
      <trkpt lat="50.297354506328702" lon="6.788509916514158">
        <ele>431.76999999999998</ele>
        <time>2017-05-25T10:33:53Z</time>
      </trkpt>
      <trkpt lat="50.297458861023188" lon="6.788579234853387">
        <ele>431.29000000000002</ele>
        <time>2017-05-25T10:33:46Z</time>
      </trkpt>
      <trkpt lat="50.297559360042214" lon="6.788688451051712">
        <ele>431.29000000000002</ele>
        <time>2017-05-25T10:33:38Z</time>
      </trkpt>
      <trkpt lat="50.297751808539033" lon="6.788844605907798">
        <ele>430.81</ele>
        <time>2017-05-25T10:33:23Z</time>
      </trkpt>
      <trkpt lat="50.297991028055549" lon="6.788947116583586">
        <ele>430.32999999999998</ele>
        <time>2017-05-25T10:33:09Z</time>
      </trkpt>
      <trkpt lat="50.298222871497273" lon="6.7889981623739">
        <ele>430.32999999999998</ele>
        <time>2017-05-25T10:32:56Z</time>
      </trkpt>
      <trkpt lat="50.298480028286576" lon="6.78908709436655">
        <ele>430.32999999999998</ele>
        <time>2017-05-25T10:32:41Z</time>
      </trkpt>
      <trkpt lat="50.298644732683897" lon="6.789256408810616">
        <ele>430.32999999999998</ele>
        <time>2017-05-25T10:32:28Z</time>
      </trkpt>
      <trkpt lat="50.298988223075867" lon="6.789503339678049">
        <ele>428.88999999999999</ele>
        <time>2017-05-25T10:32:14Z</time>
      </trkpt>
      <trkpt lat="50.299588786438107" lon="6.79006920196116">
        <ele>428.88999999999999</ele>
        <time>2017-05-25T10:31:59Z</time>
      </trkpt>
      <trkpt lat="50.299748461693525" lon="6.790240863338113">
        <ele>428.39999999999998</ele>
        <time>2017-05-25T10:31:55Z</time>
      </trkpt>
      <trkpt lat="50.300076194107533" lon="6.790570104494691">
        <ele>427.44</ele>
        <time>2017-05-25T10:31:47Z</time>
      </trkpt>
      <trkpt lat="50.3004698920995" lon="6.790944943204522">
        <ele>426.95999999999998</ele>
        <time>2017-05-25T10:31:35Z</time>
      </trkpt>
      <trkpt lat="50.300926202908158" lon="6.791225401684642">
        <ele>427.44</ele>
        <time>2017-05-25T10:31:24Z</time>
      </trkpt>
      <trkpt lat="50.301135331392288" lon="6.791446600109339">
        <ele>426.95999999999998</ele>
        <time>2017-05-25T10:31:09Z</time>
      </trkpt>
      <trkpt lat="50.301293497905135" lon="6.791891846805811">
        <ele>426.48000000000002</ele>
        <time>2017-05-25T10:30:55Z</time>
      </trkpt>
      <trkpt lat="50.301374718546867" lon="6.79207599721849">
        <ele>426</ele>
        <time>2017-05-25T10:30:46Z</time>
      </trkpt>
      <trkpt lat="50.301559958606958" lon="6.792349414899945">
        <ele>426</ele>
        <time>2017-05-25T10:30:28Z</time>
      </trkpt>
      <trkpt lat="50.301771182566881" lon="6.792580839246512">
        <ele>426</ele>
        <time>2017-05-25T10:30:15Z</time>
      </trkpt>
      <trkpt lat="50.301955584436655" lon="6.792871104553342">
        <ele>425.04000000000002</ele>
        <time>2017-05-25T10:30:00Z</time>
      </trkpt>
      <trkpt lat="50.30220796354115" lon="6.79311384446919">
        <ele>424.07999999999998</ele>
        <time>2017-05-25T10:29:44Z</time>
      </trkpt>
      <trkpt lat="50.302406447008252" lon="6.793318195268512">
        <ele>423.12</ele>
        <time>2017-05-25T10:29:29Z</time>
      </trkpt>
      <trkpt lat="50.302464617416263" lon="6.793376281857491">
        <ele>422.63999999999999</ele>
        <time>2017-05-25T10:29:25Z</time>
      </trkpt>
      <trkpt lat="50.302641224116087" lon="6.793684987351298">
        <ele>421.68000000000001</ele>
        <time>2017-05-25T10:29:07Z</time>
      </trkpt>
      <trkpt lat="50.302702831104398" lon="6.793778948485851">
        <ele>421.19</ele>
        <time>2017-05-25T10:29:01Z</time>
      </trkpt>
      <trkpt lat="50.30293945223093" lon="6.794048091396689">
        <ele>420.23000000000002</ele>
        <time>2017-05-25T10:28:45Z</time>
      </trkpt>
      <trkpt lat="50.303263915702701" lon="6.794288316741586">
        <ele>419.75</ele>
        <time>2017-05-25T10:28:26Z</time>
      </trkpt>
      <trkpt lat="50.30334304086864" lon="6.794337350875139">
        <ele>419.75</ele>
        <time>2017-05-25T10:28:19Z</time>
      </trkpt>
      <trkpt lat="50.303608914837241" lon="6.794419074431062">
        <ele>418.79000000000002</ele>
        <time>2017-05-25T10:28:02Z</time>
      </trkpt>
      <trkpt lat="50.303647220134735" lon="6.794416392222047">
        <ele>419.75</ele>
        <time>2017-05-25T10:28:00Z</time>
      </trkpt>
      <trkpt lat="50.303871352225542" lon="6.794518399983645">
        <ele>418.31</ele>
        <time>2017-05-25T10:27:46Z</time>
      </trkpt>
      <trkpt lat="50.303878979757428" lon="6.794619485735893">
        <ele>418.31</ele>
        <time>2017-05-25T10:27:43Z</time>
      </trkpt>
      <trkpt lat="50.303778816014528" lon="6.79509767331183">
        <ele>418.31</ele>
        <time>2017-05-25T10:27:29Z</time>
      </trkpt>
      <trkpt lat="50.303731039166451" lon="6.795231197029352">
        <ele>419.26999999999998</ele>
        <time>2017-05-25T10:27:23Z</time>
      </trkpt>
      <trkpt lat="50.303757358342409" lon="6.795273441821337">
        <ele>418.79000000000002</ele>
        <time>2017-05-25T10:27:18Z</time>
      </trkpt>
      <trkpt lat="50.303905382752419" lon="6.79540797136724">
        <ele>417.35000000000002</ele>
        <time>2017-05-25T10:27:07Z</time>
      </trkpt>
      <trkpt lat="50.303973192349076" lon="6.795513415709138">
        <ele>415.91000000000003</ele>
        <time>2017-05-25T10:26:51Z</time>
      </trkpt>
      <trkpt lat="50.303952991962433" lon="6.795567311346531">
        <ele>416.38999999999999</ele>
        <time>2017-05-25T10:26:27Z</time>
      </trkpt>
      <trkpt lat="50.304032787680626" lon="6.795720448717475">
        <ele>417.35000000000002</ele>
        <time>2017-05-25T10:26:10Z</time>
      </trkpt>
      <trkpt lat="50.304052988067269" lon="6.796064442023635">
        <ele>418.31</ele>
        <time>2017-05-25T10:25:56Z</time>
      </trkpt>
      <trkpt lat="50.304144350811839" lon="6.796420672908425">
        <ele>421.19</ele>
        <time>2017-05-25T10:25:45Z</time>
      </trkpt>
      <trkpt lat="50.304157845675945" lon="6.796450009569526">
        <ele>421.19</ele>
        <time>2017-05-25T10:25:44Z</time>
      </trkpt>
      <trkpt lat="50.304188271984458" lon="6.796614797785878">
        <ele>423.12</ele>
        <time>2017-05-25T10:25:34Z</time>
      </trkpt>
      <trkpt lat="50.304237641394138" lon="6.796911768615246">
        <ele>425.51999999999998</ele>
        <time>2017-05-25T10:25:20Z</time>
      </trkpt>
      <trkpt lat="50.304243508726358" lon="6.796956779435277">
        <ele>426.48000000000002</ele>
        <time>2017-05-25T10:25:18Z</time>
      </trkpt>
      <trkpt lat="50.304252477362752" lon="6.796998102217913">
        <ele>426.95999999999998</ele>
        <time>2017-05-25T10:25:16Z</time>
      </trkpt>
      <trkpt lat="50.304273599758744" lon="6.797032551839948">
        <ele>432.73000000000002</ele>
        <time>2017-05-25T10:25:15Z</time>
      </trkpt>
      <trkpt lat="50.304276533424854" lon="6.797043113037944">
        <ele>422.63999999999999</ele>
        <time>2017-05-25T10:25:14Z</time>
      </trkpt>
      <trkpt lat="50.304326405748725" lon="6.797235477715731">
        <ele>426.95999999999998</ele>
        <time>2017-05-25T10:25:06Z</time>
      </trkpt>
      <trkpt lat="50.304468059912324" lon="6.79761802777648">
        <ele>429.85000000000002</ele>
        <time>2017-05-25T10:24:52Z</time>
      </trkpt>
      <trkpt lat="50.304520949721336" lon="6.797881973907352">
        <ele>432.25</ele>
        <time>2017-05-25T10:24:39Z</time>
      </trkpt>
      <trkpt lat="50.304545676335692" lon="6.797958500683308">
        <ele>433.20999999999998</ele>
        <time>2017-05-25T10:24:35Z</time>
      </trkpt>
      <trkpt lat="50.304585490375757" lon="6.798089258372784">
        <ele>434.17000000000002</ele>
        <time>2017-05-25T10:24:29Z</time>
      </trkpt>
      <trkpt lat="50.304576018825173" lon="6.798361083492637">
        <ele>436.10000000000002</ele>
        <time>2017-05-25T10:24:18Z</time>
      </trkpt>
      <trkpt lat="50.304604098200798" lon="6.798716560006142">
        <ele>438.98000000000002</ele>
        <time>2017-05-25T10:24:03Z</time>
      </trkpt>
      <trkpt lat="50.304722869768739" lon="6.799009004607797">
        <ele>442.33999999999997</ele>
        <time>2017-05-25T10:23:47Z</time>
      </trkpt>
      <trkpt lat="50.304815238341689" lon="6.79901696741581">
        <ele>443.31</ele>
        <time>2017-05-25T10:23:41Z</time>
      </trkpt>
      <trkpt lat="50.305010201409459" lon="6.799124507233501">
        <ele>445.70999999999998</ele>
        <time>2017-05-25T10:23:26Z</time>
      </trkpt>
      <trkpt lat="50.305234668776393" lon="6.799356434494257">
        <ele>448.58999999999997</ele>
        <time>2017-05-25T10:23:08Z</time>
      </trkpt>
      <trkpt lat="50.305446228012443" lon="6.799609065055847">
        <ele>451.95999999999998</ele>
        <time>2017-05-25T10:22:49Z</time>
      </trkpt>
      <trkpt lat="50.305609842762351" lon="6.79986035451293">
        <ele>455.31999999999999</ele>
        <time>2017-05-25T10:22:34Z</time>
      </trkpt>
      <trkpt lat="50.305738840252161" lon="6.800280958414078">
        <ele>458.20999999999998</ele>
        <time>2017-05-25T10:22:14Z</time>
      </trkpt>
      <trkpt lat="50.305837914347649" lon="6.800725450739265">
        <ele>460.13</ele>
        <time>2017-05-25T10:21:56Z</time>
      </trkpt>
      <trkpt lat="50.305928606539965" lon="6.80119140073657">
        <ele>462.05000000000001</ele>
        <time>2017-05-25T10:21:39Z</time>
      </trkpt>
      <trkpt lat="50.30597135424614" lon="6.801590714603663">
        <ele>463.49000000000001</ele>
        <time>2017-05-25T10:21:24Z</time>
      </trkpt>
      <trkpt lat="50.305994739755988" lon="6.802031686529517">
        <ele>465.42000000000002</ele>
        <time>2017-05-25T10:21:08Z</time>
      </trkpt>
      <trkpt lat="50.305979065597057" lon="6.802402585744858">
        <ele>467.33999999999997</ele>
        <time>2017-05-25T10:20:53Z</time>
      </trkpt>
      <trkpt lat="50.305972108617425" lon="6.802709111943841">
        <ele>470.69999999999999</ele>
        <time>2017-05-25T10:20:35Z</time>
      </trkpt>
      <trkpt lat="50.305997673422098" lon="6.802944643422961">
        <ele>472.13999999999999</ele>
        <time>2017-05-25T10:20:19Z</time>
      </trkpt>
      <trkpt lat="50.305921398103237" lon="6.802921006456018">
        <ele>471.66000000000003</ele>
        <time>2017-05-25T10:20:04Z</time>
      </trkpt>
      <trkpt lat="50.305892061442137" lon="6.802879767492414">
        <ele>471.66000000000003</ele>
        <time>2017-05-25T10:19:44Z</time>
      </trkpt>
      <trkpt lat="50.305904131382704" lon="6.802882952615619">
        <ele>471.66000000000003</ele>
        <time>2017-05-25T10:19:20Z</time>
      </trkpt>
      <trkpt lat="50.305931456387043" lon="6.802913462743163">
        <ele>471.18000000000001</ele>
        <time>2017-05-25T10:18:56Z</time>
      </trkpt>
      <trkpt lat="50.305958529934287" lon="6.802981691434979">
        <ele>471.18000000000001</ele>
        <time>2017-05-25T10:18:31Z</time>
      </trkpt>
      <trkpt lat="50.305962972342968" lon="6.802988396957517">
        <ele>472.13999999999999</ele>
        <time>2017-05-25T10:18:29Z</time>
      </trkpt>
      <trkpt lat="50.306002367287874" lon="6.802964173257351">
        <ele>471.18000000000001</ele>
        <time>2017-05-25T10:18:06Z</time>
      </trkpt>
      <trkpt lat="50.30598702840507" lon="6.803029468283057">
        <ele>471.66000000000003</ele>
        <time>2017-05-25T10:17:41Z</time>
      </trkpt>
      <trkpt lat="50.305985854938626" lon="6.803031312301755">
        <ele>474.06999999999999</ele>
        <time>2017-05-25T10:17:40Z</time>
      </trkpt>
      <trkpt lat="50.305986190214753" lon="6.803029384464026">
        <ele>469.74000000000001</ele>
        <time>2017-05-25T10:17:39Z</time>
      </trkpt>
      <trkpt lat="50.305985435843468" lon="6.803028378635645">
        <ele>471.18000000000001</ele>
        <time>2017-05-25T10:17:33Z</time>
      </trkpt>
      <trkpt lat="50.305997589603066" lon="6.80302619934082">
        <ele>471.66000000000003</ele>
        <time>2017-05-25T10:17:15Z</time>
      </trkpt>
      <trkpt lat="50.305971605703235" lon="6.802953109145165">
        <ele>471.66000000000003</ele>
        <time>2017-05-25T10:16:54Z</time>
      </trkpt>
      <trkpt lat="50.306037655100226" lon="6.802881862968206">
        <ele>471.66000000000003</ele>
        <time>2017-05-25T10:16:30Z</time>
      </trkpt>
      <trkpt lat="50.306010330095887" lon="6.802913378924131">
        <ele>471.18000000000001</ele>
        <time>2017-05-25T10:16:13Z</time>
      </trkpt>
      <trkpt lat="50.305962720885873" lon="6.802944224327803">
        <ele>471.18000000000001</ele>
        <time>2017-05-25T10:16:03Z</time>
      </trkpt>
      <trkpt lat="50.305989542976022" lon="6.802993845194578">
        <ele>472.13999999999999</ele>
        <time>2017-05-25T10:15:42Z</time>
      </trkpt>
      <trkpt lat="50.306078055873513" lon="6.802943553775549">
        <ele>471.66000000000003</ele>
        <time>2017-05-25T10:15:22Z</time>
      </trkpt>
      <trkpt lat="50.306066907942295" lon="6.802957216277719">
        <ele>471.66000000000003</ele>
        <time>2017-05-25T10:15:08Z</time>
      </trkpt>
      <trkpt lat="50.306035224348307" lon="6.802970627322793">
        <ele>471.66000000000003</ele>
        <time>2017-05-25T10:14:51Z</time>
      </trkpt>
      <trkpt lat="50.305978646501899" lon="6.803006837144494">
        <ele>471.18000000000001</ele>
        <time>2017-05-25T10:14:27Z</time>
      </trkpt>
      <trkpt lat="50.305988453328609" lon="6.80297439917922">
        <ele>472.13999999999999</ele>
        <time>2017-05-25T10:14:12Z</time>
      </trkpt>
      <trkpt lat="50.305966660380363" lon="6.803163327276707">
        <ele>472.63</ele>
        <time>2017-05-25T10:13:54Z</time>
      </trkpt>
      <trkpt lat="50.305909411981702" lon="6.80318838916719">
        <ele>469.25999999999999</ele>
        <time>2017-05-25T10:13:45Z</time>
      </trkpt>
      <trkpt lat="50.305968420580029" lon="6.803391985595226">
        <ele>471.66000000000003</ele>
        <time>2017-05-25T10:13:29Z</time>
      </trkpt>
      <trkpt lat="50.305859791114926" lon="6.803518971428275">
        <ele>469.25999999999999</ele>
        <time>2017-05-25T10:13:12Z</time>
      </trkpt>
      <trkpt lat="50.305738756433129" lon="6.803552079945803">
        <ele>469.74000000000001</ele>
        <time>2017-05-25T10:12:54Z</time>
      </trkpt>
      <trkpt lat="50.305484114214778" lon="6.80359834805131">
        <ele>468.30000000000001</ele>
        <time>2017-05-25T10:12:34Z</time>
      </trkpt>
      <trkpt lat="50.305266352370381" lon="6.803615028038621">
        <ele>468.77999999999997</ele>
        <time>2017-05-25T10:12:16Z</time>
      </trkpt>
      <trkpt lat="50.305136013776064" lon="6.803860785439611">
        <ele>468.77999999999997</ele>
        <time>2017-05-25T10:11:56Z</time>
      </trkpt>
      <trkpt lat="50.305085135623813" lon="6.804101010784507">
        <ele>468.77999999999997</ele>
        <time>2017-05-25T10:11:38Z</time>
      </trkpt>
      <trkpt lat="50.304882628843188" lon="6.804104363545775">
        <ele>469.25999999999999</ele>
        <time>2017-05-25T10:11:21Z</time>
      </trkpt>
      <trkpt lat="50.304795540869236" lon="6.804166389629245">
        <ele>470.69999999999999</ele>
        <time>2017-05-25T10:11:02Z</time>
      </trkpt>
      <trkpt lat="50.304792523384094" lon="6.80417250841856">
        <ele>470.69999999999999</ele>
        <time>2017-05-25T10:11:01Z</time>
      </trkpt>
      <trkpt lat="50.304699819535017" lon="6.804259512573481">
        <ele>470.69999999999999</ele>
        <time>2017-05-25T10:10:41Z</time>
      </trkpt>
      <trkpt lat="50.304629830643535" lon="6.804135460406542">
        <ele>468.77999999999997</ele>
        <time>2017-05-25T10:10:24Z</time>
      </trkpt>
      <trkpt lat="50.304685905575752" lon="6.804142165929079">
        <ele>468.77999999999997</ele>
        <time>2017-05-25T10:10:09Z</time>
      </trkpt>
      <trkpt lat="50.304754637181759" lon="6.804079469293356">
        <ele>467.33999999999997</ele>
        <time>2017-05-25T10:09:53Z</time>
      </trkpt>
      <trkpt lat="50.304723707959056" lon="6.804084246978164">
        <ele>468.30000000000001</ele>
        <time>2017-05-25T10:09:33Z</time>
      </trkpt>
      <trkpt lat="50.304678026586771" lon="6.804082738235593">
        <ele>469.25999999999999</ele>
        <time>2017-05-25T10:09:14Z</time>
      </trkpt>
      <trkpt lat="50.304554896429181" lon="6.804135628044605">
        <ele>467.81999999999999</ele>
        <time>2017-05-25T10:08:56Z</time>
      </trkpt>
      <trkpt lat="50.304500497877598" lon="6.804261775687337">
        <ele>468.30000000000001</ele>
        <time>2017-05-25T10:08:41Z</time>
      </trkpt>
      <trkpt lat="50.304513657465577" lon="6.804286586120725">
        <ele>468.30000000000001</ele>
        <time>2017-05-25T10:08:14Z</time>
      </trkpt>
      <trkpt lat="50.304512735456228" lon="6.804279796779156">
        <ele>470.22000000000003</ele>
        <time>2017-05-25T10:07:50Z</time>
      </trkpt>
      <trkpt lat="50.304531008005142" lon="6.80422036908567">
        <ele>468.30000000000001</ele>
        <time>2017-05-25T10:07:31Z</time>
      </trkpt>
      <trkpt lat="50.304486500099301" lon="6.804293962195516">
        <ele>468.77999999999997</ele>
        <time>2017-05-25T10:07:12Z</time>
      </trkpt>
      <trkpt lat="50.304459761828184" lon="6.804414410144091">
        <ele>468.30000000000001</ele>
        <time>2017-05-25T10:06:54Z</time>
      </trkpt>
      <trkpt lat="50.304399328306317" lon="6.804629992693663">
        <ele>468.30000000000001</ele>
        <time>2017-05-25T10:06:37Z</time>
      </trkpt>
      <trkpt lat="50.304376110434532" lon="6.80470216087997">
        <ele>468.77999999999997</ele>
        <time>2017-05-25T10:06:23Z</time>
      </trkpt>
      <trkpt lat="50.304362867027521" lon="6.804678356274962">
        <ele>467.81999999999999</ele>
        <time>2017-05-25T10:06:08Z</time>
      </trkpt>
      <trkpt lat="50.304425060749054" lon="6.80473493412137">
        <ele>468.30000000000001</ele>
        <time>2017-05-25T10:05:50Z</time>
      </trkpt>
      <trkpt lat="50.304447188973427" lon="6.804786482825875">
        <ele>468.30000000000001</ele>
        <time>2017-05-25T10:05:28Z</time>
      </trkpt>
      <trkpt lat="50.304441656917334" lon="6.804890669882298">
        <ele>467.33999999999997</ele>
        <time>2017-05-25T10:05:11Z</time>
      </trkpt>
      <trkpt lat="50.304411314427853" lon="6.805151095613837">
        <ele>468.30000000000001</ele>
        <time>2017-05-25T10:04:56Z</time>
      </trkpt>
      <trkpt lat="50.304394299164414" lon="6.805431470274925">
        <ele>467.33999999999997</ele>
        <time>2017-05-25T10:04:37Z</time>
      </trkpt>
      <trkpt lat="50.30438968911767" lon="6.80548888631165">
        <ele>467.33999999999997</ele>
        <time>2017-05-25T10:04:34Z</time>
      </trkpt>
      <trkpt lat="50.304356748238206" lon="6.805686531588435">
        <ele>467.33999999999997</ele>
        <time>2017-05-25T10:04:21Z</time>
      </trkpt>
      <trkpt lat="50.304324813187122" lon="6.805724669247866">
        <ele>467.81999999999999</ele>
        <time>2017-05-25T10:04:17Z</time>
      </trkpt>
      <trkpt lat="50.304278377443552" lon="6.80584704503417">
        <ele>468.77999999999997</ele>
        <time>2017-05-25T10:04:03Z</time>
      </trkpt>
      <trkpt lat="50.304368650540709" lon="6.805987693369389">
        <ele>469.74000000000001</ele>
        <time>2017-05-25T10:03:46Z</time>
      </trkpt>
      <trkpt lat="50.304300086572766" lon="6.806180728599429">
        <ele>469.74000000000001</ele>
        <time>2017-05-25T10:03:26Z</time>
      </trkpt>
      <trkpt lat="50.304264295846224" lon="6.806172514334321">
        <ele>467.81999999999999</ele>
        <time>2017-05-25T10:03:04Z</time>
      </trkpt>
      <trkpt lat="50.304233701899648" lon="6.80607913993299">
        <ele>469.25999999999999</ele>
        <time>2017-05-25T10:02:41Z</time>
      </trkpt>
      <trkpt lat="50.304137645289302" lon="6.806362112984061">
        <ele>468.77999999999997</ele>
        <time>2017-05-25T10:02:25Z</time>
      </trkpt>
      <trkpt lat="50.304122976958752" lon="6.806632932275534">
        <ele>468.30000000000001</ele>
        <time>2017-05-25T10:02:06Z</time>
      </trkpt>
      <trkpt lat="50.304097915068269" lon="6.806631339713931">
        <ele>467.81999999999999</ele>
        <time>2017-05-25T10:01:52Z</time>
      </trkpt>
      <trkpt lat="50.304128173738718" lon="6.806686660274863">
        <ele>468.77999999999997</ele>
        <time>2017-05-25T10:01:34Z</time>
      </trkpt>
      <trkpt lat="50.304083079099655" lon="6.80683309212327">
        <ele>468.30000000000001</ele>
        <time>2017-05-25T10:01:26Z</time>
      </trkpt>
      <trkpt lat="50.304028680548072" lon="6.807117573916912">
        <ele>469.25999999999999</ele>
        <time>2017-05-25T10:01:12Z</time>
      </trkpt>
      <trkpt lat="50.303993225097656" lon="6.807181779295206">
        <ele>471.18000000000001</ele>
        <time>2017-05-25T10:01:08Z</time>
      </trkpt>
      <trkpt lat="50.30398316681385" lon="6.807196279987693">
        <ele>465.42000000000002</ele>
        <time>2017-05-25T10:01:07Z</time>
      </trkpt>
      <trkpt lat="50.303897671401501" lon="6.807307843118906">
        <ele>468.77999999999997</ele>
        <time>2017-05-25T10:01:00Z</time>
      </trkpt>
      <trkpt lat="50.303887613117695" lon="6.807322092354298">
        <ele>474.06999999999999</ele>
        <time>2017-05-25T10:00:59Z</time>
      </trkpt>
      <trkpt lat="50.303874034434557" lon="6.807337263599038">
        <ele>467.33999999999997</ele>
        <time>2017-05-25T10:00:58Z</time>
      </trkpt>
      <trkpt lat="50.303688291460276" lon="6.807455196976662">
        <ele>469.25999999999999</ele>
        <time>2017-05-25T10:00:49Z</time>
      </trkpt>
      <trkpt lat="50.303607238456607" lon="6.807330558076501">
        <ele>470.69999999999999</ele>
        <time>2017-05-25T10:00:38Z</time>
      </trkpt>
      <trkpt lat="50.303484024479985" lon="6.807073652744293">
        <ele>472.13999999999999</ele>
        <time>2017-05-25T10:00:23Z</time>
      </trkpt>
      <trkpt lat="50.303467009216547" lon="6.806998467072845">
        <ele>473.11000000000001</ele>
        <time>2017-05-25T10:00:19Z</time>
      </trkpt>
      <trkpt lat="50.303473798558116" lon="6.806969633325934">
        <ele>473.58999999999997</ele>
        <time>2017-05-25T10:00:18Z</time>
      </trkpt>
      <trkpt lat="50.303455274552107" lon="6.806832673028112">
        <ele>474.55000000000001</ele>
        <time>2017-05-25T10:00:11Z</time>
      </trkpt>
      <trkpt lat="50.30344127677381" lon="6.806760085746646">
        <ele>475.02999999999997</ele>
        <time>2017-05-25T10:00:07Z</time>
      </trkpt>
      <trkpt lat="50.303411269560456" lon="6.806565541774035">
        <ele>475.99000000000001</ele>
        <time>2017-05-25T09:59:59Z</time>
      </trkpt>
      <trkpt lat="50.303392075002193" lon="6.806247951462865">
        <ele>476.94999999999999</ele>
        <time>2017-05-25T09:59:47Z</time>
      </trkpt>
      <trkpt lat="50.303272884339094" lon="6.80588317103684">
        <ele>477.91000000000003</ele>
        <time>2017-05-25T09:59:35Z</time>
      </trkpt>
      <trkpt lat="50.303134582936764" lon="6.805533394217491">
        <ele>477.43000000000001</ele>
        <time>2017-05-25T09:59:23Z</time>
      </trkpt>
      <trkpt lat="50.303097367286682" lon="6.8054258543998">
        <ele>477.43000000000001</ele>
        <time>2017-05-25T09:59:15Z</time>
      </trkpt>
      <trkpt lat="50.302939368411899" lon="6.805216306820512">
        <ele>477.91000000000003</ele>
        <time>2017-05-25T09:59:02Z</time>
      </trkpt>
      <trkpt lat="50.30274054966867" lon="6.805051267147064">
        <ele>478.38999999999999</ele>
        <time>2017-05-25T09:58:47Z</time>
      </trkpt>
      <trkpt lat="50.302507365122437" lon="6.804861333221197">
        <ele>477.43000000000001</ele>
        <time>2017-05-25T09:58:32Z</time>
      </trkpt>
      <trkpt lat="50.302471909672022" lon="6.804816741496325">
        <ele>477.91000000000003</ele>
        <time>2017-05-25T09:58:29Z</time>
      </trkpt>
      <trkpt lat="50.302210981026292" lon="6.804759241640568">
        <ele>477.91000000000003</ele>
        <time>2017-05-25T09:58:13Z</time>
      </trkpt>
      <trkpt lat="50.302153900265694" lon="6.804762426763773">
        <ele>477.91000000000003</ele>
        <time>2017-05-25T09:58:10Z</time>
      </trkpt>
      <trkpt lat="50.301853241398931" lon="6.804762091487646">
        <ele>478.38999999999999</ele>
        <time>2017-05-25T09:57:54Z</time>
      </trkpt>
      <trkpt lat="50.301805045455694" lon="6.804698975756764">
        <ele>476.47000000000003</ele>
        <time>2017-05-25T09:57:52Z</time>
      </trkpt>
      <trkpt lat="50.301741762086749" lon="6.804613983258605">
        <ele>477.91000000000003</ele>
        <time>2017-05-25T09:57:45Z</time>
      </trkpt>
      <trkpt lat="50.301568591967225" lon="6.804602248594165">
        <ele>477.43000000000001</ele>
        <time>2017-05-25T09:57:30Z</time>
      </trkpt>
      <trkpt lat="50.30129861086607" lon="6.804714063182473">
        <ele>476.47000000000003</ele>
        <time>2017-05-25T09:57:15Z</time>
      </trkpt>
      <trkpt lat="50.301049835979939" lon="6.804669471457601">
        <ele>476.94999999999999</ele>
        <time>2017-05-25T09:56:59Z</time>
      </trkpt>
      <trkpt lat="50.300826206803322" lon="6.804794110357761">
        <ele>477.43000000000001</ele>
        <time>2017-05-25T09:56:44Z</time>
      </trkpt>
      <trkpt lat="50.300481375306845" lon="6.804845239967108">
        <ele>476.94999999999999</ele>
        <time>2017-05-25T09:56:25Z</time>
      </trkpt>
      <trkpt lat="50.300292782485485" lon="6.804925203323364">
        <ele>476.94999999999999</ele>
        <time>2017-05-25T09:56:11Z</time>
      </trkpt>
      <trkpt lat="50.300221955403686" lon="6.805240698158741">
        <ele>476.94999999999999</ele>
        <time>2017-05-25T09:55:57Z</time>
      </trkpt>
      <trkpt lat="50.300241988152266" lon="6.805655686184764">
        <ele>476.94999999999999</ele>
        <time>2017-05-25T09:55:41Z</time>
      </trkpt>
      <trkpt lat="50.300307953730226" lon="6.806001272052527">
        <ele>475.99000000000001</ele>
        <time>2017-05-25T09:55:27Z</time>
      </trkpt>
      <trkpt lat="50.300246262922883" lon="6.80618810467422">
        <ele>476.47000000000003</ele>
        <time>2017-05-25T09:55:18Z</time>
      </trkpt>
      <trkpt lat="50.300160516053438" lon="6.806347109377384">
        <ele>476.47000000000003</ele>
        <time>2017-05-25T09:55:04Z</time>
      </trkpt>
      <trkpt lat="50.300038475543261" lon="6.806488763540983">
        <ele>476.47000000000003</ele>
        <time>2017-05-25T09:54:46Z</time>
      </trkpt>
      <trkpt lat="50.299906292930245" lon="6.806731000542641">
        <ele>476.47000000000003</ele>
        <time>2017-05-25T09:54:31Z</time>
      </trkpt>
      <trkpt lat="50.299886176362634" lon="6.806766455993056">
        <ele>476.47000000000003</ele>
        <time>2017-05-25T09:54:29Z</time>
      </trkpt>
      <trkpt lat="50.299885086715221" lon="6.807067282497883">
        <ele>476.94999999999999</ele>
        <time>2017-05-25T09:54:17Z</time>
      </trkpt>
      <trkpt lat="50.299881063401699" lon="6.807206338271499">
        <ele>476.47000000000003</ele>
        <time>2017-05-25T09:54:10Z</time>
      </trkpt>
      <trkpt lat="50.299881817772985" lon="6.807226622477174">
        <ele>475.99000000000001</ele>
        <time>2017-05-25T09:54:09Z</time>
      </trkpt>
      <trkpt lat="50.299868155270815" lon="6.807688297703862">
        <ele>475.99000000000001</ele>
        <time>2017-05-25T09:53:51Z</time>
      </trkpt>
      <trkpt lat="50.299849547445774" lon="6.807717382907867">
        <ele>475.50999999999999</ele>
        <time>2017-05-25T09:53:49Z</time>
      </trkpt>
      <trkpt lat="50.299736727029085" lon="6.807942101731896">
        <ele>475.99000000000001</ele>
        <time>2017-05-25T09:53:35Z</time>
      </trkpt>
      <trkpt lat="50.299671348184347" lon="6.808310737833381">
        <ele>475.99000000000001</ele>
        <time>2017-05-25T09:53:18Z</time>
      </trkpt>
      <trkpt lat="50.299578309059143" lon="6.808622712269425">
        <ele>475.99000000000001</ele>
        <time>2017-05-25T09:53:02Z</time>
      </trkpt>
      <trkpt lat="50.299485856667161" lon="6.809017080813646">
        <ele>475.02999999999997</ele>
        <time>2017-05-25T09:52:46Z</time>
      </trkpt>
      <trkpt lat="50.299380663782358" lon="6.809576991945505">
        <ele>475.02999999999997</ele>
        <time>2017-05-25T09:52:32Z</time>
      </trkpt>
      <trkpt lat="50.299295419827104" lon="6.8098518345505">
        <ele>475.02999999999997</ele>
        <time>2017-05-25T09:52:18Z</time>
      </trkpt>
      <trkpt lat="50.299262730404735" lon="6.810132628306747">
        <ele>475.02999999999997</ele>
        <time>2017-05-25T09:52:04Z</time>
      </trkpt>
      <trkpt lat="50.299205565825105" lon="6.810476705431938">
        <ele>476.47000000000003</ele>
        <time>2017-05-25T09:51:51Z</time>
      </trkpt>
      <trkpt lat="50.299186622723937" lon="6.810601931065321">
        <ele>476.94999999999999</ele>
        <time>2017-05-25T09:51:46Z</time>
      </trkpt>
      <trkpt lat="50.299152927473187" lon="6.81075188331306">
        <ele>477.43000000000001</ele>
        <time>2017-05-25T09:51:40Z</time>
      </trkpt>
      <trkpt lat="50.299136247485876" lon="6.810866547748447">
        <ele>478.38999999999999</ele>
        <time>2017-05-25T09:51:34Z</time>
      </trkpt>
      <trkpt lat="50.299140941351652" lon="6.810940224677324">
        <ele>478.38999999999999</ele>
        <time>2017-05-25T09:51:29Z</time>
      </trkpt>
      <trkpt lat="50.299142533913255" lon="6.810955563560128">
        <ele>478.38999999999999</ele>
        <time>2017-05-25T09:51:28Z</time>
      </trkpt>
      <trkpt lat="50.299155693501234" lon="6.81115647777915">
        <ele>480.31999999999999</ele>
        <time>2017-05-25T09:51:15Z</time>
      </trkpt>
      <trkpt lat="50.299261640757322" lon="6.811461914330721">
        <ele>482.24000000000001</ele>
        <time>2017-05-25T09:51:01Z</time>
      </trkpt>
      <trkpt lat="50.299316458404064" lon="6.81177363730967">
        <ele>483.68000000000001</ele>
        <time>2017-05-25T09:50:47Z</time>
      </trkpt>
      <trkpt lat="50.299271531403065" lon="6.812055688351393">
        <ele>484.16000000000003</ele>
        <time>2017-05-25T09:50:38Z</time>
      </trkpt>
      <trkpt lat="50.299244876950979" lon="6.812397250905633">
        <ele>486.07999999999998</ele>
        <time>2017-05-25T09:50:22Z</time>
      </trkpt>
      <trkpt lat="50.299254851415753" lon="6.812542257830501">
        <ele>488.00999999999999</ele>
        <time>2017-05-25T09:50:15Z</time>
      </trkpt>
      <trkpt lat="50.299274045974016" lon="6.812707548961043">
        <ele>488.49000000000001</ele>
        <time>2017-05-25T09:50:07Z</time>
      </trkpt>
      <trkpt lat="50.299279578030109" lon="6.812997478991747">
        <ele>490.88999999999999</ele>
        <time>2017-05-25T09:49:57Z</time>
      </trkpt>
      <trkpt lat="50.299250576645136" lon="6.813292941078544">
        <ele>494.25999999999999</ele>
        <time>2017-05-25T09:49:42Z</time>
      </trkpt>
      <trkpt lat="50.299212690442801" lon="6.813237955793738">
        <ele>492.81</ele>
        <time>2017-05-25T09:49:37Z</time>
      </trkpt>
      <trkpt lat="50.299073131754994" lon="6.812955234199762">
        <ele>492.32999999999998</ele>
        <time>2017-05-25T09:49:22Z</time>
      </trkpt>
      <trkpt lat="50.298969447612762" lon="6.812905110418797">
        <ele>491.85000000000002</ele>
        <time>2017-05-25T09:49:03Z</time>
      </trkpt>
      <trkpt lat="50.298947403207421" lon="6.812703274190426">
        <ele>492.32999999999998</ele>
        <time>2017-05-25T09:48:47Z</time>
      </trkpt>
      <trkpt lat="50.298797283321619" lon="6.812462965026498">
        <ele>490.88999999999999</ele>
        <time>2017-05-25T09:48:32Z</time>
      </trkpt>
      <trkpt lat="50.298633081838489" lon="6.812161467969418">
        <ele>490.88999999999999</ele>
        <time>2017-05-25T09:48:16Z</time>
      </trkpt>
      <trkpt lat="50.298400148749352" lon="6.812066165730357">
        <ele>491.37</ele>
        <time>2017-05-25T09:48:00Z</time>
      </trkpt>
      <trkpt lat="50.298244748264551" lon="6.812279988080263">
        <ele>493.76999999999998</ele>
        <time>2017-05-25T09:47:45Z</time>
      </trkpt>
      <trkpt lat="50.29818456619978" lon="6.812444608658552">
        <ele>496.66000000000003</ele>
        <time>2017-05-25T09:47:37Z</time>
      </trkpt>
      <trkpt lat="50.298055065795779" lon="6.812727665528655">
        <ele>499.06</ele>
        <time>2017-05-25T09:47:23Z</time>
      </trkpt>
      <trkpt lat="50.297953896224499" lon="6.813076855614781">
        <ele>500.5</ele>
        <time>2017-05-25T09:47:06Z</time>
      </trkpt>
      <trkpt lat="50.297825150191784" lon="6.813465775921941">
        <ele>502.91000000000003</ele>
        <time>2017-05-25T09:46:48Z</time>
      </trkpt>
      <trkpt lat="50.297741666436195" lon="6.813920326530933">
        <ele>505.31</ele>
        <time>2017-05-25T09:46:32Z</time>
      </trkpt>
      <trkpt lat="50.29765248298645" lon="6.814497169107199">
        <ele>507.70999999999998</ele>
        <time>2017-05-25T09:46:11Z</time>
      </trkpt>
      <trkpt lat="50.297604706138372" lon="6.814985079690814">
        <ele>508.67000000000002</ele>
        <time>2017-05-25T09:45:53Z</time>
      </trkpt>
      <trkpt lat="50.297532705590129" lon="6.815363606438041">
        <ele>509.63999999999999</ele>
        <time>2017-05-25T09:45:34Z</time>
      </trkpt>
      <trkpt lat="50.297500183805823" lon="6.815666360780597">
        <ele>511.07999999999998</ele>
        <time>2017-05-25T09:45:18Z</time>
      </trkpt>
      <trkpt lat="50.297464225441217" lon="6.816007504239678">
        <ele>512.51999999999998</ele>
        <time>2017-05-25T09:45:02Z</time>
      </trkpt>
      <trkpt lat="50.297450479120016" lon="6.816223338246346">
        <ele>513</ele>
        <time>2017-05-25T09:44:53Z</time>
      </trkpt>
      <trkpt lat="50.297443689778447" lon="6.816657688468695">
        <ele>514.44000000000005</ele>
        <time>2017-05-25T09:44:36Z</time>
      </trkpt>
      <trkpt lat="50.297441342845559" lon="6.817123470827937">
        <ele>514.44000000000005</ele>
        <time>2017-05-25T09:44:17Z</time>
      </trkpt>
      <trkpt lat="50.297379735857248" lon="6.817534686997533">
        <ele>513.96000000000004</ele>
        <time>2017-05-25T09:44:00Z</time>
      </trkpt>
      <trkpt lat="50.297305639833212" lon="6.817986555397511">
        <ele>515.88</ele>
        <time>2017-05-25T09:43:42Z</time>
      </trkpt>
      <trkpt lat="50.2973045501858" lon="6.818084875121713">
        <ele>515.39999999999998</ele>
        <time>2017-05-25T09:43:38Z</time>
      </trkpt>
      <trkpt lat="50.297303292900324" lon="6.818107590079308">
        <ele>516.37</ele>
        <time>2017-05-25T09:43:37Z</time>
      </trkpt>
      <trkpt lat="50.29732852242887" lon="6.818576557561755">
        <ele>517.33000000000004</ele>
        <time>2017-05-25T09:43:19Z</time>
      </trkpt>
      <trkpt lat="50.297368671745062" lon="6.819051476195455">
        <ele>516.85000000000002</ele>
        <time>2017-05-25T09:43:00Z</time>
      </trkpt>
      <trkpt lat="50.297350818291306" lon="6.819535112008452">
        <ele>517.33000000000004</ele>
        <time>2017-05-25T09:42:41Z</time>
      </trkpt>
      <trkpt lat="50.297378562390804" lon="6.819604597985745">
        <ele>517.33000000000004</ele>
        <time>2017-05-25T09:42:22Z</time>
      </trkpt>
      <trkpt lat="50.297369258478284" lon="6.819686740636826">
        <ele>517.33000000000004</ele>
        <time>2017-05-25T09:41:55Z</time>
      </trkpt>
      <trkpt lat="50.297365821897984" lon="6.81962345726788">
        <ele>516.85000000000002</ele>
        <time>2017-05-25T09:41:30Z</time>
      </trkpt>
      <trkpt lat="50.297353584319353" lon="6.819665534421802">
        <ele>517.33000000000004</ele>
        <time>2017-05-25T09:41:05Z</time>
      </trkpt>
      <trkpt lat="50.297379149124026" lon="6.819673581048846">
        <ele>516.85000000000002</ele>
        <time>2017-05-25T09:40:28Z</time>
      </trkpt>
      <trkpt lat="50.297375880181789" lon="6.819653632119298">
        <ele>517.33000000000004</ele>
        <time>2017-05-25T09:39:54Z</time>
      </trkpt>
      <trkpt lat="50.297421477735043" lon="6.819630917161703">
        <ele>517.33000000000004</ele>
        <time>2017-05-25T09:39:31Z</time>
      </trkpt>
      <trkpt lat="50.297342939302325" lon="6.819535363465548">
        <ele>517.80999999999995</ele>
        <time>2017-05-25T09:39:16Z</time>
      </trkpt>
      <trkpt lat="50.297278314828873" lon="6.819594036787748">
        <ele>518.28999999999996</ele>
        <time>2017-05-25T09:39:11Z</time>
      </trkpt>
      <trkpt lat="50.297008333727717" lon="6.819927636533976">
        <ele>520.69000000000005</ele>
        <time>2017-05-25T09:38:50Z</time>
      </trkpt>
      <trkpt lat="50.296661825850606" lon="6.82013064622879">
        <ele>520.69000000000005</ele>
        <time>2017-05-25T09:38:29Z</time>
      </trkpt>
      <trkpt lat="50.29645043425262" lon="6.820304067805409">
        <ele>520.21000000000004</ele>
        <time>2017-05-25T09:38:15Z</time>
      </trkpt>
      <trkpt lat="50.296231415122747" lon="6.820549573749304">
        <ele>519.25</ele>
        <time>2017-05-25T09:38:00Z</time>
      </trkpt>
      <trkpt lat="50.296145416796207" lon="6.820661807432771">
        <ele>518.76999999999998</ele>
        <time>2017-05-25T09:37:53Z</time>
      </trkpt>
      <trkpt lat="50.29599747620523" lon="6.820824164897203">
        <ele>518.28999999999996</ele>
        <time>2017-05-25T09:37:42Z</time>
      </trkpt>
      <trkpt lat="50.295780887827277" lon="6.821036478504539">
        <ele>518.28999999999996</ele>
        <time>2017-05-25T09:37:25Z</time>
      </trkpt>
      <trkpt lat="50.295525155961514" lon="6.821263963356614">
        <ele>518.76999999999998</ele>
        <time>2017-05-25T09:37:07Z</time>
      </trkpt>
      <trkpt lat="50.295283924788237" lon="6.821456076577306">
        <ele>516.85000000000002</ele>
        <time>2017-05-25T09:36:51Z</time>
      </trkpt>
      <trkpt lat="50.295090219005942" lon="6.821680208668113">
        <ele>515.88</ele>
        <time>2017-05-25T09:36:35Z</time>
      </trkpt>
      <trkpt lat="50.294842198491096" lon="6.822019508108497">
        <ele>515.39999999999998</ele>
        <time>2017-05-25T09:36:15Z</time>
      </trkpt>
      <trkpt lat="50.294606164097786" lon="6.82238956913352">
        <ele>514.91999999999996</ele>
        <time>2017-05-25T09:35:54Z</time>
      </trkpt>
      <trkpt lat="50.294491248205304" lon="6.822833474725485">
        <ele>514.91999999999996</ele>
        <time>2017-05-25T09:35:36Z</time>
      </trkpt>
      <trkpt lat="50.294223446398973" lon="6.823264388367534">
        <ele>515.39999999999998</ele>
        <time>2017-05-25T09:35:13Z</time>
      </trkpt>
      <trkpt lat="50.293962685391307" lon="6.823349464684725">
        <ele>516.37</ele>
        <time>2017-05-25T09:34:56Z</time>
      </trkpt>
      <trkpt lat="50.293715838342905" lon="6.823352482169867">
        <ele>517.33000000000004</ele>
        <time>2017-05-25T09:34:41Z</time>
      </trkpt>
      <trkpt lat="50.293479552492499" lon="6.823703935369849">
        <ele>518.28999999999996</ele>
        <time>2017-05-25T09:34:21Z</time>
      </trkpt>
      <trkpt lat="50.293216528370976" lon="6.824119342491031">
        <ele>520.21000000000004</ele>
        <time>2017-05-25T09:33:58Z</time>
      </trkpt>
      <trkpt lat="50.293004885315895" lon="6.824463000521064">
        <ele>521.64999999999998</ele>
        <time>2017-05-25T09:33:40Z</time>
      </trkpt>
      <trkpt lat="50.292808581143618" lon="6.824845047667623">
        <ele>522.13</ele>
        <time>2017-05-25T09:33:20Z</time>
      </trkpt>
      <trkpt lat="50.292679332196712" lon="6.825390961021185">
        <ele>522.13</ele>
        <time>2017-05-25T09:32:57Z</time>
      </trkpt>
      <trkpt lat="50.292551005259156" lon="6.825902424752712">
        <ele>521.64999999999998</ele>
        <time>2017-05-25T09:32:36Z</time>
      </trkpt>
      <trkpt lat="50.292358640581369" lon="6.826509358361363">
        <ele>522.13</ele>
        <time>2017-05-25T09:32:11Z</time>
      </trkpt>
      <trkpt lat="50.292176250368357" lon="6.82697975076735">
        <ele>522.61000000000001</ele>
        <time>2017-05-25T09:31:49Z</time>
      </trkpt>
      <trkpt lat="50.291970139369369" lon="6.827481240034103">
        <ele>522.61000000000001</ele>
        <time>2017-05-25T09:31:26Z</time>
      </trkpt>
      <trkpt lat="50.291775679215789" lon="6.827985411509872">
        <ele>523.58000000000004</ele>
        <time>2017-05-25T09:31:04Z</time>
      </trkpt>
      <trkpt lat="50.29156906530261" lon="6.828466700389981">
        <ele>525.01999999999998</ele>
        <time>2017-05-25T09:30:41Z</time>
      </trkpt>
      <trkpt lat="50.291323894634843" lon="6.828943295404315">
        <ele>525.5</ele>
        <time>2017-05-25T09:30:18Z</time>
      </trkpt>
      <trkpt lat="50.291007226333022" lon="6.829210091382265">
        <ele>525.98000000000002</ele>
        <time>2017-05-25T09:29:57Z</time>
      </trkpt>
      <trkpt lat="50.290685528889298" lon="6.829500440508127">
        <ele>525.98000000000002</ele>
        <time>2017-05-25T09:29:34Z</time>
      </trkpt>
      <trkpt lat="50.290670860558748" lon="6.829515444114804">
        <ele>528.86000000000001</ele>
        <time>2017-05-25T09:29:33Z</time>
      </trkpt>
      <trkpt lat="50.290630459785461" lon="6.82956607080996">
        <ele>525.5</ele>
        <time>2017-05-25T09:29:30Z</time>
      </trkpt>
      <trkpt lat="50.290545970201492" lon="6.829641591757536">
        <ele>526.94000000000005</ele>
        <time>2017-05-25T09:29:24Z</time>
      </trkpt>
      <trkpt lat="50.290214298292994" lon="6.829919619485736">
        <ele>527.41999999999996</ele>
        <time>2017-05-25T09:29:01Z</time>
      </trkpt>
      <trkpt lat="50.290199629962444" lon="6.829930432140827">
        <ele>531.75</ele>
        <time>2017-05-25T09:29:00Z</time>
      </trkpt>
      <trkpt lat="50.290184458717704" lon="6.829942166805267">
        <ele>525.98000000000002</ele>
        <time>2017-05-25T09:28:59Z</time>
      </trkpt>
      <trkpt lat="50.290064848959446" lon="6.83001609519124">
        <ele>528.86000000000001</ele>
        <time>2017-05-25T09:28:51Z</time>
      </trkpt>
      <trkpt lat="50.289977006614208" lon="6.830114582553506">
        <ele>528.86000000000001</ele>
        <time>2017-05-25T09:28:45Z</time>
      </trkpt>
      <trkpt lat="50.28997516259551" lon="6.830165293067694">
        <ele>529.34000000000003</ele>
        <time>2017-05-25T09:28:43Z</time>
      </trkpt>
      <trkpt lat="50.290206167846918" lon="6.830611797049642">
        <ele>527.89999999999998</ele>
        <time>2017-05-25T09:28:29Z</time>
      </trkpt>
      <trkpt lat="50.290601626038551" lon="6.831288719549775">
        <ele>524.05999999999995</ele>
        <time>2017-05-25T09:28:13Z</time>
      </trkpt>
      <trkpt lat="50.290731126442552" lon="6.831494746729732">
        <ele>523.09000000000003</ele>
        <time>2017-05-25T09:28:08Z</time>
      </trkpt>
      <trkpt lat="50.290881749242544" lon="6.831740671768785">
        <ele>520.69000000000005</ele>
        <time>2017-05-25T09:28:02Z</time>
      </trkpt>
      <trkpt lat="50.29113513417542" lon="6.83218214660883">
        <ele>517.80999999999995</ele>
        <time>2017-05-25T09:27:51Z</time>
      </trkpt>
      <trkpt lat="50.291154412552714" lon="6.832219865173101">
        <ele>517.80999999999995</ele>
        <time>2017-05-25T09:27:50Z</time>
      </trkpt>
      <trkpt lat="50.291412491351366" lon="6.832625381648541">
        <ele>514.44000000000005</ele>
        <time>2017-05-25T09:27:36Z</time>
      </trkpt>
      <trkpt lat="50.291595971211791" lon="6.83299133554101">
        <ele>511.07999999999998</ele>
        <time>2017-05-25T09:27:27Z</time>
      </trkpt>
      <trkpt lat="50.291637293994427" lon="6.833085799589753">
        <ele>510.12</ele>
        <time>2017-05-25T09:27:25Z</time>
      </trkpt>
      <trkpt lat="50.291814152151346" lon="6.833490058779717">
        <ele>506.75</ele>
        <time>2017-05-25T09:27:16Z</time>
      </trkpt>
      <trkpt lat="50.292031411081553" lon="6.833998337388039">
        <ele>503.87</ele>
        <time>2017-05-25T09:27:05Z</time>
      </trkpt>
      <trkpt lat="50.292286556214094" lon="6.834620861336589">
        <ele>500.5</ele>
        <time>2017-05-25T09:26:52Z</time>
      </trkpt>
      <trkpt lat="50.292482441291213" lon="6.83502646163106">
        <ele>497.13999999999999</ele>
        <time>2017-05-25T09:26:39Z</time>
      </trkpt>
      <trkpt lat="50.292669860646129" lon="6.835489058867097">
        <ele>494.74000000000001</ele>
        <time>2017-05-25T09:26:22Z</time>
      </trkpt>
      <trkpt lat="50.292781507596374" lon="6.835748143494129">
        <ele>494.25999999999999</ele>
        <time>2017-05-25T09:26:09Z</time>
      </trkpt>
      <trkpt lat="50.292826099321246" lon="6.836065566167235">
        <ele>493.29000000000002</ele>
        <time>2017-05-25T09:25:57Z</time>
      </trkpt>
      <trkpt lat="50.292757283896208" lon="6.836442919448018">
        <ele>492.81</ele>
        <time>2017-05-25T09:25:42Z</time>
      </trkpt>
      <trkpt lat="50.292684948071837" lon="6.837011883035302">
        <ele>492.32999999999998</ele>
        <time>2017-05-25T09:25:20Z</time>
      </trkpt>
      <trkpt lat="50.292554358020425" lon="6.837504738941789">
        <ele>492.32999999999998</ele>
        <time>2017-05-25T09:24:59Z</time>
      </trkpt>
      <trkpt lat="50.292384373024106" lon="6.837866250425577">
        <ele>491.85000000000002</ele>
        <time>2017-05-25T09:24:42Z</time>
      </trkpt>
      <trkpt lat="50.292225452139974" lon="6.838255506008863">
        <ele>491.85000000000002</ele>
        <time>2017-05-25T09:24:25Z</time>
      </trkpt>
      <trkpt lat="50.291993273422122" lon="6.838679127395153">
        <ele>492.32999999999998</ele>
        <time>2017-05-25T09:24:05Z</time>
      </trkpt>
      <trkpt lat="50.292068375274539" lon="6.839000405743718">
        <ele>491.85000000000002</ele>
        <time>2017-05-25T09:23:49Z</time>
      </trkpt>
      <trkpt lat="50.292385127395391" lon="6.839292263612151">
        <ele>491.85000000000002</ele>
        <time>2017-05-25T09:23:27Z</time>
      </trkpt>
      <trkpt lat="50.292617976665497" lon="6.839523101225495">
        <ele>492.81</ele>
        <time>2017-05-25T09:23:10Z</time>
      </trkpt>
      <trkpt lat="50.292798774316907" lon="6.839841529726982">
        <ele>495.69999999999999</ele>
        <time>2017-05-25T09:22:53Z</time>
      </trkpt>
      <trkpt lat="50.29298996552825" lon="6.840276634320617">
        <ele>498.10000000000002</ele>
        <time>2017-05-25T09:22:32Z</time>
      </trkpt>
      <trkpt lat="50.293299341574311" lon="6.840334637090564">
        <ele>500.98000000000002</ele>
        <time>2017-05-25T09:22:12Z</time>
      </trkpt>
      <trkpt lat="50.293595306575298" lon="6.840289877727628">
        <ele>503.38999999999999</ele>
        <time>2017-05-25T09:21:53Z</time>
      </trkpt>
      <trkpt lat="50.293912310153246" lon="6.840266240760684">
        <ele>504.82999999999998</ele>
        <time>2017-05-25T09:21:33Z</time>
      </trkpt>
      <trkpt lat="50.294216740876436" lon="6.840239251032472">
        <ele>505.79000000000002</ele>
        <time>2017-05-25T09:21:14Z</time>
      </trkpt>
      <trkpt lat="50.294508347287774" lon="6.8402498960495">
        <ele>507.23000000000002</ele>
        <time>2017-05-25T09:20:56Z</time>
      </trkpt>
      <trkpt lat="50.294693168252707" lon="6.84045952744782">
        <ele>507.70999999999998</ele>
        <time>2017-05-25T09:20:40Z</time>
      </trkpt>
      <trkpt lat="50.294745722785592" lon="6.840964537113905">
        <ele>511.07999999999998</ele>
        <time>2017-05-25T09:20:20Z</time>
      </trkpt>
      <trkpt lat="50.294744214043021" lon="6.841080542653799">
        <ele>512.51999999999998</ele>
        <time>2017-05-25T09:20:15Z</time>
      </trkpt>
      <trkpt lat="50.294731976464391" lon="6.841221861541271">
        <ele>513.48000000000002</ele>
        <time>2017-05-25T09:20:08Z</time>
      </trkpt>
      <trkpt lat="50.294694509357214" lon="6.841405257582665">
        <ele>516.85000000000002</ele>
        <time>2017-05-25T09:20:00Z</time>
      </trkpt>
      <trkpt lat="50.294687887653708" lon="6.841457476839423">
        <ele>513</ele>
        <time>2017-05-25T09:19:58Z</time>
      </trkpt>
      <trkpt lat="50.294668776914477" lon="6.841590078547597">
        <ele>515.88</ele>
        <time>2017-05-25T09:19:52Z</time>
      </trkpt>
      <trkpt lat="50.29463273473084" lon="6.841633999720216">
        <ele>516.85000000000002</ele>
        <time>2017-05-25T09:19:47Z</time>
      </trkpt>
      <trkpt lat="50.294567523524165" lon="6.842012107372284">
        <ele>520.21000000000004</ele>
        <time>2017-05-25T09:19:30Z</time>
      </trkpt>
      <trkpt lat="50.294485967606306" lon="6.842421647161245">
        <ele>523.58000000000004</ele>
        <time>2017-05-25T09:19:14Z</time>
      </trkpt>
      <trkpt lat="50.294410027563572" lon="6.8427072186023">
        <ele>526.94000000000005</ele>
        <time>2017-05-25T09:18:59Z</time>
      </trkpt>
      <trkpt lat="50.294176926836371" lon="6.843003937974572">
        <ele>526.94000000000005</ele>
        <time>2017-05-25T09:18:43Z</time>
      </trkpt>
      <trkpt lat="50.293888924643397" lon="6.843156237155199">
        <ele>528.38</ele>
        <time>2017-05-25T09:18:24Z</time>
      </trkpt>
      <trkpt lat="50.293689938262105" lon="6.843394786119461">
        <ele>529.82000000000005</ele>
        <time>2017-05-25T09:18:09Z</time>
      </trkpt>
      <trkpt lat="50.293456166982651" lon="6.843602489680052">
        <ele>530.29999999999995</ele>
        <time>2017-05-25T09:17:53Z</time>
      </trkpt>
      <trkpt lat="50.293285762891173" lon="6.843709107488394">
        <ele>532.23000000000002</ele>
        <time>2017-05-25T09:17:39Z</time>
      </trkpt>
      <trkpt lat="50.293123321607709" lon="6.843799632042646">
        <ele>533.66999999999996</ele>
        <time>2017-05-25T09:17:27Z</time>
      </trkpt>
      <trkpt lat="50.292929532006383" lon="6.843964252620935">
        <ele>535.11000000000001</ele>
        <time>2017-05-25T09:17:14Z</time>
      </trkpt>
      <trkpt lat="50.292881755158305" lon="6.844019992277026">
        <ele>535.11000000000001</ele>
        <time>2017-05-25T09:17:12Z</time>
      </trkpt>
      <trkpt lat="50.292672459036112" lon="6.844242699444294">
        <ele>536.07000000000005</ele>
        <time>2017-05-25T09:17:00Z</time>
      </trkpt>
      <trkpt lat="50.29251161031425" lon="6.844354597851634">
        <ele>536.54999999999995</ele>
        <time>2017-05-25T09:16:47Z</time>
      </trkpt>
      <trkpt lat="50.292487051337957" lon="6.844377396628261">
        <ele>536.54999999999995</ele>
        <time>2017-05-25T09:16:45Z</time>
      </trkpt>
      <trkpt lat="50.292372889816761" lon="6.844469262287021">
        <ele>536.07000000000005</ele>
        <time>2017-05-25T09:16:36Z</time>
      </trkpt>
      <trkpt lat="50.29221061617136" lon="6.844623824581504">
        <ele>536.07000000000005</ele>
        <time>2017-05-25T09:16:23Z</time>
      </trkpt>
      <trkpt lat="50.292190331965685" lon="6.844623992219567">
        <ele>536.07000000000005</ele>
        <time>2017-05-25T09:16:21Z</time>
      </trkpt>
      <trkpt lat="50.292142136022449" lon="6.844684928655624">
        <ele>536.07000000000005</ele>
        <time>2017-05-25T09:16:17Z</time>
      </trkpt>
      <trkpt lat="50.292066615074873" lon="6.844780649989843">
        <ele>536.07000000000005</ele>
        <time>2017-05-25T09:16:10Z</time>
      </trkpt>
      <trkpt lat="50.291935270652175" lon="6.84496664442122">
        <ele>536.54999999999995</ele>
        <time>2017-05-25T09:15:58Z</time>
      </trkpt>
      <trkpt lat="50.291883135214448" lon="6.845043255016208">
        <ele>537.02999999999997</ele>
        <time>2017-05-25T09:15:50Z</time>
      </trkpt>
      <trkpt lat="50.291754640638828" lon="6.845236290246248">
        <ele>537.99000000000001</ele>
        <time>2017-05-25T09:15:37Z</time>
      </trkpt>
      <trkpt lat="50.291540483012795" lon="6.845715483650565">
        <ele>537.50999999999999</ele>
        <time>2017-05-25T09:15:20Z</time>
      </trkpt>
      <trkpt lat="50.291454149410129" lon="6.845994517207146">
        <ele>537.99000000000001</ele>
        <time>2017-05-25T09:15:05Z</time>
      </trkpt>
      <trkpt lat="50.291395140811801" lon="6.846387125551701">
        <ele>538.48000000000002</ele>
        <time>2017-05-25T09:14:51Z</time>
      </trkpt>
      <trkpt lat="50.291327247396111" lon="6.846826002001762">
        <ele>538.96000000000004</ele>
        <time>2017-05-25T09:14:35Z</time>
      </trkpt>
      <trkpt lat="50.291308891028166" lon="6.846988275647163">
        <ele>540.39999999999998</ele>
        <time>2017-05-25T09:14:27Z</time>
      </trkpt>
      <trkpt lat="50.291322721168399" lon="6.847260687500238">
        <ele>541.36000000000001</ele>
        <time>2017-05-25T09:14:15Z</time>
      </trkpt>
      <trkpt lat="50.291327834129333" lon="6.847291784361005">
        <ele>541.36000000000001</ele>
        <time>2017-05-25T09:14:14Z</time>
      </trkpt>
      <trkpt lat="50.291332947090268" lon="6.847523879259825">
        <ele>543.27999999999997</ele>
        <time>2017-05-25T09:14:04Z</time>
      </trkpt>
      <trkpt lat="50.291346944868565" lon="6.847880026325584">
        <ele>543.27999999999997</ele>
        <time>2017-05-25T09:13:47Z</time>
      </trkpt>
      <trkpt lat="50.291362535208464" lon="6.847984548658133">
        <ele>543.75999999999999</ele>
        <time>2017-05-25T09:13:43Z</time>
      </trkpt>
      <trkpt lat="50.291448114439845" lon="6.848314879462123">
        <ele>545.20000000000005</ele>
        <time>2017-05-25T09:13:28Z</time>
      </trkpt>
      <trkpt lat="50.291482228785753" lon="6.848451923578978">
        <ele>546.16999999999996</ele>
        <time>2017-05-25T09:13:22Z</time>
      </trkpt>
      <trkpt lat="50.291620446369052" lon="6.848776806145906">
        <ele>548.57000000000005</ele>
        <time>2017-05-25T09:13:06Z</time>
      </trkpt>
      <trkpt lat="50.291763609275222" lon="6.849002195522189">
        <ele>550.97000000000003</ele>
        <time>2017-05-25T09:12:54Z</time>
      </trkpt>
      <trkpt lat="50.29187835752964" lon="6.84922993183136">
        <ele>550.49000000000001</ele>
        <time>2017-05-25T09:12:45Z</time>
      </trkpt>
      <trkpt lat="50.292017832398415" lon="6.849649026989937">
        <ele>550.49000000000001</ele>
        <time>2017-05-25T09:12:30Z</time>
      </trkpt>
      <trkpt lat="50.292076086625457" lon="6.849804762750864">
        <ele>550.49000000000001</ele>
        <time>2017-05-25T09:12:20Z</time>
      </trkpt>
      <trkpt lat="50.29210994951427" lon="6.849905345588923">
        <ele>550.49000000000001</ele>
        <time>2017-05-25T09:12:15Z</time>
      </trkpt>
      <trkpt lat="50.292115230113268" lon="6.849952200427651">
        <ele>550.49000000000001</ele>
        <time>2017-05-25T09:12:13Z</time>
      </trkpt>
      <trkpt lat="50.292171807959676" lon="6.850094273686409">
        <ele>550.00999999999999</ele>
        <time>2017-05-25T09:12:06Z</time>
      </trkpt>
      <trkpt lat="50.292218662798405" lon="6.850241795182228">
        <ele>550.97000000000003</ele>
        <time>2017-05-25T09:11:59Z</time>
      </trkpt>
      <trkpt lat="50.292395772412419" lon="6.850337684154511">
        <ele>551.45000000000005</ele>
        <time>2017-05-25T09:11:45Z</time>
      </trkpt>
      <trkpt lat="50.292487889528275" lon="6.85034011490643">
        <ele>551.45000000000005</ele>
        <time>2017-05-25T09:11:41Z</time>
      </trkpt>
      <trkpt lat="50.292674219235778" lon="6.85047397390008">
        <ele>552.89999999999998</ele>
        <time>2017-05-25T09:11:25Z</time>
      </trkpt>
      <trkpt lat="50.292727779597044" lon="6.850475817918778">
        <ele>551.45000000000005</ele>
        <time>2017-05-25T09:11:07Z</time>
      </trkpt>
      <trkpt lat="50.2928233332932" lon="6.850527366623282">
        <ele>552.40999999999997</ele>
        <time>2017-05-25T09:11:02Z</time>
      </trkpt>
      <trkpt lat="50.29299977235496" lon="6.85065133497119">
        <ele>552.40999999999997</ele>
        <time>2017-05-25T09:10:49Z</time>
      </trkpt>
      <trkpt lat="50.293220467865467" lon="6.850731214508414">
        <ele>553.86000000000001</ele>
        <time>2017-05-25T09:10:36Z</time>
      </trkpt>
      <trkpt lat="50.293437894433737" lon="6.850896589457989">
        <ele>553.86000000000001</ele>
        <time>2017-05-25T09:10:24Z</time>
      </trkpt>
      <trkpt lat="50.293532609939575" lon="6.850932547822595">
        <ele>553.86000000000001</ele>
        <time>2017-05-25T09:10:19Z</time>
      </trkpt>
      <trkpt lat="50.293675689026713" lon="6.851019049063325">
        <ele>553.86000000000001</ele>
        <time>2017-05-25T09:10:08Z</time>
      </trkpt>
      <trkpt lat="50.293814996257424" lon="6.851096414029598">
        <ele>553.86000000000001</ele>
        <time>2017-05-25T09:09:55Z</time>
      </trkpt>
      <trkpt lat="50.293876603245735" lon="6.851143604144454">
        <ele>553.86000000000001</ele>
        <time>2017-05-25T09:09:50Z</time>
      </trkpt>
      <trkpt lat="50.29410207644105" lon="6.851229686290026">
        <ele>552.89999999999998</ele>
        <time>2017-05-25T09:09:35Z</time>
      </trkpt>
      <trkpt lat="50.294328387826681" lon="6.851313253864646">
        <ele>553.38</ele>
        <time>2017-05-25T09:09:21Z</time>
      </trkpt>
      <trkpt lat="50.294386139139533" lon="6.851326581090689">
        <ele>553.38</ele>
        <time>2017-05-25T09:09:18Z</time>
      </trkpt>
      <trkpt lat="50.294610438868403" lon="6.85141509398818">
        <ele>553.38</ele>
        <time>2017-05-25T09:09:04Z</time>
      </trkpt>
      <trkpt lat="50.294732144102454" lon="6.851500505581498">
        <ele>552.89999999999998</ele>
        <time>2017-05-25T09:08:55Z</time>
      </trkpt>
      <trkpt lat="50.294825350865722" lon="6.85153822414577">
        <ele>552.40999999999997</ele>
        <time>2017-05-25T09:08:49Z</time>
      </trkpt>
      <trkpt lat="50.294909002259374" lon="6.851589605212212">
        <ele>552.40999999999997</ele>
        <time>2017-05-25T09:08:43Z</time>
      </trkpt>
      <trkpt lat="50.294956779107451" lon="6.85165205039084">
        <ele>551.92999999999995</ele>
        <time>2017-05-25T09:08:37Z</time>
      </trkpt>
      <trkpt lat="50.295050153508782" lon="6.85195648111403">
        <ele>551.45000000000005</ele>
        <time>2017-05-25T09:08:23Z</time>
      </trkpt>
      <trkpt lat="50.294886371120811" lon="6.852104673162103">
        <ele>549.52999999999997</ele>
        <time>2017-05-25T09:08:11Z</time>
      </trkpt>
      <trkpt lat="50.294699622318149" lon="6.852208441123366">
        <ele>549.04999999999995</ele>
        <time>2017-05-25T09:07:58Z</time>
      </trkpt>
      <trkpt lat="50.294468449428678" lon="6.852322770282626">
        <ele>548.09000000000003</ele>
        <time>2017-05-25T09:07:44Z</time>
      </trkpt>
      <trkpt lat="50.294284718111157" lon="6.852413546293974">
        <ele>546.64999999999998</ele>
        <time>2017-05-25T09:07:31Z</time>
      </trkpt>
      <trkpt lat="50.294111715629697" lon="6.852516895160079">
        <ele>546.16999999999996</ele>
        <time>2017-05-25T09:07:18Z</time>
      </trkpt>
      <trkpt lat="50.29394474811852" lon="6.852628793567419">
        <ele>544.72000000000003</ele>
        <time>2017-05-25T09:07:05Z</time>
      </trkpt>
      <trkpt lat="50.293933600187302" lon="6.852636504918337">
        <ele>544.24000000000001</ele>
        <time>2017-05-25T09:07:04Z</time>
      </trkpt>
      <trkpt lat="50.293782725930214" lon="6.852752761915326">
        <ele>543.27999999999997</ele>
        <time>2017-05-25T09:06:50Z</time>
      </trkpt>
      <trkpt lat="50.293602347373962" lon="6.85288293287158">
        <ele>542.32000000000005</ele>
        <time>2017-05-25T09:06:35Z</time>
      </trkpt>
      <trkpt lat="50.293574519455433" lon="6.852938504889607">
        <ele>541.36000000000001</ele>
        <time>2017-05-25T09:06:31Z</time>
      </trkpt>
      <trkpt lat="50.293558677658439" lon="6.852972283959389">
        <ele>541.36000000000001</ele>
        <time>2017-05-25T09:06:29Z</time>
      </trkpt>
      <trkpt lat="50.293508721515536" lon="6.853401185944676">
        <ele>539.91999999999996</ele>
        <time>2017-05-25T09:06:15Z</time>
      </trkpt>
      <trkpt lat="50.293495645746589" lon="6.853713998571038">
        <ele>538.48000000000002</ele>
        <time>2017-05-25T09:06:01Z</time>
      </trkpt>
      <trkpt lat="50.293340915814042" lon="6.854028487578034">
        <ele>537.50999999999999</ele>
        <time>2017-05-25T09:05:44Z</time>
      </trkpt>
      <trkpt lat="50.293184677138925" lon="6.854292182251811">
        <ele>535.59000000000003</ele>
        <time>2017-05-25T09:05:28Z</time>
      </trkpt>
      <trkpt lat="50.29305106960237" lon="6.854581609368324">
        <ele>533.66999999999996</ele>
        <time>2017-05-25T09:05:13Z</time>
      </trkpt>
      <trkpt lat="50.292911008000374" lon="6.854892410337925">
        <ele>531.75</ele>
        <time>2017-05-25T09:04:58Z</time>
      </trkpt>
      <trkpt lat="50.292890472337604" lon="6.855206228792667">
        <ele>531.75</ele>
        <time>2017-05-25T09:04:44Z</time>
      </trkpt>
      <trkpt lat="50.293135559186339" lon="6.855561453849077">
        <ele>531.75</ele>
        <time>2017-05-25T09:04:23Z</time>
      </trkpt>
      <trkpt lat="50.293335216119885" lon="6.855778712779284">
        <ele>532.23000000000002</ele>
        <time>2017-05-25T09:04:08Z</time>
      </trkpt>
      <trkpt lat="50.293605448678136" lon="6.856083311140537">
        <ele>533.66999999999996</ele>
        <time>2017-05-25T09:03:50Z</time>
      </trkpt>
      <trkpt lat="50.293864281848073" lon="6.856397548690438">
        <ele>534.14999999999998</ele>
        <time>2017-05-25T09:03:30Z</time>
      </trkpt>
      <trkpt lat="50.293886074796319" lon="6.856489079073072">
        <ele>534.14999999999998</ele>
        <time>2017-05-25T09:03:26Z</time>
      </trkpt>
      <trkpt lat="50.293799238279462" lon="6.856672307476401">
        <ele>533.66999999999996</ele>
        <time>2017-05-25T09:03:16Z</time>
      </trkpt>
      <trkpt lat="50.293634869158268" lon="6.857064664363861">
        <ele>532.23000000000002</ele>
        <time>2017-05-25T09:02:57Z</time>
      </trkpt>
      <trkpt lat="50.293557671830058" lon="6.857346631586552">
        <ele>529.82000000000005</ele>
        <time>2017-05-25T09:02:44Z</time>
      </trkpt>
      <trkpt lat="50.293734613806009" lon="6.857580738142133">
        <ele>530.78999999999996</ele>
        <time>2017-05-25T09:02:29Z</time>
      </trkpt>
      <trkpt lat="50.293912645429373" lon="6.857887683436275">
        <ele>532.23000000000002</ele>
        <time>2017-05-25T09:02:11Z</time>
      </trkpt>
      <trkpt lat="50.294041642919183" lon="6.858241986483336">
        <ele>533.66999999999996</ele>
        <time>2017-05-25T09:01:53Z</time>
      </trkpt>
      <trkpt lat="50.294043989852071" lon="6.858251458033919">
        <ele>534.14999999999998</ele>
        <time>2017-05-25T09:01:46Z</time>
      </trkpt>
      <trkpt lat="50.294033261016011" lon="6.858226899057627">
        <ele>534.14999999999998</ele>
        <time>2017-05-25T09:01:34Z</time>
      </trkpt>
      <trkpt lat="50.294043570756912" lon="6.858211643993855">
        <ele>534.14999999999998</ele>
        <time>2017-05-25T09:01:20Z</time>
      </trkpt>
      <trkpt lat="50.294061843305826" lon="6.858227821066976">
        <ele>533.66999999999996</ele>
        <time>2017-05-25T09:01:05Z</time>
      </trkpt>
      <trkpt lat="50.294064274057746" lon="6.858232682570815">
        <ele>533.66999999999996</ele>
        <time>2017-05-25T09:00:49Z</time>
      </trkpt>
      <trkpt lat="50.294110542163253" lon="6.85822706669569">
        <ele>534.14999999999998</ele>
        <time>2017-05-25T09:00:32Z</time>
      </trkpt>
      <trkpt lat="50.294101741164923" lon="6.85825539752841">
        <ele>533.66999999999996</ele>
        <time>2017-05-25T09:00:17Z</time>
      </trkpt>
      <trkpt lat="50.294120935723186" lon="6.858277358114719">
        <ele>533.19000000000005</ele>
        <time>2017-05-25T09:00:02Z</time>
      </trkpt>
      <trkpt lat="50.293865790590644" lon="6.858348185196519">
        <ele>532.71000000000004</ele>
        <time>2017-05-25T08:59:41Z</time>
      </trkpt>
      <trkpt lat="50.293625732883811" lon="6.858443403616548">
        <ele>533.19000000000005</ele>
        <time>2017-05-25T08:59:22Z</time>
      </trkpt>
      <trkpt lat="50.293309232220054" lon="6.858517248183489">
        <ele>534.14999999999998</ele>
        <time>2017-05-25T08:58:59Z</time>
      </trkpt>
      <trkpt lat="50.293077304959297" lon="6.858603078871965">
        <ele>536.07000000000005</ele>
        <time>2017-05-25T08:58:42Z</time>
      </trkpt>
      <trkpt lat="50.293033216148615" lon="6.858614142984152">
        <ele>534.63</ele>
        <time>2017-05-25T08:58:39Z</time>
      </trkpt>
      <trkpt lat="50.292751584202051" lon="6.858714809641242">
        <ele>536.54999999999995</ele>
        <time>2017-05-25T08:58:16Z</time>
      </trkpt>
      <trkpt lat="50.292500462383032" lon="6.858798963949084">
        <ele>537.50999999999999</ele>
        <time>2017-05-25T08:57:56Z</time>
      </trkpt>
      <trkpt lat="50.292248837649822" lon="6.858917148783803">
        <ele>538.48000000000002</ele>
        <time>2017-05-25T08:57:36Z</time>
      </trkpt>
      <trkpt lat="50.291987909004092" lon="6.859075902029872">
        <ele>538.48000000000002</ele>
        <time>2017-05-25T08:57:15Z</time>
      </trkpt>
      <trkpt lat="50.291748605668545" lon="6.859236750751734">
        <ele>537.99000000000001</ele>
        <time>2017-05-25T08:56:55Z</time>
      </trkpt>
      <trkpt lat="50.291632935404778" lon="6.859546294435859">
        <ele>538.48000000000002</ele>
        <time>2017-05-25T08:56:37Z</time>
      </trkpt>
      <trkpt lat="50.291591780260205" lon="6.859947619959712">
        <ele>537.50999999999999</ele>
        <time>2017-05-25T08:56:18Z</time>
      </trkpt>
      <trkpt lat="50.291593205183744" lon="6.860340479761362">
        <ele>537.50999999999999</ele>
        <time>2017-05-25T08:56:00Z</time>
      </trkpt>
      <trkpt lat="50.291630420833826" lon="6.8607063498348">
        <ele>537.02999999999997</ele>
        <time>2017-05-25T08:55:42Z</time>
      </trkpt>
      <trkpt lat="50.291680628433824" lon="6.860926542431116">
        <ele>537.50999999999999</ele>
        <time>2017-05-25T08:55:28Z</time>
      </trkpt>
      <trkpt lat="50.291752628982067" lon="6.861239690333605">
        <ele>537.50999999999999</ele>
        <time>2017-05-25T08:55:12Z</time>
      </trkpt>
      <trkpt lat="50.29183242470026" lon="6.8615663331002">
        <ele>538.96000000000004</ele>
        <time>2017-05-25T08:54:54Z</time>
      </trkpt>
      <trkpt lat="50.29185145162046" lon="6.861610589548945">
        <ele>538.48000000000002</ele>
        <time>2017-05-25T08:54:38Z</time>
      </trkpt>
      <trkpt lat="50.291831586509943" lon="6.861960953101516">
        <ele>538.48000000000002</ele>
        <time>2017-05-25T08:54:20Z</time>
      </trkpt>
      <trkpt lat="50.291819265112281" lon="6.862082490697503">
        <ele>538.48000000000002</ele>
        <time>2017-05-25T08:54:15Z</time>
      </trkpt>
      <trkpt lat="50.291815074160695" lon="6.862098332494497">
        <ele>538.48000000000002</ele>
        <time>2017-05-25T08:54:14Z</time>
      </trkpt>
      <trkpt lat="50.291765034198761" lon="6.862355740740895">
        <ele>538.48000000000002</ele>
        <time>2017-05-25T08:53:57Z</time>
      </trkpt>
      <trkpt lat="50.291777523234487" lon="6.862643407657743">
        <ele>538.48000000000002</ele>
        <time>2017-05-25T08:53:39Z</time>
      </trkpt>
      <trkpt lat="50.291919428855181" lon="6.862526647746563">
        <ele>538.96000000000004</ele>
        <time>2017-05-25T08:53:23Z</time>
      </trkpt>
      <trkpt lat="50.291930325329304" lon="6.862493371590972">
        <ele>538.96000000000004</ele>
        <time>2017-05-25T08:53:19Z</time>
      </trkpt>
      <trkpt lat="50.291945580393076" lon="6.862453138455749">
        <ele>539.44000000000005</ele>
        <time>2017-05-25T08:53:07Z</time>
      </trkpt>
      <trkpt lat="50.291991932317615" lon="6.862390274181962">
        <ele>539.91999999999996</ele>
        <time>2017-05-25T08:53:02Z</time>
      </trkpt>
      <trkpt lat="50.292064435780048" lon="6.862362530082464">
        <ele>540.39999999999998</ele>
        <time>2017-05-25T08:52:56Z</time>
      </trkpt>
      <trkpt lat="50.292282029986382" lon="6.862282147631049">
        <ele>542.32000000000005</ele>
        <time>2017-05-25T08:52:39Z</time>
      </trkpt>
      <trkpt lat="50.292486380785704" lon="6.862291703000665">
        <ele>543.75999999999999</ele>
        <time>2017-05-25T08:52:21Z</time>
      </trkpt>
      <trkpt lat="50.292536504566669" lon="6.862415503710508">
        <ele>545.20000000000005</ele>
        <time>2017-05-25T08:52:12Z</time>
      </trkpt>
      <trkpt lat="50.292543126270175" lon="6.86249035410583">
        <ele>545.20000000000005</ele>
        <time>2017-05-25T08:52:06Z</time>
      </trkpt>
      <trkpt lat="50.292577911168337" lon="6.862515080720186">
        <ele>544.72000000000003</ele>
        <time>2017-05-25T08:51:52Z</time>
      </trkpt>
      <trkpt lat="50.292574474588037" lon="6.862653633579612">
        <ele>544.24000000000001</ele>
        <time>2017-05-25T08:51:38Z</time>
      </trkpt>
      <trkpt lat="50.292541533708572" lon="6.862776009365916">
        <ele>544.24000000000001</ele>
        <time>2017-05-25T08:51:26Z</time>
      </trkpt>
      <trkpt lat="50.29254974797368" lon="6.862814733758569">
        <ele>544.24000000000001</ele>
        <time>2017-05-25T08:51:07Z</time>
      </trkpt>
      <trkpt lat="50.292518818750978" lon="6.862803418189287">
        <ele>544.24000000000001</ele>
        <time>2017-05-25T08:50:53Z</time>
      </trkpt>
      <trkpt lat="50.292518734931946" lon="6.862799730151892">
        <ele>546.16999999999996</ele>
        <time>2017-05-25T08:50:29Z</time>
      </trkpt>
      <trkpt lat="50.292520662769675" lon="6.862801574170589">
        <ele>540.39999999999998</ele>
        <time>2017-05-25T08:50:28Z</time>
      </trkpt>
      <trkpt lat="50.292523428797722" lon="6.862809788435698">
        <ele>543.75999999999999</ele>
        <time>2017-05-25T08:50:15Z</time>
      </trkpt>
      <trkpt lat="50.292507167905569" lon="6.862787324935198">
        <ele>543.75999999999999</ele>
        <time>2017-05-25T08:49:51Z</time>
      </trkpt>
      <trkpt lat="50.292446734383702" lon="6.862668385729194">
        <ele>543.75999999999999</ele>
        <time>2017-05-25T08:49:27Z</time>
      </trkpt>
    </trkseg>
  </trk>

</gpx>